[[{"header":{"parameterUnit":"m.s-1","parameterCategory":1,"la1":30.6,"la2":28.766,"lo1":-90.7593,"lo2":-88.6598,"dy":0.0162,"dx":0.0183,"nx":116,"ny":114,"refTime":"2024-05-10T12:00:00:Z","depth":0,"parameterNumber":2,"parameterNumberName":"U-component_of_WINDS"},"data":[0.0,0.0,0.0,0.0,0.0,0.0,0.0,0.0,0.0,0.0,0.0,0.0,0.0,0.0,0.0,0.0,0.0,0.0,0.0,0.0,0.0,0.0,0.0,0.0,0.0,0.0,0.0,0.0,0.0,0.0,0.0,0.0,0.0,0.0,0.0,0.0,0.0,0.0,0.0,0.0,0.0,0.0,0.0,0.0,0.0,0.0,0.0,0.0,0.0,0.0,0.0,0.0,0.0,0.0,0.0,0.0,0.0,0.0,0.0,0.0,0.0,0.0,0.0,0.0,0.0,0.0,0.0,0.0,0.0,0.0,0.0,0.0,0.0,0.0,0.0,0.0,0.0,0.0,0.0,0.0,0.0,0.0,0.0,0.0,0.0,0.0,0.0,0.0,0.0,0.0,0.0,0.0,0.0,0.0,0.0,0.0,0.0,0.0,0.0,0.0,0.0,0.0,0.0,0.0,0.0,0.0,0.0,0.0,0.0,0.0,0.0,0.0,0.0,0.0,0.0,0.0,0.0,0.0,0.0,0.0,0.0,0.0,0.0,0.0,0.0,0.0,0.0,0.0,0.0,0.0,0.0,0.0,0.0,0.0,0.0,0.0,0.0,0.0,0.0,0.0,0.0,0.0,0.0,0.0,0.0,0.0,0.0,0.0,0.0,0.0,0.0,0.0,0.0,0.0,0.0,0.0,0.0,0.0,0.0,0.0,0.0,0.0,0.0,0.0,0.0,0.0,0.0,0.0,0.0,0.0,0.0,0.0,0.0,0.0,0.0,0.0,0.0,0.0,0.0,0.0,0.0,0.0,0.0,0.0,0.0,0.0,0.0,0.0,0.0,0.0,0.0,0.0,0.0,0.0,0.0,0.0,0.0,0.0,0.0,0.0,0.0,0.0,0.0,0.0,0.0,0.0,0.0,0.0,0.0,0.0,0.0,0.0,0.0,0.0,0.0,0.0,0.0,0.0,0.0,0.0,0.0,0.0,0.0,0.0,0.0,0.0,0.0,0.0,0.0,0.0,0.0,0.0,0.0,0.0,0.0,0.0,0.0,0.0,0.0,0.0,0.0,0.0,0.0,0.0,0.0,0.0,0.0,0.0,0.0,0.0,0.0,0.0,0.0,0.0,0.0,0.0,0.0,0.0,0.0,0.0,0.0,0.0,0.0,0.0,0.0,0.0,0.0,0.0,0.0,0.0,0.0,0.0,0.0,0.0,0.0,0.0,0.0,0.0,0.0,0.0,0.0,0.0,0.0,0.0,0.0,0.0,0.0,0.0,0.0,0.0,0.0,0.0,0.0,0.0,0.0,0.0,0.0,0.0,0.0,0.0,0.0,0.0,0.0,0.0,0.0,0.0,0.0,0.0,0.0,0.0,0.0,0.0,0.0,0.0,0.0,0.0,0.0,0.0,0.0,0.0,0.0,0.0,0.0,0.0,0.0,0.0,0.0,0.0,0.0,0.0,0.0,0.0,0.0,0.0,0.0,0.0,0.0,0.0,0.0,0.0,0.0,0.0,0.0,0.0,0.0,0.0,0.0,0.0,0.0,0.0,0.0,0.0,0.0,0.0,0.0,0.0,0.0,0.0,0.0,0.0,0.0,0.0,0.0,0.0,0.0,0.0,0.0,0.0,0.0,0.0,0.0,0.0,0.0,0.0,0.0,0.0,0.0,0.0,0.0,0.0,0.0,0.0,0.0,0.0,0.0,0.0,0.0,0.0,0.0,0.0,0.0,0.0,0.0,0.0,0.0,0.0,0.0,0.0,0.0,0.0,0.0,0.0,0.0,0.0,0.0,0.0,0.0,0.0,0.0,0.0,0.0,0.0,0.0,0.0,0.0,0.0,0.0,0.0,0.0,0.0,0.0,0.0,0.0,0.0,0.0,0.0,0.0,0.0,0.0,0.0,0.0,0.0,0.0,0.0,0.0,0.0,0.0,0.0,0.0,0.0,0.0,0.0,0.0,0.0,0.0,0.0,0.0,0.0,0.0,0.0,0.0,0.0,0.0,0.0,0.0,0.0,0.0,0.0,0.0,0.0,0.0,0.0,0.0,0.0,0.0,0.0,0.0,0.0,0.0,0.0,0.0,0.0,0.0,0.0,0.0,0.0,0.0,0.0,0.0,0.0,0.0,0.0,0.0,0.0,0.0,0.0,0.0,0.0,0.0,0.0,0.0,0.0,0.0,0.0,0.0,0.0,0.0,0.0,0.0,0.0,0.0,0.0,0.0,0.0,0.0,0.0,0.0,0.0,0.0,0.0,0.0,0.0,0.0,0.0,0.0,0.0,0.0,0.0,0.0,0.0,0.0,0.0,0.0,0.0,0.0,0.0,0.0,0.0,0.0,0.0,0.0,0.0,0.0,0.0,0.0,0.0,0.0,0.0,0.0,0.0,0.0,0.0,0.0,0.0,0.0,0.0,0.0,0.0,0.0,0.0,0.0,0.0,0.0,0.0,0.0,0.0,0.0,0.0,0.0,0.0,0.0,0.0,0.0,0.0,0.0,0.0,0.0,0.0,0.0,0.0,0.0,0.0,0.0,0.0,0.0,0.0,0.0,0.0,0.0,0.0,0.0,0.0,0.0,0.0,0.0,0.0,0.0,0.0,0.0,0.0,0.0,0.0,0.0,0.0,0.0,0.0,0.0,0.0,0.0,0.0,0.0,0.0,0.0,0.0,0.0,0.0,0.0,0.0,0.0,0.0,0.0,0.0,0.0,0.0,0.0,0.0,0.0,0.0,0.0,0.0,0.0,0.0,0.0,0.0,0.0,0.0,0.0,0.0,0.0,0.0,0.0,0.0,0.0,0.0,0.0,0.0,0.0,0.0,0.0,0.0,0.0,0.0,0.0,0.0,0.0,0.0,0.0,0.0,0.0,0.0,0.0,0.0,0.0,0.0,0.0,0.0,0.0,0.0,0.0,0.0,0.0,0.0,0.0,0.0,0.0,0.0,0.0,0.0,0.0,0.0,0.0,0.0,0.0,0.0,0.0,0.0,0.0,0.0,0.0,0.0,0.0,0.0,0.0,0.0,0.0,0.0,0.0,0.0,0.0,0.0,0.0,0.0,0.0,0.0,0.0,0.0,0.0,0.0,0.0,0.0,0.0,0.0,0.0,0.0,0.0,0.0,0.0,0.0,0.0,0.0,0.0,0.0,0.0,0.0,0.0,0.0,0.0,0.0,0.0,0.0,0.0,0.0,0.0,0.0,0.0,0.0,0.0,0.0,0.0,0.0,0.0,0.0,0.0,0.0,0.0,0.0,0.0,0.0,0.0,0.0,0.0,0.0,0.0,0.0,0.0,0.0,0.0,0.0,0.0,0.0,0.0,0.0,0.0,0.0,0.0,0.0,0.0,0.0,0.0,0.0,0.0,0.0,0.0,0.0,0.0,0.0,0.0,0.0,0.0,0.0,0.0,0.0,0.0,0.0,0.0,0.0,0.0,0.0,0.0,0.0,0.0,0.0,0.0,0.0,0.0,0.0,0.0,0.0,0.0,0.0,0.0,0.0,0.0,0.0,0.0,0.0,0.0,0.0,0.0,0.0,0.0,0.0,0.0,0.0,0.0,0.0,0.0,0.0,0.0,0.0,0.0,0.0,0.0,0.0,0.0,0.0,0.0,0.0,0.0,0.0,0.0,0.0,0.0,0.0,0.0,0.0,0.0,0.0,0.0,0.0,0.0,0.0,0.0,0.0,0.0,0.0,0.0,0.0,0.0,0.0,0.0,0.0,0.0,0.0,0.0,0.0,0.0,0.0,0.0,0.0,0.0,0.0,0.0,0.0,0.0,0.0,0.0,0.0,0.0,0.0,0.0,0.0,0.0,0.0,0.0,0.0,0.0,0.0,0.0,0.0,0.0,0.0,0.0,0.0,0.0,0.0,0.0,0.0,0.0,0.0,0.0,0.0,0.0,0.0,0.0,0.0,0.0,0.0,0.0,0.0,0.0,0.0,0.0,0.0,0.0,0.0,0.0,0.0,0.0,0.0,0.0,0.0,0.0,0.0,0.0,0.0,0.0,0.0,0.0,0.0,0.0,0.0,0.0,0.0,0.0,0.0,0.0,0.0,0.0,0.0,0.0,0.0,0.0,0.0,0.0,0.0,0.0,0.0,0.0,0.0,0.0,0.0,0.0,0.0,0.0,0.0,0.0,0.0,0.0,0.0,0.0,0.0,0.0,0.0,0.0,0.0,0.0,0.0,0.0,0.0,0.0,0.0,0.0,0.0,0.0,0.0,0.0,0.0,0.0,0.0,0.0,0.0,0.0,0.0,0.0,0.0,0.0,0.0,0.0,0.0,0.0,0.0,0.0,0.0,0.0,0.0,0.0,0.0,0.0,0.0,0.0,0.0,0.0,0.0,0.0,0.0,0.0,0.0,0.0,0.0,0.0,0.0,0.0,0.0,0.0,0.0,0.0,0.0,0.0,0.0,0.0,0.0,0.0,0.0,0.0,0.0,0.0,0.0,0.0,0.0,0.0,0.0,0.0,0.0,0.0,0.0,0.0,0.0,0.0,0.0,0.0,0.0,0.0,0.0,0.0,0.0,0.0,0.0,0.0,0.0,0.0,0.0,0.0,0.0,0.0,0.0,0.0,0.0,0.0,0.0,0.0,0.0,0.0,0.0,0.0,0.0,0.0,0.0,0.0,0.0,0.0,0.0,0.0,0.0,0.0,0.0,0.0,0.0,0.0,0.0,0.0,0.0,0.0,0.0,0.0,0.0,0.0,0.0,0.0,0.0,0.0,0.0,0.0,0.0,0.0,0.0,0.0,0.0,0.0,0.0,0.0,0.0,0.0,0.0,0.0,0.0,0.0,0.0,0.0,0.0,0.0,0.0,0.0,0.0,0.0,0.0,0.0,0.0,0.0,0.0,0.0,0.0,0.0,0.0,0.0,0.0,0.0,0.0,0.0,0.0,0.0,0.0,0.0,0.0,0.0,0.0,0.0,0.0,0.0,0.0,0.0,0.0,0.0,0.0,0.0,0.0,0.0,0.0,0.0,0.0,0.0,0.0,0.0,0.0,0.0,0.0,0.0,0.0,0.0,0.0,0.0,0.0,0.0,0.0,0.0,0.0,0.0,0.0,0.0,0.0,0.0,0.0,0.0,0.0,0.0,0.0,0.0,0.0,0.0,0.0,0.0,0.0,0.0,0.0,0.0,0.0,0.0,0.0,0.0,0.0,0.0,0.0,0.0,0.0,0.0,0.0,0.0,0.0,0.0,0.0,0.0,0.0,0.0,0.0,0.0,0.0,0.0,0.0,0.0,0.0,0.0,0.0,0.0,0.0,0.0,0.0,0.0,0.0,0.0,0.0,0.0,0.0,0.0,0.0,0.0,0.0,0.0,0.0,0.0,0.0,0.0,0.0,0.0,0.0,0.0,0.0,0.0,0.0,0.0,0.0,0.0,0.0,0.0,0.0,0.0,0.0,0.0,0.0,0.0,0.0,0.0,0.0,0.0,0.0,0.0,0.0,0.0,0.0,0.0,0.0,0.0,0.0,0.0,0.0,0.0,0.0,0.0,0.0,0.0,0.0,0.0,0.0,0.0,0.0,0.0,0.0,0.0,0.0,0.0,0.0,0.0,0.0,0.0,0.0,0.0,0.0,0.0,0.0,0.0,0.0,0.0,0.0,0.0,0.0,0.0,0.0,0.0,0.0,0.0,0.0,0.0,0.0,0.0,0.0,0.0,0.0,0.0,0.0,0.0,0.0,0.0,0.0,0.0,0.0,0.0,0.0,0.0,0.0,0.0,0.0,0.0,0.0,0.0,0.0,0.0,0.0,0.0,0.0,0.0,0.0,0.0,0.0,0.0,0.0,0.0,0.0,0.0,0.0,0.0,0.0,0.0,0.0,0.0,0.0,0.0,0.0,0.0,0.0,0.0,0.0,0.0,0.0,0.0,0.0,0.0,0.0,0.0,0.0,0.0,0.0,0.0,0.0,0.0,0.0,0.0,0.0,0.0,0.0,0.0,0.0,0.0,0.0,0.0,0.0,0.0,0.0,0.0,0.0,0.0,0.0,0.0,0.0,0.0,0.0,0.0,0.0,0.0,0.0,0.0,0.0,0.0,0.0,0.0,0.0,0.0,0.0,0.0,0.0,0.0,0.0,2.5846,0.0,0.0,0.0,0.0,0.0,0.0,0.0,0.0,0.0,0.0,0.0,0.0,0.0,0.0,0.0,0.0,0.0,0.0,0.0,0.0,0.0,0.0,0.0,0.0,2.419,2.419,2.419,2.419,2.419,2.419,0.0,0.0,0.0,0.0,0.0,2.3937,2.4113,2.4237,2.427,2.4457,2.472,2.5105,2.5084,2.5084,2.5105,0.0,0.0,0.0,0.0,0.0,0.0,0.0,0.0,0.0,0.0,0.0,0.0,0.0,0.0,0.0,0.0,0.0,0.0,0.0,0.0,0.0,0.0,0.0,0.0,0.0,0.0,0.0,0.0,0.0,0.0,0.0,0.0,0.0,0.0,0.0,0.0,0.0,0.0,0.0,0.0,0.0,0.0,0.0,0.0,0.0,0.0,0.0,0.0,0.0,0.0,0.0,0.0,0.0,0.0,0.0,0.0,0.0,0.0,0.0,0.0,0.0,0.0,0.0,0.0,0.0,0.0,0.0,0.0,0.0,0.0,0.0,2.8009,0.0,0.0,0.0,0.0,0.0,0.0,0.0,0.0,0.0,0.0,0.0,0.0,0.0,0.0,0.0,0.0,0.0,0.0,0.0,0.0,0.0,2.419,2.419,2.419,2.419,2.419,2.419,2.419,2.419,2.419,2.419,2.419,2.419,2.4244,2.4333,2.4372,2.4657,2.51,2.5194,2.5637,2.639,2.6716,2.6768,2.6589,2.6534,0.0,0.0,0.0,0.0,0.0,0.0,0.0,0.0,0.0,0.0,0.0,0.0,0.0,0.0,0.0,0.0,0.0,0.0,0.0,0.0,0.0,0.0,0.0,0.0,0.0,0.0,0.0,0.0,0.0,0.0,0.0,0.0,0.0,0.0,0.0,0.0,0.0,0.0,0.0,0.0,0.0,0.0,0.0,0.0,0.0,0.0,0.0,0.0,0.0,0.0,0.0,0.0,0.0,0.0,0.0,0.0,0.0,0.0,0.0,0.0,0.0,0.0,0.0,2.897,2.8598,2.841,2.8598,2.8578,2.8474,2.9488,2.9478,2.8799,2.9437,0.0,0.0,0.0,0.0,0.0,0.0,0.0,0.0,0.0,0.0,0.0,0.0,0.0,0.0,0.0,0.0,0.0,0.0,0.0,2.419,2.419,2.419,2.419,2.419,2.419,2.419,2.419,2.419,2.419,2.419,2.419,2.4403,2.4806,2.5077,2.546,2.5935,2.6422,2.6965,2.7578,2.7801,2.8149,2.8544,2.6895,2.6299,2.6508,0.0,0.0,0.0,0.0,0.0,0.0,0.0,0.0,0.0,0.0,0.0,0.0,0.0,0.0,0.0,0.0,0.0,0.0,0.0,0.0,0.0,0.0,0.0,0.0,0.0,0.0,0.0,0.0,0.0,0.0,0.0,0.0,0.0,0.0,0.0,0.0,0.0,0.0,0.0,0.0,0.0,2.735,2.749,0.0,0.0,0.0,0.0,0.0,0.0,0.0,0.0,0.0,0.0,0.0,0.0,0.0,3.1428,3.1282,3.0539,2.9906,2.9334,2.981,2.9647,2.8941,2.9708,3.0007,3.0004,3.0866,0.0,3.0084,3.0144,0.0,0.0,0.0,0.0,0.0,0.0,0.0,0.0,0.0,0.0,0.0,0.0,0.0,0.0,0.0,0.0,0.0,0.0,0.0,0.0,0.0,2.4303,2.4375,2.4375,2.4478,2.4495,2.4375,2.4375,2.4321,2.419,2.463,2.4976,2.5181,2.5761,2.6431,2.7211,2.8054,2.8614,2.8875,2.897,2.9081,2.9206,2.8341,2.7941,2.793,2.7645,0.0,0.0,0.0,0.0,0.0,0.0,0.0,0.0,0.0,0.0,0.0,0.0,0.0,0.0,0.0,0.0,0.0,0.0,0.0,0.0,0.0,0.0,0.0,0.0,0.0,0.0,0.0,0.0,0.0,0.0,0.0,0.0,0.0,0.0,0.0,0.0,0.0,0.0,0.0,2.738,2.7625,2.7625,2.7919,2.8143,0.0,0.0,0.0,0.0,0.0,0.0,0.0,0.0,0.0,3.1454,3.1485,3.1505,3.1505,3.1117,3.0802,3.0543,3.0393,3.0072,2.9766,3.0133,3.0329,3.0329,3.1161,3.1278,3.097,3.097,3.1161,3.1482,0.0,0.0,0.0,0.0,3.0524,2.9766,0.0,0.0,0.0,0.0,0.0,0.0,0.0,0.0,0.0,0.0,0.0,0.0,2.4266,2.4444,2.4594,2.4594,2.4716,2.4716,2.4512,2.4681,2.4726,2.4521,2.5273,2.5827,2.6091,2.6945,2.777,2.8521,2.9358,2.9746,2.9696,2.9746,2.9661,2.9455,2.9414,2.9246,2.8994,2.8994,2.8994,2.8975,0.0,0.0,0.0,0.0,0.0,0.0,0.0,0.0,0.0,0.0,0.0,0.0,0.0,0.0,0.0,0.0,0.0,0.0,0.0,0.0,0.0,0.0,0.0,0.0,0.0,0.0,0.0,0.0,0.0,0.0,0.0,0.0,0.0,0.0,0.0,0.0,0.0,2.7625,2.7634,2.7814,2.8293,2.8667,0.0,0.0,0.0,0.0,0.0,0.0,3.0073,3.096,3.1494,3.1494,3.1477,3.1482,3.1482,3.1482,3.1482,3.1482,3.1072,3.0891,3.0891,3.1052,3.1139,3.1139,3.1783,3.2033,3.2018,3.1854,3.1779,3.1735,3.1973,3.2033,3.1974,3.1723,3.1515,3.1125,0.0,0.0,0.0,0.0,0.0,0.0,0.0,0.0,0.0,0.0,0.0,2.4478,2.4478,2.467,2.479,2.479,2.479,2.4716,2.4512,2.5222,2.5542,2.5348,2.6117,2.6977,2.7941,2.9007,2.9565,2.9621,2.9855,2.9893,2.9713,2.9893,2.9877,2.9678,2.9493,2.9246,2.8994,2.8994,2.8994,2.8994,2.8994,0.0,0.0,0.0,0.0,0.0,0.0,0.0,0.0,0.0,0.0,0.0,0.0,0.0,0.0,0.0,0.0,0.0,0.0,0.0,0.0,0.0,0.0,0.0,0.0,0.0,0.0,0.0,0.0,0.0,0.0,0.0,0.0,0.0,0.0,0.0,0.0,0.0,0.0,2.8472,2.8577,0.0,0.0,0.0,0.0,2.9607,2.9622,3.0107,3.1317,3.148,3.1509,3.1509,3.1524,3.1482,3.1482,3.1482,3.1482,3.1482,3.2109,3.2408,3.2422,3.305,3.3333,3.3333,3.3395,3.3395,3.335,3.2721,3.2467,3.2527,3.3155,3.3395,3.3257,3.2387,3.1574,3.0715,0.0,0.0,0.0,0.0,0.0,2.419,2.419,2.4319,2.4395,2.4391,2.4568,2.4685,2.4685,2.4836,2.4943,2.4943,2.5049,2.5037,2.4831,2.5483,2.5792,2.5597,2.6858,2.8071,2.9119,2.9645,2.9893,2.9893,3.0136,3.0228,3.0142,3.0228,3.0122,2.9893,2.9813,2.966,2.9436,2.9138,2.8994,2.8994,2.8994,2.8994,0.0,0.0,0.0,0.0,0.0,0.0,0.0,0.0,0.0,0.0,0.0,0.0,0.0,0.0,0.0,0.0,0.0,0.0,0.0,0.0,0.0,0.0,0.0,0.0,0.0,0.0,0.0,0.0,0.0,0.0,0.0,0.0,0.0,0.0,0.0,0.0,0.0,2.9146,2.9579,0.0,3.0163,3.0582,3.0824,3.08,3.08,3.1021,3.1452,3.1482,3.1482,3.1482,3.2359,3.263,3.2332,3.2632,3.2796,3.2796,3.3036,3.314,3.3155,3.338,3.3499,3.3499,3.3499,3.3499,3.3499,3.3709,3.3529,3.317,3.341,3.3499,3.3423,3.3084,3.2411,3.1542,0.0,0.0,0.0,2.4797,2.4468,2.419,2.419,2.4374,2.4505,2.4485,2.4697,2.4869,2.4869,2.5005,2.5099,2.5099,2.5224,2.5348,2.543,2.6119,2.6547,2.6631,2.7993,2.9075,2.9796,3.0018,3.0136,3.0136,3.0311,3.0398,3.0398,3.0398,3.0311,3.0136,3.0028,2.9924,2.9799,2.9715,2.9465,2.9134,2.904,2.8994,2.9012,0.0,0.0,0.0,0.0,0.0,0.0,0.0,0.0,0.0,0.0,0.0,0.0,0.0,0.0,0.0,0.0,0.0,0.0,0.0,0.0,0.0,0.0,0.0,0.0,0.0,0.0,0.0,0.0,0.0,0.0,0.0,0.0,0.0,0.0,0.0,2.9175,2.9819,3.0253,3.0597,3.0836,3.127,3.1482,3.1482,3.1482,3.1482,3.1482,3.2357,3.2626,3.2195,3.3215,3.3487,3.3021,3.332,3.3499,3.3499,3.3724,3.3829,3.3844,3.4068,3.4173,3.4173,3.4173,3.4173,3.4203,3.4637,3.4562,3.4173,3.3813,3.3466,3.3194,3.284,3.2298,3.1678,0.0,2.5024,2.4803,2.4812,2.446,2.419,2.4208,2.4374,2.4521,2.4523,2.481,2.5006,2.501,2.5173,2.5303,2.5303,2.5303,2.5597,2.6263,2.7064,2.7799,2.8518,2.9471,2.9999,3.0013,3.0267,3.0398,3.0436,3.0436,3.0436,3.0475,3.0475,3.0475,3.0475,3.0213,3.009,3.0132,3.0779,3.0453,2.9487,2.9208,2.9095,2.9187,0.0,0.0,0.0,0.0,0.0,0.0,0.0,0.0,0.0,0.0,0.0,0.0,0.0,0.0,0.0,0.0,0.0,0.0,0.0,0.0,0.0,0.0,0.0,0.0,0.0,0.0,0.0,0.0,0.0,0.0,0.0,0.0,0.0,2.9663,2.9663,2.9834,3.0462,3.0537,3.0806,3.1407,3.1482,3.1482,3.1482,3.1482,3.1497,3.1497,3.4025,3.4922,3.3591,3.397,3.3984,3.3529,3.3544,3.3559,3.3559,3.4203,3.4502,3.4532,3.519,3.5504,3.5504,3.5504,3.5504,3.5504,3.5504,3.5504,3.5359,3.4394,3.3449,3.2522,3.1609,3.1254,3.1031,2.5303,2.5024,2.4801,2.4807,2.4487,2.4245,2.4393,2.4577,2.4757,2.4847,2.5077,2.5222,2.5214,2.5264,2.5303,2.5303,2.5303,2.5658,2.6472,2.7128,2.8122,2.954,2.9851,3.0089,3.0299,3.0367,3.0717,3.1352,3.1352,3.1641,3.2218,3.2218,3.2218,3.2218,3.2129,3.2096,3.2121,3.2126,3.1996,3.1701,3.1431,3.1335,3.1354,0.0,0.0,0.0,0.0,0.0,0.0,0.0,0.0,0.0,0.0,0.0,0.0,0.0,0.0,0.0,0.0,0.0,0.0,0.0,0.0,0.0,0.0,0.0,0.0,0.0,0.0,0.0,0.0,0.0,0.0,0.0,3.2368,3.1545,3.1105,3.0567,3.0492,3.1165,3.1255,3.133,3.1452,3.1482,3.1498,3.1516,3.1531,3.1501,3.1513,3.4031,3.5339,3.4927,3.5078,3.4829,3.4203,3.4696,3.4951,3.4951,3.513,3.522,3.5235,3.5415,3.5504,3.5504,3.5504,3.5504,3.5504,3.5504,3.5067,3.4394,3.4095,3.3808,3.3518,3.2522,3.1742,3.1031,2.5303,2.5091,2.487,2.4801,2.454,2.4374,2.4485,2.4662,2.4861,2.4983,2.5187,2.5303,2.5303,2.5303,2.5303,2.5303,2.563,2.6217,2.7082,2.8126,2.9149,3.0125,3.0182,3.0241,3.0398,3.0756,3.1198,3.1698,3.2045,3.2449,3.2891,3.2891,3.2891,3.2891,3.2891,3.2891,3.2929,3.3163,3.3274,3.3298,3.3497,3.3044,3.2241,3.2581,3.2539,3.2381,3.2847,3.2753,3.2364,3.217,0.0,0.0,0.0,0.0,0.0,0.0,0.0,0.0,0.0,0.0,0.0,0.0,0.0,0.0,0.0,0.0,0.0,0.0,0.0,0.0,0.0,0.0,0.0,0.0,3.314,3.2405,3.2051,3.1359,3.1091,3.1422,3.1482,3.1586,3.1913,3.1943,3.1812,3.1498,3.2048,3.2555,3.3153,3.4651,3.5476,3.5476,3.5483,3.5337,3.4906,3.531,3.5504,3.5504,3.5504,3.5504,3.5504,3.5504,3.5504,3.5504,3.5504,3.5504,3.5439,3.5052,3.4543,0.0,0.0,0.0,0.0,0.0,3.1057,3.0558,2.5303,2.5149,2.4969,2.4832,2.4635,2.4504,2.454,2.4709,2.487,2.5005,2.5187,2.5303,2.5303,2.5303,2.5303,2.5303,2.6101,2.7005,2.7967,2.9525,3.0398,3.0398,3.0398,3.0436,3.0533,3.1295,3.1795,3.1987,3.2699,3.3103,3.3199,3.3199,3.3199,3.3199,3.3199,3.3199,3.3237,3.4026,3.4353,3.441,3.5199,3.432,3.2635,3.3373,3.3465,3.3365,3.437,3.4353,3.3876,3.4086,0.0,0.0,0.0,0.0,0.0,0.0,0.0,0.0,0.0,0.0,0.0,0.0,0.0,0.0,0.0,0.0,0.0,0.0,0.0,0.0,0.0,0.0,0.0,0.0,3.3633,3.2788,3.2734,3.2221,3.1772,3.1539,3.1541,3.1884,3.2452,3.2497,3.2317,3.1787,3.27,3.3937,3.5415,0.0,0.0,0.0,0.0,3.5504,3.5504,3.5504,3.5504,3.5504,3.5504,3.5504,3.5504,3.5504,3.5504,3.5504,3.5359,3.5359,3.5279,3.4245,3.3808,3.3602,3.2749,3.1888,3.097,3.0139,2.9792,2.9792,2.5303,2.5149,2.4994,2.4962,2.4717,2.4577,2.4855,2.4842,2.4908,2.5207,2.5284,2.5303,2.5303,2.5303,2.5303,2.5303,2.6101,2.7255,2.8775,2.9833,3.0398,3.0398,3.0398,3.0737,3.1429,3.1621,3.2352,3.3718,3.3872,3.4314,3.5007,3.5007,3.5007,3.5007,3.5007,3.5007,3.5007,3.518,3.5257,3.5257,3.543,3.5235,3.4889,3.5043,3.4923,3.4735,3.4942,3.4636,3.4086,3.3929,3.3827,3.3807,3.3807,3.3807,0.0,0.0,0.0,0.0,0.0,0.0,0.0,0.0,0.0,0.0,0.0,0.0,0.0,0.0,0.0,0.0,0.0,0.0,0.0,3.5391,3.4752,3.4037,3.3495,3.3779,3.3451,3.17,3.2003,3.2377,3.2497,3.2676,3.285,3.3125,3.2353,3.2918,3.5394,3.5529,3.5494,3.5494,3.5474,3.5504,3.5504,3.5504,3.5504,3.5504,0.0,0.0,3.5504,3.5504,3.5504,3.5424,3.461,3.4312,3.4245,3.3241,3.2393,3.1742,3.1536,3.0908,3.0075,2.9869,2.9792,2.9792,2.5303,2.5226,2.513,2.5024,2.4866,2.4806,2.497,2.4943,2.5005,2.5264,2.5303,2.5303,2.5303,2.5206,2.5316,2.5722,2.6955,2.8291,2.966,3.016,3.0398,3.0398,3.0398,3.0814,3.1679,3.2083,3.291,3.4199,3.4641,3.5064,3.5493,3.5493,3.5493,3.5493,3.5493,3.5493,3.5493,3.5493,3.5493,3.5493,3.5493,3.5493,3.5493,3.5493,3.532,3.5122,3.5239,3.4832,3.4223,3.4248,3.4048,3.3807,3.3807,3.379,3.3793,0.0,0.0,0.0,0.0,0.0,0.0,0.0,0.0,0.0,0.0,0.0,0.0,0.0,0.0,3.5165,3.5554,0.0,3.547,3.5144,3.5146,3.4774,3.3672,3.4558,3.4423,3.2254,3.2942,3.3575,3.338,3.3451,3.3791,3.446,3.3893,3.4085,3.5459,3.5504,3.5504,3.5504,3.5504,3.5504,3.5504,3.5504,3.5504,3.5504,3.5504,3.5213,3.4758,3.4758,3.4476,3.4041,3.3533,3.331,3.3241,3.2321,3.1328,3.0482,3.0482,3.0216,2.9792,2.9792,2.9792,2.9792,2.5303,2.5303,2.5245,2.5091,2.5033,2.5007,2.505,2.5034,2.507,2.5264,2.5303,2.5284,2.5245,2.5125,2.5418,2.6378,2.789,2.923,3.0253,3.0367,3.0398,3.0398,3.0398,3.0814,3.1679,3.2487,3.3333,3.4199,3.5064,3.5493,3.5493,3.5493,3.5493,3.5493,3.5493,3.5493,3.5493,3.5493,3.5493,3.5493,3.5493,3.5493,3.5493,3.5493,3.5369,3.5207,3.5369,3.4944,3.4353,3.4529,3.4255,3.3807,3.3807,3.3807,3.3808,3.3796,3.2817,0.0,0.0,0.0,0.0,0.0,0.0,0.0,0.0,0.0,3.5622,3.5622,3.5622,3.5622,3.5622,3.5622,3.5458,3.5094,3.5512,3.5512,3.4313,3.5476,3.5575,3.3358,3.4155,3.4708,3.4262,3.4379,3.4737,3.5459,3.5504,3.5504,3.5504,3.5504,3.5504,3.5504,3.5504,3.5504,3.5504,3.5504,3.5504,3.5504,3.5279,3.4758,3.4027,3.3808,3.331,3.2593,3.2393,3.2249,3.1974,3.1254,3.0482,2.9792,2.9792,2.9792,2.9792,2.9792,2.9792,2.9792,2.5303,2.5303,2.5284,2.5264,2.5113,2.5069,2.5233,2.5103,2.5061,2.5264,2.5303,2.5226,2.5053,2.5157,2.5831,2.7229,2.8241,2.9155,2.999,3.0267,3.0398,3.0398,3.0398,3.0814,3.1679,3.2487,3.3333,3.4199,3.5064,3.5493,3.5493,3.5493,3.5493,3.5493,3.5493,3.5493,3.5493,3.5493,3.5493,3.5493,3.5493,3.5493,3.5493,3.5493,3.5493,3.5432,3.5223,3.502,3.4764,3.4394,3.4043,3.3807,3.3807,3.3807,3.3799,3.3816,3.3664,3.3908,3.5663,3.5645,3.5104,3.5094,3.5283,3.5504,0.0,0.0,3.5622,3.5622,3.5622,3.5622,3.5622,3.5622,3.5797,3.6426,3.6612,3.6611,3.6469,3.7703,3.7816,3.5625,3.5498,3.5231,3.4292,3.4887,3.54,3.5489,3.5504,3.5504,3.5504,3.5504,3.5504,3.5504,3.5504,3.5504,3.5504,3.5504,3.5504,3.5504,3.461,3.4095,3.3959,3.3171,3.2678,3.2522,3.1742,3.0908,3.0075,2.9998,2.9856,2.9792,2.9792,2.9792,2.9792,2.9792,2.9792,2.9792,2.5303,2.5303,2.5303,2.5303,2.5224,2.5203,2.5303,2.5222,2.5201,2.5293,2.5303,2.5264,2.5187,2.59,2.6613,2.7116,2.8465,2.9512,2.9965,3.0254,3.0398,3.0398,3.0398,3.0814,3.1679,3.2025,3.2602,3.343,3.4314,3.4737,3.4757,3.5257,3.5493,3.5493,3.5493,3.5493,3.5493,3.5493,3.5493,3.5493,3.5493,3.5493,3.5493,3.5493,3.5493,3.546,3.5207,3.5002,0.0,3.4446,3.4092,3.3807,3.3799,3.3817,3.3799,3.3807,3.5162,3.6711,3.7025,3.697,3.6677,0.0,3.6025,3.5968,3.565,3.5622,3.5622,3.5622,3.5622,3.5757,3.6214,3.6299,3.6552,0.0,3.7787,3.7949,3.7463,3.8297,3.8315,3.6669,3.7508,3.7402,3.5185,3.5307,3.5504,3.5504,3.5504,3.5504,3.5504,3.5504,3.5504,3.5504,3.5504,3.5504,3.5504,3.5504,3.5504,3.5504,3.4461,3.3739,3.3171,3.2249,3.1476,3.0921,3.0558,3.0139,2.9792,2.9792,2.9792,2.9792,2.9792,2.9792,2.9792,2.9792,2.9792,2.9792,2.5303,2.5303,2.5303,2.5303,2.5303,2.5303,2.5303,2.5303,2.5303,2.5303,2.5303,2.5284,2.5226,2.6167,2.6828,2.6881,2.8419,2.9531,2.9897,3.0222,3.0398,3.0398,3.0398,3.0698,3.1333,3.1583,3.1987,3.2564,3.366,3.4199,3.4218,3.5084,3.5493,3.5493,3.5493,3.5493,3.5493,3.5493,3.5493,3.5493,3.5493,3.5493,3.5493,3.5493,3.5465,3.5358,3.5088,3.4927,3.4762,3.4362,3.4039,3.3817,3.3807,3.443,3.5145,3.5151,3.6835,3.8589,3.8095,0.0,0.0,3.6825,3.6498,3.6266,3.5739,3.5622,3.5673,3.5893,3.5943,3.618,3.6958,3.7094,3.733,3.8075,3.865,3.889,3.8517,3.8887,3.8876,3.7947,3.9161,3.8885,3.5799,3.5495,3.5504,3.5504,3.5504,3.5504,3.5504,3.5504,3.5504,3.5504,3.5504,3.5504,3.5504,3.5504,3.5359,3.5067,3.4109,3.3101,3.2177,3.1254,3.0419,2.9792,2.9792,2.9792,2.9792,2.9792,2.9792,2.9792,2.9792,2.9624,2.9365,2.9365,2.9365,2.9365,2.5303,2.5303,2.5303,2.5303,2.5303,2.5303,2.5303,2.5303,2.5303,2.5303,2.5303,2.5226,2.5024,2.5442,2.6072,2.6827,2.7908,2.8857,2.9649,3.0151,3.0398,3.0398,3.0398,3.0398,3.0436,3.1275,3.1718,3.1737,3.3391,3.4199,3.4218,3.5084,3.5493,3.5493,3.5493,3.5493,3.5493,3.5493,3.5493,3.5493,3.5493,3.5493,3.5493,3.5493,3.5346,3.5077,3.4812,3.471,3.4617,3.4023,3.3816,3.3803,3.3803,3.5999,0.0,3.8527,3.8603,3.8707,0.0,0.0,3.779,3.7285,3.6803,3.6266,3.5739,3.5622,3.5825,3.6586,3.6738,3.6975,3.7736,3.7872,3.8108,3.8853,3.8988,3.9242,3.9935,4.0062,4.0059,3.9989,4.0063,3.8885,0.0,3.5495,3.5504,3.5504,3.5504,3.5504,3.5504,3.5504,3.5504,3.5504,3.5504,3.5504,3.5504,3.5504,3.4986,3.4027,3.3101,3.2177,3.118,3.0279,2.9869,2.9792,2.9792,2.9792,2.9792,2.9792,2.9792,2.9792,2.9792,2.9106,2.8176,2.8176,2.8176,2.8176,2.537,2.5322,2.5303,2.5303,2.5303,2.5303,2.5303,2.5303,2.5303,2.5303,2.5303,0.0,0.0,0.0,0.0,0.0,2.784,2.8736,2.9448,2.9893,3.0129,3.0129,3.0302,3.0398,3.0398,3.0698,3.0852,3.0852,3.2519,3.3346,3.3365,3.4814,3.5493,3.5493,3.5493,3.5493,3.5493,3.5493,3.5493,3.5493,3.5493,3.5493,3.5474,3.5301,3.5168,3.5051,0.0,3.4596,3.4777,3.5294,3.6156,3.7051,3.7048,0.0,0.0,3.8707,3.8701,3.8707,3.8707,0.0,3.8318,3.7808,3.7285,3.6803,3.6249,3.6263,3.6468,3.6721,3.7178,3.7753,3.8481,3.8633,3.887,3.9597,3.9715,3.9817,4.0079,4.0111,4.0106,4.0106,3.8318,0.0,0.0,0.0,0.0,3.5504,3.5504,3.5504,3.5504,3.5504,3.5504,3.5504,3.5504,3.5504,3.5504,3.4839,3.4312,3.3959,3.2393,3.118,3.0279,2.9934,2.9792,2.9792,2.9792,2.9792,2.9792,2.9792,2.9365,2.8688,2.8688,2.8028,2.7046,2.7046,2.6543,2.6036,0.0,2.537,2.5322,2.5303,2.5303,0.0,0.0,0.0,0.0,0.0,0.0,0.0,0.0,0.0,0.0,0.0,0.0,2.8235,2.8893,2.9542,2.9876,2.9886,3.0071,3.0148,3.0148,3.0148,3.0148,3.0148,3.1614,3.2492,3.2832,3.4334,3.5205,3.5493,3.5493,3.5493,3.5493,3.5493,3.5435,3.5359,3.5359,3.5301,3.5205,3.5018,3.4875,0.0,3.5114,3.5211,3.5225,3.5347,3.6872,3.8704,3.87,0.0,0.0,0.0,3.8707,3.8707,3.8707,3.8707,3.8546,3.7843,3.7433,3.7069,3.6654,3.6672,3.6924,3.7466,3.7956,3.8514,3.9242,3.9377,3.9529,4.0003,4.007,4.0104,4.008,4.0097,3.968,3.859,3.6707,3.5499,0.0,0.0,0.0,3.5504,3.5504,3.5504,3.5504,3.5504,3.5504,3.5504,3.5504,3.5504,3.5504,3.4476,3.3671,3.2961,3.1402,3.0419,2.9792,2.9792,2.9792,2.9792,2.9792,2.9792,2.9792,2.9365,2.8767,2.8084,2.7695,2.6871,2.588,2.588,2.5126,2.4382,0.0,0.0,2.539,0.0,0.0,0.0,0.0,0.0,0.0,0.0,0.0,0.0,0.0,0.0,0.0,0.0,0.0,0.0,2.8054,2.9098,2.9677,2.9679,2.9704,2.9704,2.9704,2.9704,2.9704,2.9704,3.0763,3.1734,3.2605,3.3667,3.462,3.5455,3.5455,3.5455,3.5455,3.5455,3.5301,3.5076,3.5086,3.4923,3.4712,3.4693,3.4471,3.4426,3.6036,3.6422,3.5893,0.0,0.0,0.0,0.0,0.0,0.0,0.0,0.0,3.8707,3.8707,3.8707,3.8483,3.7524,3.7246,3.7167,3.6932,3.6886,3.7297,3.87,3.9022,3.9259,0.0,0.0,4.007,4.007,4.0104,4.0086,4.0113,3.9975,3.8761,0.0,0.0,0.0,0.0,0.0,0.0,3.5504,0.0,3.5504,3.5504,3.5504,3.5504,3.5424,3.5424,3.5424,3.5359,3.4394,3.2961,3.1106,3.0203,2.9792,2.9792,2.9792,2.9792,2.9792,2.9792,2.9792,2.9624,2.8518,2.8004,2.7844,2.6801,2.5735,2.4744,2.4744,2.409,2.3281,0.0,0.0,0.0,0.0,0.0,0.0,0.0,0.0,0.0,0.0,0.0,0.0,0.0,0.0,0.0,0.0,0.0,0.0,2.8059,2.8964,2.9493,2.9487,2.9619,2.9694,2.9694,2.9694,2.9694,2.9694,3.0634,3.1492,3.2324,3.3211,3.4068,3.4903,3.4903,3.4903,3.4903,3.4903,3.4864,3.4803,3.4802,3.475,3.4675,3.4428,3.4272,3.4328,3.5428,3.601,0.0,0.0,0.0,0.0,0.0,0.0,3.8707,0.0,0.0,3.8707,3.8707,3.8707,3.8627,3.8401,3.8169,3.7994,3.7907,3.8195,3.8531,3.8903,3.9428,3.9868,0.0,0.0,0.0,4.007,4.0083,0.0,4.009,3.8152,0.0,3.5601,0.0,3.5504,3.5504,3.5504,0.0,0.0,3.5504,3.5504,3.5504,3.5504,3.5133,3.4394,3.4394,3.4041,3.3325,3.2393,3.1328,3.0139,2.9934,2.9792,2.9792,2.9792,2.9792,2.9792,2.9792,2.9287,2.8505,2.8255,2.7105,2.5608,2.5378,2.476,2.4038,2.4038,2.4078,2.4092,0.0,0.0,0.0,0.0,0.0,0.0,0.0,0.0,0.0,0.0,0.0,0.0,0.0,0.0,0.0,0.0,0.0,0.0,0.0,2.8223,2.8865,2.92,2.9333,2.9389,2.9389,2.9389,2.9389,2.9389,2.9983,3.072,3.1512,3.2449,3.3317,3.4149,3.4528,3.4718,3.4718,3.4718,3.4623,0.0,0.0,3.442,3.4283,3.4091,3.3925,3.3925,3.5063,0.0,0.0,0.0,0.0,3.8695,3.8702,3.8711,3.8707,3.8707,0.0,3.8707,3.8707,3.8707,3.8823,3.9301,3.8852,3.8417,3.8883,3.8969,3.9089,3.9411,3.9783,0.0,4.007,0.0,0.0,0.0,0.0,0.0,3.8291,3.6596,3.5521,0.0,3.5504,0.0,3.5504,3.5504,3.5504,0.0,3.5504,3.5504,3.5504,3.5504,3.5052,3.4027,3.4027,3.338,3.2033,3.1462,3.0771,2.9792,2.9792,2.9792,2.9792,2.9287,2.9028,2.9028,2.8542,2.7959,2.736,2.686,2.599,2.5016,2.4508,2.4285,2.4062,2.4062,2.4209,2.4414,0.0,0.0,0.0,0.0,0.0,0.0,0.0,0.0,0.0,0.0,2.5111,2.4987,0.0,0.0,0.0,0.0,0.0,0.0,0.0,0.0,2.8169,2.8957,2.8994,2.8994,2.8994,2.8994,2.8994,2.8994,2.9242,2.9729,3.048,3.1426,3.2318,3.3158,3.3925,3.432,3.442,3.442,3.4246,3.3981,3.3981,3.3854,3.3632,0.0,3.3405,3.3323,3.4877,0.0,0.0,0.0,3.7549,3.8538,3.8637,3.8692,3.8707,3.8707,3.8713,3.8719,3.8719,3.8693,3.8911,3.984,3.9345,3.8895,3.9589,3.947,3.9326,3.9952,0.0,4.007,4.007,4.007,4.0087,4.0117,0.0,3.8553,3.589,3.5492,3.5472,3.5509,3.5504,3.5504,3.5504,3.5504,3.5504,3.5504,3.5504,3.5504,3.5504,3.5359,3.4773,3.3671,3.3533,3.2678,3.1044,3.1044,3.0633,2.9792,2.9792,2.9792,2.9792,2.8597,2.8096,2.8004,2.6964,2.6434,2.624,2.5306,2.4992,2.5166,2.4217,2.4131,2.4502,2.4502,2.4541,2.459,0.0,0.0,0.0,0.0,0.0,0.0,0.0,0.0,0.0,0.0,2.5111,2.4956,0.0,0.0,0.0,0.0,0.0,0.0,0.0,0.0,0.0,2.8957,2.8994,2.8994,2.8994,2.8994,2.8994,2.8994,2.9053,2.9315,2.9766,2.9958,3.0668,3.1755,3.1883,3.2301,3.2875,3.2875,3.2857,3.2802,3.2802,3.2773,3.2734,3.2744,0.0,0.0,0.0,0.0,0.0,0.0,3.729,3.7614,3.8441,3.8682,3.8707,3.8707,3.8688,3.8694,3.8694,3.8708,3.8752,3.8925,3.9781,4.0436,3.9766,3.9799,0.0,0.0,4.007,4.007,4.007,4.007,4.0087,4.0117,0.0,0.0,0.0,0.0,3.5529,0.0,0.0,0.0,0.0,0.0,0.0,0.0,3.5504,3.5504,3.5504,3.4691,3.3463,3.1742,3.0908,3.0355,3.0075,3.0075,2.9934,2.9792,2.9792,2.9792,2.9792,2.8597,2.8096,2.8004,2.6964,0.0,2.5548,2.5385,2.504,2.4572,2.4398,2.457,2.4951,2.4951,2.5185,2.5508,0.0,0.0,0.0,0.0,0.0,0.0,0.0,2.5303,2.5303,2.5303,2.5214,2.5088,2.493,2.4757,2.4632,0.0,0.0,0.0,0.0,0.0,0.0,0.0,0.0,0.0,2.8994,2.8994,0.0,0.0,0.0,2.8975,2.8994,0.0,0.0,3.0242,3.1029,3.1612,3.1961,3.2345,3.2519,3.2519,3.2519,3.2492,3.2483,0.0,0.0,0.0,0.0,0.0,0.0,0.0,3.6967,3.726,3.7775,3.8285,3.8707,3.8707,3.8715,3.8455,3.736,3.7114,3.7453,3.9031,3.9841,4.0297,4.0672,0.0,0.0,0.0,4.007,4.007,4.007,0.0,0.0,0.0,0.0,0.0,0.0,0.0,0.0,0.0,0.0,0.0,0.0,0.0,0.0,0.0,3.4691,3.4691,3.4691,3.3325,3.2105,3.1254,3.0279,2.9792,2.9792,2.9792,2.9792,2.9792,2.9197,2.8937,2.8858,2.7186,2.6356,2.6356,2.5221,2.465,2.4563,2.4563,2.4605,2.4756,2.4756,2.5019,2.5314,2.461,2.4528,2.4609,0.0,0.0,0.0,0.0,0.0,0.0,2.5303,2.5303,2.5303,2.5303,2.5303,2.5253,2.5088,2.4766,2.4561,0.0,0.0,0.0,0.0,0.0,0.0,0.0,0.0,0.0,0.0,0.0,0.0,0.0,0.0,0.0,0.0,0.0,0.0,0.0,0.0,0.0,3.1157,3.1754,3.2088,0.0,0.0,3.2207,0.0,0.0,0.0,0.0,0.0,0.0,0.0,0.0,3.6395,3.6857,3.6853,3.7485,3.8313,3.8436,3.8441,3.7971,3.6106,3.5607,3.6318,3.934,3.9834,3.9881,4.1138,4.0722,0.0,0.0,4.007,4.007,4.007,0.0,0.0,0.0,0.0,0.0,0.0,0.0,0.0,0.0,0.0,0.0,0.0,0.0,0.0,0.0,3.3602,3.338,3.338,3.2033,3.1106,3.0895,3.0216,2.9792,2.9792,2.9792,2.9702,2.9443,2.8518,2.8004,2.7683,2.5703,2.4787,2.4713,2.3737,2.3525,2.3935,2.4023,2.4521,2.5215,2.5215,2.543,2.5538,2.4196,2.3692,2.3484,0.0,0.0,0.0,0.0,0.0,0.0,2.5303,2.5303,2.5303,2.5303,2.5303,2.5284,2.5274,2.4962,2.47,0.0,0.0,0.0,0.0,0.0,0.0,0.0,0.0,0.0,0.0,0.0,0.0,0.0,0.0,0.0,0.0,0.0,0.0,0.0,0.0,0.0,0.0,3.0281,0.0,0.0,0.0,0.0,0.0,0.0,0.0,0.0,0.0,0.0,0.0,0.0,0.0,3.5768,3.5756,3.6256,3.6988,3.7597,0.0,0.0,3.5915,3.5589,3.6342,3.9341,4.0063,4.0069,4.0188,0.0,0.0,4.007,4.007,4.007,4.007,3.7807,0.0,0.0,0.0,3.5507,0.0,0.0,0.0,0.0,0.0,0.0,0.0,0.0,0.0,3.4027,3.2393,3.1462,3.1462,3.1315,3.0833,2.9934,2.9856,2.9792,2.9792,2.9792,2.9287,2.8255,2.8176,2.7602,2.6637,2.5378,2.4787,2.4723,2.4067,2.3975,0.0,2.4785,2.5234,2.5674,2.5674,2.5703,2.5538,2.4196,2.3692,2.3484,0.0,0.0,0.0,0.0,0.0,0.0,2.5303,2.5303,2.5303,2.5303,2.5303,2.5303,2.5303,2.5072,2.485,2.47,2.4495,0.0,0.0,0.0,0.0,0.0,0.0,0.0,0.0,0.0,2.8883,2.8659,0.0,0.0,0.0,0.0,0.0,0.0,0.0,0.0,0.0,0.0,0.0,0.0,0.0,0.0,0.0,0.0,0.0,0.0,0.0,0.0,0.0,0.0,0.0,0.0,3.5622,3.5819,0.0,0.0,3.6917,3.6856,3.6606,3.61,3.632,3.9361,4.0099,4.007,4.007,0.0,4.007,4.007,3.8619,3.7636,3.856,3.7698,3.6746,3.6495,3.5905,0.0,0.0,0.0,0.0,0.0,0.0,0.0,0.0,0.0,0.0,3.2393,3.1132,3.0343,3.0343,3.0343,3.0216,2.9792,2.9792,2.9792,2.9792,2.9792,2.9197,2.8096,2.7452,2.6543,2.5462,2.4296,2.38,2.3744,2.3762,2.4033,0.0,2.4893,2.5332,2.5635,2.4815,2.451,2.4196,2.2064,2.1253,2.1049,0.0,0.0,0.0,0.0,0.0,2.5409,2.5341,2.5303,2.5303,2.5303,2.5303,2.5303,2.5303,2.5173,2.5005,2.4818,2.4607,0.0,0.0,0.0,0.0,0.0,0.0,0.0,0.0,0.0,2.879,2.839,2.8402,2.8164,0.0,0.0,0.0,0.0,0.0,0.0,0.0,0.0,0.0,0.0,0.0,0.0,0.0,0.0,0.0,0.0,0.0,0.0,0.0,0.0,0.0,0.0,0.0,0.0,0.0,0.0,3.6248,3.6429,3.6644,3.6417,3.6653,3.9027,3.988,4.007,0.0,0.0,3.9428,3.9428,3.7707,3.646,3.7365,3.7301,3.6817,3.5968,3.5661,3.5501,3.5509,0.0,0.0,0.0,0.0,0.0,0.0,0.0,3.2536,3.0908,3.0139,2.9792,2.9792,2.9792,2.9792,2.9792,2.9792,2.9792,2.9792,2.9456,2.8779,2.7602,2.6543,2.5378,2.4296,2.3464,2.3135,2.3164,2.3603,2.4033,0.0,2.4496,2.4727,2.502,2.3583,2.3076,2.2767,2.0444,1.9627,1.9428,0.0,0.0,0.0,0.0,0.0,2.5486,2.5409,2.5341,2.5303,2.5303,2.5303,2.5303,2.5303,2.5303,2.516,2.4832,2.4607,0.0,0.0,0.0,0.0,0.0,0.0,0.0,2.7793,2.8581,2.8821,2.8418,2.8404,2.8014,2.7317,2.7295,2.7083,0.0,0.0,0.0,0.0,0.0,0.0,0.0,0.0,0.0,0.0,0.0,0.0,0.0,0.0,0.0,0.0,0.0,0.0,0.0,0.0,3.5622,3.5622,0.0,3.5622,3.5622,3.5639,3.6342,3.7309,3.8348,3.9343,4.007,0.0,3.8916,3.7812,3.7812,3.7778,3.762,3.7112,3.6175,3.5769,3.6461,3.6006,3.5504,3.5504,0.0,0.0,0.0,0.0,0.0,0.0,0.0,3.0833,2.9869,2.9792,0.0,2.9792,2.9792,2.9792,2.9792,2.9792,2.9792,2.9792,2.8676,2.7602,2.6483,2.5378,2.4211,2.3135,2.3144,2.3135,2.3164,2.3603,2.4033,0.0,2.3413,2.3322,2.3583,2.2257,2.1752,2.155,2.0135,1.9627,1.9428,0.0,0.0,0.0,0.0,0.0,0.0,2.5409,2.5341,2.5303,2.5303,2.5303,2.5303,2.5303,2.5303,2.5203,2.4968,2.478,0.0,0.0,0.0,0.0,0.0,0.0,0.0,2.7775,2.8036,2.8141,2.805,2.8066,2.7793,2.73,2.7006,2.6989,2.7097,0.0,0.0,0.0,0.0,0.0,0.0,0.0,0.0,0.0,0.0,0.0,0.0,0.0,0.0,0.0,0.0,0.0,0.0,0.0,0.0,0.0,3.5622,3.5622,3.574,3.6429,3.684,3.7492,3.9217,3.9881,4.007,4.007,3.8916,3.7878,3.8248,3.7211,3.6318,3.6656,3.6029,3.5616,3.5816,3.5668,3.5504,0.0,0.0,0.0,0.0,0.0,0.0,0.0,0.0,3.0139,2.9792,2.9792,2.9792,2.9792,2.9028,2.8597,2.8597,2.8597,2.8279,2.7557,2.7209,2.6461,2.5294,2.4957,2.4211,2.3135,2.3135,2.3135,2.3164,2.3603,2.3467,2.3017,2.303,2.2725,2.2156,2.0845,2.0231,2.0135,1.8708,1.8199,1.8199,0.0,0.0,0.0,0.0,0.0,0.0,2.5437,2.539,2.5322,2.5303,2.5303,2.5303,2.5303,2.5303,2.5214,2.5022,2.4877,0.0,0.0,0.0,0.0,0.0,0.0,0.0,2.7332,2.7643,2.7834,2.7897,2.7901,2.7614,2.708,2.6809,2.6826,2.7063,2.6809,2.6962,0.0,0.0,0.0,0.0,0.0,0.0,3.119,0.0,0.0,0.0,0.0,0.0,0.0,0.0,0.0,0.0,0.0,0.0,0.0,0.0,3.5622,3.5808,3.6729,3.7202,3.7765,3.9304,3.9915,4.007,4.007,3.9118,3.8226,3.829,3.7006,3.5968,3.6166,3.5846,3.5504,3.5504,3.5504,3.5359,0.0,0.0,0.0,0.0,0.0,0.0,0.0,3.0343,2.9792,2.9792,2.9792,2.9792,2.9792,2.8688,2.7924,2.7522,2.7522,2.7209,2.6483,2.6058,2.5462,2.4787,2.4372,2.38,2.3135,2.3135,2.3135,2.3154,2.3428,2.3047,0.0,2.1969,2.1391,2.0647,1.9236,1.8808,1.8708,1.7891,1.7582,1.7582,0.0,0.0,0.0,0.0,0.0,0.0,0.0,2.5438,2.539,2.5303,2.5303,2.5303,2.5303,2.5303,2.5224,2.5034,2.4891,0.0,0.0,0.0,0.0,0.0,0.0,2.5713,2.6594,2.7328,2.7779,2.7954,2.7926,2.75,2.6758,2.6725,2.6691,2.6691,2.6691,2.6691,0.0,0.0,0.0,0.0,0.0,3.119,0.0,0.0,0.0,0.0,0.0,0.0,0.0,0.0,0.0,0.0,0.0,0.0,0.0,0.0,0.0,0.0,0.0,3.7401,3.8087,3.8873,3.958,4.007,4.007,3.9489,0.0,3.7921,3.7144,3.6384,3.5619,3.5504,3.5504,3.5504,3.5504,3.5133,0.0,0.0,0.0,0.0,0.0,0.0,0.0,3.0279,2.9792,2.9792,2.9702,2.9702,2.9702,2.8518,2.7441,2.6389,2.6307,2.6224,2.6224,2.521,2.4713,2.4702,2.3637,2.3135,2.3135,2.3135,2.3047,0.0,2.296,2.2471,2.1648,2.0314,1.9484,1.891,1.7619,1.7281,1.7522,1.7542,1.7549,1.7555,0.0,0.0,0.0,0.0,0.0,0.0,0.0,0.0,0.0,0.0,2.5303,2.5303,2.5303,2.5303,2.5274,0.0,0.0,0.0,0.0,0.0,0.0,0.0,2.4373,2.5144,2.6576,2.6796,2.7328,2.829,2.8037,2.7666,2.7147,2.6841,2.6691,2.6691,2.6691,2.6691,0.0,0.0,0.0,0.0,3.0671,3.119,0.0,0.0,0.0,0.0,3.119,3.1664,0.0,0.0,0.0,0.0,0.0,0.0,0.0,0.0,3.5622,3.5881,3.7283,0.0,3.8221,3.9547,3.9952,4.007,0.0,3.9489,3.869,0.0,0.0,3.6384,3.5619,3.5504,3.5504,3.5504,3.5504,3.5133,0.0,0.0,0.0,0.0,0.0,0.0,0.0,2.9934,2.9792,2.9792,2.9015,2.8518,2.8518,2.6603,2.5452,2.521,2.4382,2.3887,2.3887,2.3637,2.3464,2.3464,2.3222,2.3135,2.3135,2.3135,2.2589,2.1747,2.1747,2.0702,1.902,1.864,1.8021,1.7303,1.6908,1.6854,1.6941,1.7168,1.7248,1.7281,0.0,0.0,0.0,0.0,0.0,0.0,0.0,0.0,0.0,0.0,2.5341,2.5322,2.5303,2.5303,2.5303,0.0,0.0,0.0,0.0,0.0,0.0,2.419,2.419,2.4777,2.6025,2.641,2.7009,2.7861,2.8031,2.7833,2.7303,2.7083,2.6873,2.6691,2.6691,2.6691,0.0,0.0,0.0,2.9134,3.062,0.0,0.0,0.0,0.0,0.0,3.119,3.1472,0.0,3.3019,3.3668,3.4158,0.0,0.0,0.0,0.0,3.5622,3.596,3.7483,3.7917,3.8153,3.9291,3.9542,3.9542,3.9542,0.0,0.0,0.0,0.0,0.0,3.5668,3.5133,0.0,3.5424,3.4773,0.0,0.0,0.0,0.0,0.0,0.0,0.0,0.0,2.9792,2.9792,2.9792,2.8767,2.8096,2.8096,2.6025,2.4787,2.4787,2.3714,2.3135,2.3135,2.3135,2.3135,2.3047,2.258,2.2306,2.2217,2.1676,2.1123,2.0486,2.0486,1.9512,1.7953,1.7953,1.738,1.6506,1.6506,1.6587,1.6727,1.6887,1.6947,1.6866,0.0,0.0,0.0,0.0,0.0,0.0,0.0,0.0,0.0,0.0,0.0,0.0,0.0,0.0,0.0,0.0,0.0,0.0,0.0,0.0,2.4495,2.4266,2.4209,2.463,2.5568,2.6245,2.6885,2.7483,2.8103,2.8057,2.7378,2.7324,2.707,2.6691,2.6691,2.6691,2.6809,2.8338,2.8985,2.9134,3.062,0.0,0.0,0.0,0.0,0.0,0.0,0.0,0.0,3.2916,3.338,3.3656,3.5133,0.0,0.0,0.0,0.0,0.0,3.7483,3.7819,3.7911,3.8677,3.8908,3.8854,3.8745,0.0,0.0,0.0,0.0,0.0,0.0,0.0,0.0,0.0,0.0,0.0,0.0,0.0,0.0,0.0,0.0,0.0,2.9792,2.9624,2.9534,2.9534,2.8347,2.7591,2.7591,2.5619,2.4542,2.4542,2.3627,2.3135,2.3135,2.3135,2.3135,2.3057,2.2031,2.148,2.1293,2.0215,1.9579,1.9222,1.9222,0.0,1.7412,1.7412,1.6918,1.6206,1.6206,1.6353,1.6573,1.6414,1.6327,1.6134,0.0,0.0,0.0,0.0,0.0,0.0,0.0,0.0,0.0,0.0,0.0,0.0,0.0,0.0,0.0,0.0,0.0,0.0,0.0,2.4943,2.4776,2.4461,2.4284,2.4905,2.6392,2.6539,2.7306,2.8704,2.8511,2.821,2.7811,2.7454,2.7096,2.6691,2.6691,2.6691,2.6809,2.8356,2.899,2.9128,3.0615,0.0,0.0,0.0,0.0,0.0,0.0,0.0,0.0,3.2916,3.338,3.3656,3.5133,0.0,0.0,0.0,0.0,0.0,3.7483,3.7373,3.7199,3.8543,3.8908,3.8745,3.8092,0.0,0.0,0.0,0.0,0.0,0.0,0.0,0.0,0.0,0.0,0.0,0.0,0.0,0.0,0.0,0.0,2.9792,2.9792,2.8937,2.8347,2.8347,2.6438,2.5284,2.5284,2.4049,2.3387,2.3387,2.3222,2.3135,2.3135,2.3135,2.3135,2.3135,2.295,2.2306,2.1293,2.1114,1.9943,1.7963,0.0,1.7217,1.6109,1.6109,1.6042,1.5899,1.5899,1.5925,1.58,1.4937,1.4714,1.4547,0.0,0.0,0.0,0.0,0.0,0.0,0.0,0.0,0.0,0.0,0.0,0.0,0.0,0.0,0.0,0.0,0.0,0.0,0.0,2.5046,2.4937,2.4776,2.451,2.4875,2.5915,2.6374,2.7181,2.8356,2.8596,2.854,2.8156,2.7566,2.708,2.6691,2.6691,2.6691,2.6809,2.8356,2.9007,2.9124,0.0,0.0,0.0,0.0,0.0,0.0,0.0,0.0,0.0,0.0,3.338,3.3656,3.5133,0.0,0.0,0.0,0.0,0.0,3.6504,3.668,3.6759,3.7068,3.7371,3.7584,3.7203,0.0,0.0,0.0,0.0,0.0,0.0,0.0,0.0,0.0,0.0,0.0,0.0,0.0,0.0,0.0,0.0,2.9792,2.9792,2.8767,2.8096,2.8096,2.6025,2.4787,2.4787,2.3714,2.3135,2.3135,2.3135,2.3135,2.3135,2.2492,2.2492,2.3047,2.1765,2.0854,2.0305,1.8932,1.7755,1.6662,1.6662,1.6386,1.5832,1.5832,1.5832,1.573,1.5045,1.4752,1.4669,1.3425,1.2583,1.191,0.0,0.0,0.0,0.0,0.0,0.0,0.0,0.0,0.0,0.0,0.0,0.0,0.0,0.0,0.0,0.0,0.0,0.0,0.0,2.5152,2.5046,2.501,2.4723,2.4943,2.5721,2.6303,2.709,2.8081,2.8705,2.8791,2.8378,2.7747,2.7267,2.6979,2.6979,2.708,2.7351,2.8698,2.9327,2.9515,0.0,0.0,0.0,0.0,0.0,0.0,0.0,0.0,0.0,0.0,0.0,0.0,0.0,0.0,0.0,3.5622,3.5622,3.5626,3.591,3.619,3.6337,3.5978,3.6224,3.6554,3.6384,0.0,0.0,0.0,0.0,0.0,0.0,0.0,0.0,0.0,0.0,0.0,0.0,0.0,0.0,2.9521,2.9197,2.904,2.904,2.8028,2.7348,2.7348,2.5535,2.4372,2.4372,2.3551,2.3135,2.3135,2.3135,2.296,2.2677,2.1756,2.1756,2.2677,2.0494,1.9314,1.9039,1.7117,1.6109,1.5832,1.5832,1.5832,1.5737,1.5439,1.5343,1.5242,1.3974,1.3295,1.2904,1.1843,1.0681,0.9509,0.0,0.0,0.0,0.0,0.0,0.0,0.0,0.0,0.0,0.0,0.0,0.0,0.0,0.0,0.0,0.0,0.0,0.0,2.5303,2.5293,2.5203,2.501,2.4869,2.5421,2.6749,2.6682,2.7365,2.8902,2.8957,2.8804,2.8407,2.8039,2.7827,2.781,2.781,2.8219,2.8972,2.978,3.0278,3.0684,3.193,0.0,0.0,0.0,0.0,0.0,0.0,0.0,0.0,0.0,0.0,0.0,0.0,0.0,3.5622,3.5622,3.5622,3.5763,3.6514,3.6202,3.5859,3.6476,3.6625,0.0,3.5733,3.5554,0.0,0.0,0.0,0.0,0.0,0.0,0.0,0.0,0.0,0.0,0.0,0.0,2.8323,2.8255,2.7371,2.673,2.673,2.5714,2.5031,2.5031,2.3877,2.3222,2.3222,2.3135,2.3135,2.3135,2.3135,2.258,2.148,2.1382,2.1382,2.1382,2.0124,1.8956,1.7777,1.7591,1.6943,1.5832,1.5832,1.5832,1.573,1.4561,1.407,1.3878,1.2528,1.1361,1.0288,1.0194,0.9316,0.8137,0.0,0.0,0.0,0.0,0.0,0.0,0.0,0.0,0.0,0.0,0.0,0.0,0.0,0.0,0.0,0.0,0.0,0.0,2.5303,2.5303,2.5264,2.5203,2.5018,2.5668,2.7233,2.6841,2.7402,2.8994,2.8994,2.879,2.8403,2.8254,2.8094,2.7924,2.8416,2.8811,2.9188,3.0424,3.1028,3.1229,3.211,3.2385,0.0,0.0,0.0,0.0,0.0,0.0,0.0,0.0,3.4172,3.4678,3.574,3.587,3.5622,3.5622,3.5622,3.5571,3.544,3.5227,3.5049,3.5284,0.0,0.0,0.0,0.0,0.0,0.0,0.0,0.0,0.0,0.0,0.0,0.0,0.0,0.0,0.0,2.8846,2.8096,2.8096,2.7128,2.6483,2.6483,2.5462,2.4787,2.4787,2.3714,2.3135,2.3135,2.3135,2.3135,2.3135,2.2394,2.1756,2.1293,1.9852,1.9039,1.9039,1.8596,1.8141,1.7692,1.6857,1.6298,1.5832,1.5832,1.5832,1.573,1.4459,1.3878,1.368,1.1551,0.9899,0.8726,0.8726,0.8432,0.8038,0.0,0.0,0.0,0.0,0.0,0.0,0.0,0.0,0.0,0.0,0.0,0.0,0.0,0.0,0.0,0.0,0.0,0.0,2.5303,2.5303,2.5303,2.5303,2.5367,2.6066,2.747,2.7214,2.7751,2.9134,2.904,2.8865,2.8581,2.8581,2.8471,2.8283,2.909,2.9604,2.9911,3.1217,3.1846,3.201,3.2657,3.283,0.0,0.0,0.0,0.0,0.0,0.0,0.0,0.0,3.4329,3.4995,3.5861,3.5887,3.5622,3.5622,3.5441,3.5182,3.4724,3.4418,3.4269,0.0,0.0,0.0,0.0,0.0,0.0,0.0,0.0,0.0,0.0,0.0,0.0,0.0,0.0,0.0,2.9792,2.853,2.7602,2.7602,2.6295,2.54,2.54,2.4713,2.4296,2.4296,2.3551,2.3135,2.3135,2.2765,2.2492,2.2492,2.1391,2.0576,2.0124,1.8503,1.7505,1.7131,1.7131,1.7131,1.7037,1.6197,1.5832,1.5832,1.5832,1.5534,1.5146,1.3782,1.2807,1.1838,1.0092,0.8825,0.8038,0.8038,0.8038,0.8038,0.0,0.0,0.0,0.0,0.0,0.0,0.0,0.0,2.5456,2.5582,2.5605,0.0,0.0,0.0,0.0,0.0,0.0,0.0,2.5303,2.5303,2.5303,2.5303,2.5941,2.6676,2.7502,2.7915,2.8538,2.9392,2.9134,2.8994,2.8994,2.8994,2.8994,2.9053,2.9863,3.0662,3.1447,3.2265,3.2838,3.3258,3.3633,3.356,3.3195,0.0,0.0,0.0,0.0,0.0,0.0,0.0,3.4397,3.5591,3.5607,3.5622,3.5622,3.5622,3.5121,3.4628,3.4625,3.4062,0.0,0.0,0.0,0.0,0.0,0.0,0.0,0.0,0.0,0.0,0.0,0.0,0.0,0.0,0.0,2.9792,2.9792,2.7879,2.6483,2.6483,2.4478,2.3135,2.3135,2.3135,2.3135,2.3135,2.3135,2.3047,2.3047,2.1943,2.1293,2.1293,2.0124,1.8956,1.7684,1.7692,1.7037,1.5832,1.5832,1.5832,1.5832,1.5825,1.5825,1.5825,1.5737,1.5045,1.3782,1.2431,1.0386,0.8038,0.8038,0.8038,0.8038,0.8038,0.8038,0.8038,0.0,0.0,0.0,0.0,0.0,0.0,0.0,0.0,2.5398,2.5452,2.5531,0.0,0.0,0.0,0.0,0.0,0.0,0.0,2.5303,2.5303,2.5303,2.5303,2.6079,2.6902,2.7766,2.8884,2.9325,2.9112,2.904,2.8994,2.8994,2.8994,2.9297,2.9881,3.0692,3.1495,3.2301,3.3103,3.3523,3.3615,3.3752,3.3733,3.3578,0.0,0.0,0.0,0.0,0.0,0.0,0.0,0.0,0.0,3.6041,3.5887,3.5622,3.5622,3.5458,3.5321,3.5316,0.0,0.0,0.0,0.0,0.0,0.0,0.0,0.0,0.0,0.0,0.0,0.0,0.0,0.0,3.1106,3.0419,2.9534,2.8688,2.7371,2.6224,2.5378,2.3973,2.3135,2.3135,2.3135,2.3135,2.3135,2.3135,2.2765,2.1845,2.1471,2.0935,2.0034,1.8864,1.8048,1.7692,1.685,1.6197,1.5832,1.5832,1.5832,1.5737,1.4848,1.4459,1.4364,1.3494,1.2818,1.2431,1.1072,0.9509,0.8038,0.8038,0.8038,0.8041,0.7959,0.7962,0.7965,0.0,0.0,0.0,0.0,0.0,0.0,0.0,0.0,2.537,2.5409,2.548,2.5531,0.0,0.0,0.0,0.0,0.0,0.0,2.5341,2.5341,2.5322,2.5303,2.6467,2.7627,2.872,2.956,2.9761,2.9272,2.9204,2.9108,2.8994,2.9333,2.9747,3.0236,3.1396,3.2162,3.2647,3.3468,3.3807,3.3807,3.3807,3.3807,3.3807,0.0,0.0,0.0,0.0,0.0,0.0,0.0,0.0,0.0,3.6,3.5853,3.5622,3.5622,3.5407,3.5144,3.4864,0.0,0.0,0.0,0.0,0.0,0.0,0.0,0.0,0.0,0.0,0.0,0.0,0.0,0.0,3.0025,2.9459,2.8779,2.7614,2.6543,2.5546,2.4872,2.38,2.3135,2.3135,2.3135,2.3135,2.3135,2.3135,2.258,2.1382,2.0845,2.0034,1.8864,1.7584,1.6943,1.6943,1.6204,1.554,1.5045,1.5045,1.4758,1.4274,1.3974,1.359,1.3006,1.175,1.117,1.1068,0.9702,0.8726,0.8038,0.8038,0.8045,0.7955,0.7969,0.7359,0.6442,0.0,0.0,2.5303,2.5303,0.0,0.0,0.0,0.0,2.5322,2.539,2.5409,2.5449,0.0,0.0,0.0,0.0,0.0,0.0,2.5399,2.5399,2.5409,2.5418,2.7082,2.8648,3.0009,3.0047,2.9939,2.9731,2.9495,2.9283,2.9053,2.9844,3.0254,3.0373,3.1913,3.2647,3.2757,3.3505,3.3807,3.3807,3.3807,3.3844,3.3999,3.4723,0.0,0.0,0.0,0.0,0.0,0.0,0.0,0.0,3.5622,3.5622,3.5622,3.5622,3.5161,3.4528,0.0,0.0,0.0,0.0,0.0,0.0,0.0,0.0,0.0,0.0,0.0,0.0,0.0,0.0,3.0329,2.8402,2.8004,2.7602,2.6472,2.5462,2.4787,2.4617,2.3714,2.3135,2.3135,2.296,2.295,2.295,2.2862,2.2217,2.1025,1.9943,1.8772,1.7591,1.6386,1.5832,1.5832,1.5635,1.5045,1.3878,1.3782,1.3006,1.175,1.3006,1.2813,1.1458,1.0288,0.9805,0.9706,0.8528,0.8038,0.8038,0.8041,0.7955,0.7972,0.7975,0.6448,0.432,0.0,0.0,2.5303,2.5303,0.0,0.0,0.0,0.0,0.0,0.0,0.0,0.0,0.0,0.0,0.0,0.0,0.0,0.0,2.5485,2.544,2.5687,2.6379,2.7967,2.9302,3.0292,3.0311,3.0196,2.9939,2.9589,2.9373,2.9333,2.9918,3.0522,3.118,3.2163,3.2948,3.356,3.3733,3.3807,3.3807,3.3807,3.4191,3.476,3.4934,3.5367,0.0,0.0,0.0,0.0,0.0,0.0,0.0,3.5622,3.5622,3.5622,3.5622,3.5515,3.5253,0.0,0.0,0.0,0.0,0.0,0.0,0.0,0.0,0.0,0.0,0.0,0.0,0.0,2.9238,2.8627,2.8164,2.736,2.6461,2.5294,2.4957,2.4457,2.3551,2.3212,2.3135,2.3135,2.2217,2.1667,2.1667,2.0854,1.977,1.8503,1.8234,1.7498,1.6292,1.592,1.5832,1.5832,1.4848,1.4166,1.3872,1.2813,1.1653,1.0386,1.0676,1.0092,0.8821,0.8528,0.8432,0.8432,0.8137,0.8038,0.8041,0.7959,0.7969,0.7975,0.8006,0.7601,0.6575,0.0,0.0,0.0,0.0,0.0,0.0,0.0,0.0,0.0,0.0,0.0,0.0,0.0,0.0,0.0,0.0,2.5634,2.5619,2.5551,2.588,2.659,2.7794,2.864,2.9506,3.0379,3.0398,3.0323,3.0196,2.9864,2.9795,2.9999,3.0516,3.1199,3.2022,3.2826,3.3405,3.3807,3.3807,3.3807,3.3825,3.4228,3.4649,3.51,3.5872,3.6472,3.6973,3.7778,0.0,0.0,0.0,0.0,0.0,0.0,0.0,3.5622,3.5622,3.5622,3.5453,0.0,0.0,0.0,0.0,0.0,0.0,0.0,0.0,0.0,0.0,0.0,0.0,0.0,2.8858,2.7936,2.7441,2.6378,2.5305,2.4135,2.3963,2.38,2.3135,2.3135,2.3135,2.3135,2.2031,2.1293,2.1293,2.0215,1.8948,1.7777,1.7692,1.7131,1.5825,1.5832,1.5832,1.5832,1.4555,1.359,1.2909,1.1653,1.0288,0.9019,0.9019,0.8627,0.8038,0.8038,0.8038,0.8038,0.8038,0.8038,0.8041,0.7965,0.7256,0.6242,0.75,0.6382,0.3739,0.0,0.0,0.0,0.0,0.0,0.0,0.0,0.0,0.0,0.0,0.0,0.0,0.0,0.0,0.0,0.0,0.0,0.0,2.5826,2.6709,2.7799,2.9055,2.9236,2.966,3.0379,3.0398,3.0398,3.0398,3.027,3.0478,3.094,3.1309,3.1866,3.2636,3.3453,3.3807,3.3807,3.3807,3.3862,3.4072,3.4723,3.5165,3.5598,3.6966,3.7613,3.7778,3.8456,3.8383,3.784,3.7374,0.0,0.0,0.0,0.0,3.5622,3.5622,3.5622,3.5487,0.0,0.0,0.0,0.0,0.0,0.0,0.0,0.0,0.0,0.0,0.0,0.0,2.9534,2.8597,2.7441,2.6389,2.521,2.4211,2.3222,2.3135,2.3135,2.3135,2.295,2.2775,2.2775,2.1489,2.0666,2.0666,1.9579,1.8403,1.7412,1.7412,1.685,1.5832,1.5635,1.5439,1.5439,1.3974,1.2716,1.1556,1.0293,0.9118,0.8038,0.8038,0.8038,0.8038,0.8038,0.8038,0.8038,0.8041,0.8045,0.8048,0.7972,0.6653,0.483,0.6171,0.3838,-0.0,0.0,0.0,0.0,0.0,0.0,0.0,0.0,0.0,0.0,0.0,2.5192,2.5322,0.0,0.0,2.546,2.5585,2.5605,2.5945,2.6751,0.0,0.0,2.9113,2.9813,3.0294,3.0398,3.0398,3.0398,3.0398,3.0896,3.1499,3.2242,3.1904,3.2052,3.2653,3.3431,3.3807,3.3807,3.3807,3.4209,3.4833,3.4971,3.5854,3.7174,3.74,3.7937,3.8548,3.867,3.8383,3.7851,3.7348,3.6847,0.0,0.0,0.0,3.5622,3.5622,3.5622,3.5605,0.0,0.0,0.0,0.0,0.0,0.0,0.0,0.0,0.0,0.0,0.0,2.9534,2.8518,2.7452,2.6378,2.521,2.4049,2.3299,2.3135,2.3135,2.3135,2.3135,2.2217,2.1569,2.1569,1.9497,1.8141,1.8141,1.703,1.6197,1.6015,1.6015,1.6015,1.5832,1.4752,1.4166,1.4166,1.1745,1.0386,1.0194,0.892,0.8137,0.8038,0.8038,0.8038,0.8038,0.8038,0.8038,0.8041,0.7962,0.7969,0.7972,0.8006,0.7811,0.6989,0.2624,0.0606,-0.0,0.0,0.0,0.0,0.0,0.0,0.0,0.0,0.0,0.0,0.0,0.0,2.5192,0.0,2.539,2.5636,2.6215,2.631,2.6912,2.8318,2.8969,2.9483,2.9871,3.0217,3.0398,3.0398,3.0398,3.0398,3.0398,3.1143,3.1872,3.2519,3.2787,3.313,3.3523,3.3715,3.3807,3.3825,3.4283,3.4686,3.5081,3.6019,3.685,3.7546,3.7992,3.8401,3.8707,3.8707,3.8548,3.8224,3.7454,3.7055,3.6723,3.5853,0.0,0.0,0.0,3.5926,0.0,0.0,0.0,0.0,0.0,0.0,0.0,0.0,0.0,0.0,0.0,0.0,2.8688,2.8176,2.7209,2.6141,2.4957,2.38,2.3135,2.3135,2.3135,2.2862,2.2208,2.1658,2.1025,2.0395,1.868,1.7692,1.7692,1.648,1.5534,1.4752,1.4752,1.4364,1.3596,1.3108,1.2818,1.2818,1.097,0.9608,0.8821,0.8233,0.8045,0.7959,0.7959,0.7959,0.7959,0.7959,0.7962,0.7969,0.7979,0.716,0.5937,0.7397,0.8026,0.7305,0.2019,-0.0,-0.0,0.0,0.0,0.0,0.0,0.0,0.0,0.0,0.0,0.0,0.0,0.0,0.0,0.0,0.0,0.0,0.0,2.7186,2.7868,2.9394,2.9599,2.9902,3.0487,3.0448,3.0417,3.0398,3.0398,3.0482,3.0625,3.1558,3.2295,3.2842,3.3714,3.42,3.4311,3.4046,3.3981,3.4127,3.4741,3.5257,3.5735,3.7003,3.7631,3.7882,3.8475,3.8634,3.8511,3.8652,3.8634,3.8383,3.7631,3.738,3.7198,3.6156,3.5912,0.0,0.0,0.0,0.0,0.0,0.0,0.0,0.0,0.0,0.0,0.0,0.0,0.0,0.0,2.8688,2.7924,2.7348,2.6614,2.5724,2.4542,2.3444,2.2677,2.2677,2.2403,2.1854,2.0935,2.0567,2.0034,1.9131,1.7956,1.7124,1.6734,1.59,1.4752,1.3488,1.3392,1.2909,1.1945,1.1556,1.1463,1.1463,1.0096,0.9023,0.8048,0.8048,0.7959,0.7979,0.726,0.7363,0.7985,0.726,0.6956,0.7065,0.7688,0.6865,0.5033,0.5761,0.5974,0.5464,0.1515,-0.0,-0.0,0.0,0.0,0.0,0.0,0.0,0.0,0.0,0.0,0.0,0.0,0.0,0.0,2.6524,2.7274,2.7834,2.802,2.8042,2.8457,2.9433,3.0214,3.0591,3.051,3.0506,0.0,3.0398,3.0398,3.0676,3.1257,3.2319,3.3144,3.3748,3.4634,3.4909,3.4649,3.4344,3.4457,3.4952,3.4971,3.5909,3.7394,3.7454,3.7955,3.8652,3.8689,3.8383,3.801,3.8511,3.8383,3.7937,3.7882,3.7873,3.7704,3.6689,3.6821,3.7318,0.0,0.0,0.0,0.0,0.0,0.0,0.0,0.0,0.0,0.0,0.0,0.0,0.0,2.8176,2.7429,2.5368,2.4957,2.4542,2.3387,2.2208,2.1382,2.1382,2.0395,1.967,1.9579,1.8596,1.787,1.7777,1.6662,1.5432,1.4166,1.407,1.3397,1.2042,1.2042,1.1945,1.1945,1.0681,1.0096,1.0096,0.8726,0.8052,0.7972,0.7972,0.7979,0.7885,0.5331,0.5644,0.7815,0.5336,0.4218,0.442,0.6983,0.7918,0.7302,0.2323,0.0404,0.0404,0.0101,-0.0,-0.0,0.0,0.0,0.0,0.0,0.0,0.0,0.0,0.0,0.0,0.0,0.0,0.0,0.0,2.7717,2.8132,2.875,2.9396,2.9916,3.0254,3.0547,3.0678,3.0626,3.0597,3.0794,3.1282,3.1302,3.1642,3.2325,3.3106,3.3601,3.3827,3.4703,3.4951,3.4707,3.5109,3.5182,3.5081,3.6332,3.7106,3.7546,3.8047,3.8438,3.8707,3.8707,3.8383,0.0,0.0,0.0,0.0,3.7029,3.7268,3.7527,3.6887,3.7143,3.7831,3.8106,3.802,3.774,0.0,0.0,0.0,0.0,0.0,0.0,0.0,0.0,0.0,0.0,2.7522,2.6625,2.5126,2.4787,2.4457,2.3309,2.2765,2.2492,2.2492,2.14,2.0395,1.9579,1.8411,1.7412,1.6574,1.6109,1.5635,1.5146,1.4364,1.3295,1.1945,1.1165,1.0288,0.941,0.892,0.8733,0.8748,0.8258,0.7969,0.7982,0.6242,0.635,0.8012,0.6983,0.7095,0.7945,0.7003,0.4647,0.1511,0.2422,0.2828,0.2625,0.0707,-0.0,-0.0,-0.0,-0.0,-0.0,0.0,0.0,0.0,0.0,0.0,2.5786,2.5786,2.6328,2.6801,2.7058,0.0,0.0,0.0,0.0,2.8871,2.9583,3.027,3.0677,3.0703,3.0703,3.082,3.1113,3.1086,3.1437,3.2216,3.1954,3.2257,3.3201,3.3318,3.3606,3.4108,3.4699,3.4998,3.5139,3.6063,3.6141,3.5666,3.7237,0.0,3.7955,0.0,3.8707,3.8689,0.0,0.0,0.0,0.0,0.0,0.0,0.0,3.735,3.7689,3.7211,3.7265,3.7702,3.869,3.8216,3.7408,3.7388,0.0,0.0,0.0,0.0,0.0,0.0,0.0,0.0,2.8072,2.6964,2.6058,2.4553,2.4211,2.3963,2.3222,2.2413,2.1863,2.1863,2.0486,1.9206,1.8395,1.7584,1.6763,1.5927,1.5439,1.4949,1.4561,1.3295,0.0,1.0681,0.9801,0.8924,0.8052,0.7952,0.7959,0.7979,0.7156,0.7062,0.8002,0.6155,0.5347,0.5363,0.7208,0.7012,0.5275,0.5275,0.334,-0.0,-0.0,-0.0,-0.0,-0.0,-0.0,-0.0,-0.0,-0.0,-0.0,0.0,0.0,2.6126,2.6512,2.6609,2.6649,2.6649,2.6817,2.6972,2.6972,0.0,0.0,0.0,0.0,0.0,3.0513,3.0621,3.0709,3.0759,3.0761,3.1152,3.1992,3.2031,3.238,3.3134,3.2304,3.2516,3.3862,3.2991,3.3311,3.4714,3.4711,3.5153,3.594,3.7112,3.7296,3.6782,0.0,3.8242,3.8707,0.0,3.8689,3.8634,0.0,0.0,0.0,3.72,3.6842,0.0,3.7831,0.0,0.0,0.0,0.0,3.7022,3.8423,3.7815,3.6615,0.0,0.0,0.0,0.0,0.0,0.0,3.282,0.0,3.0316,2.7186,2.6483,2.5808,2.356,2.3047,2.3047,2.3047,2.1042,1.9588,1.9497,1.739,1.5832,1.5832,1.5825,1.5825,1.573,1.4657,1.3295,1.2042,1.0681,0.941,0.8137,0.8041,0.7952,0.7972,0.7972,0.7879,0.7992,0.5434,0.534,0.7717,0.7717,0.5056,0.0202,0.5379,0.4968,-0.0,-0.0,-0.0,-0.0,-0.0,-0.0,-0.0,-0.0202,-0.0202,-0.0202,-0.0101,-0.0101,-0.0101,0.0,2.5529,2.6033,2.6144,2.6881,2.7475,2.7475,2.8018,2.8495,0.0,0.0,0.0,2.9641,3.0584,3.1264,3.1359,3.1961,3.2339,3.2367,3.2448,3.2638,3.293,3.2949,3.3338,3.4164,3.3897,3.4197,3.51,3.4614,3.4594,3.5,3.5375,3.5696,3.5941,3.7446,3.7905,3.7638,3.8697,0.0,3.8707,3.8707,3.8475,0.0,0.0,0.0,0.0,0.0,3.6645,3.6719,0.0,3.7928,3.8773,0.0,0.0,3.8277,3.8117,3.7381,3.6615,3.6615,0.0,0.0,0.0,0.0,0.0,3.2961,3.2393,3.1088,2.7325,2.6483,2.5808,2.356,2.2403,2.1756,2.1756,2.1203,2.0486,1.9579,1.8133,1.7131,1.7131,1.6386,1.5439,1.4561,1.407,1.3295,0.0,1.0681,0.9801,0.9509,0.8546,0.7965,0.7972,0.6137,0.6047,0.8012,0.729,0.5354,0.2221,0.2221,0.1414,-0.0,0.1516,0.1415,-0.0,-0.0,-0.0,-0.0,-0.0,-0.0,-0.0404,-0.4244,-0.577,-0.5562,-0.3624,-0.2914,-0.2914,2.5124,2.5893,2.6632,2.6957,2.7592,2.8104,2.8278,2.8705,2.9062,0.0,0.0,0.0,3.1013,3.1661,3.207,3.2186,3.2673,3.2981,3.3006,3.3062,3.3339,3.3821,3.3834,3.4258,3.5117,3.4739,3.4885,3.5611,3.5277,3.5302,3.5602,3.6039,3.6504,3.6962,3.7774,3.8231,3.8433,0.0,0.0,0.0,3.8456,0.0,0.0,3.7451,3.7096,0.0,0.0,0.0,3.7219,3.6845,3.7518,0.0,0.0,0.0,3.7844,3.7413,3.6753,3.6165,3.6165,3.5831,3.5504,0.0,0.0,0.0,3.2961,3.1906,3.0377,0.0,2.6141,2.5221,2.3474,2.2501,2.1756,2.0666,2.0576,2.0124,1.8956,1.7677,1.6749,1.6163,1.5419,1.4465,1.3204,1.2619,1.194,1.1165,0.9899,0.9122,0.9133,0.8464,0.7985,0.7995,0.6458,0.5349,0.4649,0.4649,0.3131,-0.0,-0.0,-0.0,-0.0,-0.0,-0.1212,-0.3334,-0.3334,-0.2723,-0.1711,-0.1711,-0.2319,-0.3534,-0.5555,-0.698,-0.7802,-0.625,-0.5636,-0.5636,0.0,2.6424,2.7452,2.8148,2.8298,2.8507,2.8991,2.9057,2.9117,0.0,3.0142,3.1223,3.2425,3.2626,3.276,3.2927,3.3083,3.3179,3.3242,3.3229,3.3684,3.4672,3.4709,3.5135,3.6016,3.5273,3.5206,3.5912,3.5649,3.5867,3.6512,3.6814,3.7461,3.8368,3.8143,3.842,3.905,0.0,0.0,3.8566,3.8083,3.7898,0.0,0.0,3.6808,3.7274,3.6068,3.6522,3.7669,3.707,3.7287,0.0,0.0,0.0,3.6569,3.6508,3.6006,3.5504,3.5504,3.5504,3.5504,0.0,3.4758,0.0,3.282,3.1061,2.9155,2.7105,2.5797,2.4628,2.3464,2.3038,2.2227,2.0042,1.9488,1.8864,1.7684,1.648,1.5337,1.407,1.3878,1.3295,1.1848,1.0681,0.9903,0.9801,0.863,0.7849,0.7563,0.7882,0.8006,0.8026,0.7406,0.4853,-0.0,-0.0,-0.0,-0.0,-0.0,-0.0303,-0.0909,-0.0909,-0.3332,-0.7607,-0.7915,-0.667,-0.442,-0.442,-0.5847,-0.7811,-0.5336,-0.5939,-0.7989,-0.7985,-0.7985,-0.7985,2.5801,2.6303,2.6835,2.7404,2.7794,2.8344,2.9321,2.9481,2.9821,3.0809,3.1504,3.1959,3.2184,3.3207,3.3723,3.3335,3.4139,3.4677,3.4697,3.4697,3.491,3.5378,3.5408,3.588,3.6914,3.668,3.697,3.7851,3.7684,3.7685,3.7851,3.8211,3.8347,3.8343,3.8691,3.8817,3.8744,0.0,0.0,3.8047,3.7937,0.0,3.7498,3.672,3.6593,3.6772,3.5906,3.6153,3.6987,3.7474,3.7686,3.7676,0.0,0.0,0.0,3.5903,3.5619,3.5504,3.5504,0.0,0.0,0.0,0.0,0.0,3.282,3.1729,3.0303,0.0,2.6953,2.5797,2.4713,2.2882,2.148,2.1025,1.9314,1.7591,1.6386,1.592,1.5337,1.407,1.3878,1.3,1.0583,1.0194,0.9509,0.8432,0.8155,0.7051,0.4922,0.6874,0.8019,0.8026,0.3838,0.101,-0.0,-0.0,-0.0,-0.0,-0.0,-0.2221,-0.6483,-0.6483,-0.5861,-0.4929,-0.7071,-0.7685,-0.7269,-0.726,-0.7572,-0.7995,-0.7466,-0.7566,-0.7975,-0.7955,-0.8048,-0.8048,2.5144,2.6065,2.6924,2.7367,2.8135,2.8943,2.975,3.005,3.0423,3.1028,3.185,3.2652,3.3314,3.3866,3.4169,3.4071,3.4926,3.5496,3.5496,3.6006,3.6408,3.6642,3.6781,3.7142,3.7739,3.7717,3.791,3.8359,3.8719,3.8858,3.8796,3.9243,3.9371,3.9204,3.9146,3.9246,3.9479,0.0,3.88,3.8645,3.798,0.0,3.6928,3.6666,3.662,3.659,3.5858,3.5799,3.6224,3.6925,3.7169,0.0,0.0,3.6307,3.6486,0.0,3.5504,3.5504,0.0,0.0,0.0,3.5504,0.0,0.0,0.0,3.1,2.909,2.7579,2.5964,2.4638,2.4049,2.2999,2.2031,2.1391,1.9761,1.7933,1.6055,1.5805,1.5051,1.3108,1.2909,1.1843,0.9213,0.9019,0.8733,0.8055,0.7982,0.7384,0.6057,0.4746,0.4041,0.4041,0.1414,-0.0,-0.0,-0.0,-0.1313,-0.394,-0.394,-0.4746,-0.6055,-0.7387,-0.7278,-0.6037,-0.7466,-0.7975,-0.7965,-0.7959,-0.7959,-0.7965,-0.7959,-0.7955,-0.7955,-0.8041,-0.8038,-0.8038,2.4751,2.5967,2.7077,2.7464,2.8471,2.942,2.9977,3.0472,3.0908,3.1214,3.2156,3.3197,3.4282,3.4316,3.432,3.4456,3.5273,3.5787,3.5893,3.6715,3.7338,3.7659,3.7867,3.8151,3.8503,3.8558,3.8678,3.8827,3.9509,3.9791,3.9715,4.0057,4.0266,4.0342,3.9613,3.9777,0.0,0.0,0.0,3.9407,0.0,3.7296,3.6692,3.6664,3.6674,3.6607,3.5799,3.5389,3.5309,3.5882,3.6089,3.5978,3.5154,3.5449,0.0,0.0,0.0,0.0,0.0,0.0,0.0,0.0,0.0,3.3227,0.0,0.0,0.0,0.0,0.0,0.0,0.0,0.0,0.0,0.0,0.0,0.0,0.0,1.569,0.0,1.1848,1.156,1.0583,0.8233,0.8038,0.7952,0.7979,0.7488,0.6989,0.6486,0.2323,-0.0,-0.0,-0.0,-0.0505,-0.1515,-0.1515,-0.3433,-0.7193,-0.7708,-0.6874,-0.4822,-0.7059,-0.7979,-0.7965,-0.7965,-0.7955,-0.8038,-0.8038,-0.8038,-0.8038,-0.8038,-0.8038,-0.8038,-0.8038,-0.8038,-0.8038,2.5952,2.6339,2.6632,2.7182,2.7816,2.861,2.9675,3.0334,3.1243,3.2715,3.3259,3.3469,3.3364,3.3981,3.4215,3.3755,3.4623,3.5381,3.5872,3.6002,3.6522,3.7488,3.7544,3.8106,3.9253,3.9282,3.9751,4.0683,4.0663,4.0713,4.0812,4.0684,4.0893,4.1309,4.0392,0.0,0.0,0.0,3.9585,0.0,3.8809,3.8187,0.0,3.693,3.6633,3.6496,3.5799,3.4942,3.416,0.0,3.4283,3.4148,0.0,3.3587,3.4283,0.0,0.0,0.0,0.0,0.0,0.0,0.0,3.2249,0.0,0.0,0.0,2.7752,2.6719,0.0,0.0,0.0,0.0,0.0,0.0,0.0,0.0,1.7539,1.5494,1.3102,1.0485,1.0194,0.9608,0.8137,0.8038,0.7962,0.8016,0.5749,0.342,0.1009,0.0303,-0.0,-0.0,-0.0,-0.2322,-0.6997,-0.7098,-0.6168,-0.4522,-0.6862,-0.7882,-0.7563,-0.7872,-0.7962,-0.8041,-0.8041,-0.8041,-0.8038,-0.8038,-0.8038,-0.8038,-0.8038,-0.8038,-0.8038,-0.8038,-0.8038,-0.8038,2.5813,2.652,2.7129,2.7337,2.8452,2.9551,3.0002,3.1206,3.2528,3.3908,3.4193,3.4303,0.0,0.0,0.0,0.0,0.0,3.5771,0.0,0.0,3.7738,3.8674,3.8717,3.9128,4.0008,3.9927,4.0179,4.0829,4.0818,4.1082,4.165,4.1539,4.1854,4.2447,4.1713,0.0,4.2003,0.0,4.0539,0.0,0.0,0.0,0.0,3.6919,3.634,3.5784,3.4257,3.3407,3.2915,0.0,3.1712,0.0,0.0,0.0,0.0,0.0,0.0,0.0,0.0,0.0,0.0,0.0,0.0,0.0,2.9606,0.0,2.7025,0.0,0.0,0.0,0.0,0.0,0.0,0.0,1.8787,0.0,0.0,0.0,1.2619,0.0,0.0,0.0,0.8137,0.7129,0.6945,0.7899,0.4024,0.1207,0.0101,-0.0,-0.0,-0.0,-0.0,-0.2524,-0.7922,-0.8026,-0.739,-0.6339,-0.7466,-0.7972,-0.7952,-0.7952,-0.8048,-0.8038,-0.8038,-0.8038,-0.8038,-0.8038,-0.8038,-0.8038,-0.8038,-0.8038,-0.8038,-0.8038,-0.8038,-0.8038,2.5893,0.0,2.698,2.7202,2.8668,3.0024,3.0767,3.208,3.336,3.4405,3.453,0.0,3.508,3.467,0.0,0.0,3.5153,3.5474,0.0,0.0,3.7981,3.847,3.9114,0.0,4.0215,4.0417,4.0787,4.1389,4.1482,4.1855,4.2519,4.2502,4.2898,4.3585,0.0,4.2713,4.2955,0.0,0.0,4.077,4.0397,3.865,3.628,3.5674,3.4747,3.3565,3.209,3.114,3.0445,2.8897,2.8537,0.0,2.8167,0.0,0.0,0.0,0.0,0.0,2.9379,0.0,0.0,0.0,0.0,0.0,0.0,0.0,0.0,0.0,0.0,0.0,0.0,0.0,2.0482,1.9654,0.0,1.6542,0.0,1.2934,0.0,0.0,0.0,0.0,0.0,0.6836,0.6645,0.7895,0.4433,0.1511,0.0101,-0.0,-0.0,-0.0,-0.1414,-0.3736,-0.6882,-0.7601,-0.7995,-0.7965,-0.7965,-0.7955,-0.8038,-0.8038,-0.8038,-0.8038,-0.8038,-0.8038,-0.8038,-0.8038,-0.8038,-0.8038,-0.8038,-0.8038,-0.8038,-0.8038,-0.8038,-0.8038,2.6804,2.613,0.0,2.6414,2.7602,2.9331,3.1952,3.2727,3.326,0.0,0.0,0.0,0.0,0.0,0.0,0.0,0.0,3.3858,3.4343,0.0,3.6029,3.5722,3.7917,3.9245,3.9522,4.0672,4.1857,4.3118,4.3258,4.3394,4.3555,4.3554,4.3942,4.4607,4.3605,4.3677,4.4428,4.2994,4.1696,4.0492,3.9177,3.6206,3.2544,0.0,3.1273,2.9522,2.9416,0.0,0.0,2.6252,2.4591,0.0,0.0,0.0,0.0,0.0,0.0,0.0,0.0,0.0,0.0,2.4232,0.0,0.0,0.0,0.0,2.4552,0.0,0.0,0.0,0.0,2.1123,1.9579,1.9488,1.7483,0.0,0.0,0.0,0.0,0.0,0.0,0.0,0.0,0.7972,0.7985,0.8022,0.7818,0.5464,0.0303,-0.0,-0.0,-0.0,-0.5056,-0.6573,-0.4117,-0.6748,-0.7962,-0.8041,-0.8041,-0.8038,-0.8038,-0.8038,-0.8038,-0.8038,-0.8038,-0.8038,-0.8038,-0.8038,-0.8038,-0.8038,-0.8038,-0.8038,-0.8038,-0.8038,-0.8038,-0.8038,2.5521,0.0,0.0,0.0,0.0,2.9727,3.2127,3.2594,0.0,0.0,0.0,0.0,0.0,0.0,3.2243,0.0,0.0,3.3169,3.4233,3.5621,0.0,0.0,0.0,3.9367,3.9506,4.0626,4.1867,4.314,4.3217,4.3627,4.4334,4.4368,4.4833,4.5592,0.0,4.4231,0.0,0.0,0.0,0.0,0.0,3.2288,2.8133,0.0,2.9918,2.7841,2.5643,2.4398,0.0,2.2168,2.1042,2.021,2.0009,1.9623,1.9394,1.9522,1.8674,1.811,0.0,0.0,1.9401,2.0663,0.0,0.0,0.0,0.0,0.0,0.0,0.0,0.0,0.0,1.8853,1.801,1.7238,1.6379,1.519,0.0,0.0,0.0,0.0,0.0,0.0,0.0,0.0,0.7985,0.8022,0.8026,0.5667,0.0303,-0.0,-0.0,-0.0,-0.5159,-0.7601,-0.6656,-0.7566,-0.7962,-0.8038,-0.8038,-0.8038,-0.8038,-0.8038,-0.8038,-0.8038,-0.8038,-0.8038,-0.8038,-0.8038,-0.8038,-0.8038,-0.8038,-0.8038,-0.8038,-0.8038,-0.8038,-0.8038,2.541,2.541,0.0,0.0,0.0,0.0,3.1321,0.0,0.0,0.0,3.1864,0.0,3.1558,0.0,3.0989,0.0,3.1615,3.2023,3.3539,3.4497,0.0,3.4738,3.654,0.0,3.7603,3.9662,4.1344,4.256,4.3618,4.4461,4.5129,4.5226,4.5566,4.6074,0.0,4.4626,4.3272,0.0,4.0961,0.0,0.0,3.015,0.0,0.0,2.695,2.4346,0.0,2.1266,2.0698,1.9483,1.8153,1.6843,1.5832,1.5307,1.5254,1.6335,1.5376,1.4056,1.4817,1.4814,0.0,1.5086,1.7109,0.0,1.9151,0.0,0.0,0.0,0.0,0.0,0.0,1.5696,1.6402,1.4641,1.4349,1.3666,0.0,0.9776,0.0,0.0,0.0,0.0,0.0,0.0,0.5942,0.7818,0.6274,0.3633,0.0,-0.0,-0.0,-0.0,-0.4237,-0.7077,-0.7989,-0.7972,-0.7955,-0.8038,-0.8038,-0.8038,-0.8038,-0.8038,-0.8038,-0.8038,-0.8038,-0.8038,-0.8038,-0.8038,-0.8038,-0.8038,-0.8038,-0.8038,-0.8038,-0.8038,-0.8038,-0.8038,2.6383,2.6477,0.0,0.0,2.7099,0.0,0.0,0.0,3.0086,0.0,3.0847,3.0804,3.0804,3.0263,2.9915,2.999,2.9847,0.0,3.2184,3.2391,0.0,0.0,3.3759,3.4147,3.4129,3.7862,4.0346,4.1427,4.4334,4.576,4.5815,4.5975,4.6074,4.6054,4.5628,0.0,4.3752,4.272,4.0753,3.7978,3.3944,2.9829,2.6059,2.505,2.2271,1.8972,1.9257,1.8578,1.7684,1.802,1.5852,1.2819,1.1998,0.9879,0.8766,1.3624,1.1591,0.7839,0.7839,0.7942,0.7962,0.7626,1.1208,0.0,0.0,0.0,1.4484,0.0,0.0,0.0,0.0,0.0,1.4545,1.2094,1.1782,1.1394,1.0173,0.9904,0.0,0.0,0.0,0.0,0.0,0.3409,0.2309,0.6888,0.2517,-0.0302,0.0,-0.0101,-0.0303,-0.0404,-0.2917,-0.5434,-0.7989,-0.7955,-0.8038,-0.8038,-0.8038,-0.8038,-0.8038,-0.8038,-0.8038,-0.8038,-0.8038,-0.8038,-0.8038,-0.8038,-0.8038,-0.8038,-0.8038,-0.8038,-0.8038,-0.8038,-0.8038,-0.8038,2.5229,2.5743,2.6198,0.0,2.7378,2.8109,0.0,0.0,0.0,0.0,2.8304,2.8158,2.8251,2.8481,2.8825,2.9484,2.9522,0.0,0.0,0.0,0.0,3.1288,3.2716,3.3342,3.293,3.6622,0.0,3.9358,4.3106,4.4753,4.4429,4.5215,4.5625,4.5721,0.0,0.0,4.2477,4.2118,3.9236,3.4613,3.2481,2.9015,2.5078,0.0,1.831,1.1425,1.5364,1.6585,1.6265,1.6374,1.3266,0.9172,0.8965,0.7156,0.5256,0.6584,0.6073,0.505,0.505,0.6483,0.7,0.3033,0.1504,0.209,0.0,0.0,0.0,0.0,0.0,0.0,0.0,0.0,1.0145,1.0797,1.0614,1.0332,1.0095,0.0,0.0,0.8041,0.0,0.0,0.0,0.6788,0.3224,-0.3436,-0.5157,0.0,0.0,0.0,-0.3935,-0.5871,-0.6578,-0.7284,-0.7979,-0.7952,-0.8038,-0.8038,-0.8038,-0.8038,-0.8038,-0.8038,-0.8038,-0.8038,-0.8038,-0.8038,-0.8038,-0.8038,-0.8038,-0.8038,-0.8038,-0.8038,-0.8038,-0.8038,-0.8038,-0.8038,2.4774,0.0,0.0,2.6184,0.0,0.0,2.7821,0.0,0.0,2.7163,2.6986,0.0,2.756,2.7471,2.7779,2.8782,2.86,0.0,3.0183,0.0,0.0,2.99,3.0144,3.0224,2.9877,3.3095,0.0,3.6887,0.0,4.2888,4.3926,4.4708,4.5273,4.5604,0.0,4.4448,0.0,4.1042,3.767,3.3253,3.3206,2.7524,0.0,2.2053,1.5345,0.3937,0.0197,0.4602,1.1986,0.971,0.6892,0.4051,0.1718,-0.0,-0.101,0.0202,0.0505,0.0505,0.0505,0.1617,0.2022,-0.101,-0.3734,-0.4529,-0.0,0.1499,0.1592,0.0,0.0298,0.0598,0.0,0.0,0.0,0.8766,0.99,1.0004,0.0,0.0,0.0,0.0,0.5343,0.0,0.0,0.1006,-0.1009,-0.5888,-0.7315,0.0,0.0,0.0,-0.5256,-0.7908,-0.8006,-0.7992,-0.7972,-0.7952,-0.8333,-0.8821,-0.8233,-0.8333,-0.8825,-0.8233,-0.8038,-0.8038,-0.8038,-0.8038,-0.8038,-0.8038,-0.8333,-0.892,-0.892,-0.8531,-0.8038,-0.8038,-0.8038,-0.8038,0.0,0.0,0.0,0.0,0.0,0.0,0.0,2.6188,0.0,2.6271,0.0,2.6593,2.7668,2.7119,2.7004,2.7854,0.0,2.7992,2.9383,2.7589,2.7129,2.8617,2.7002,2.6036,2.6036,2.8447,0.0,0.0,0.0,4.0542,4.3317,4.4153,4.4815,4.5289,0.0,0.0,0.0,4.016,3.6915,3.3717,3.3287,2.4078,1.0861,1.4676,0.8851,-0.3381,-1.7917,-1.0584,0.5172,0.0505,-0.1511,-0.2909,-0.7481,-0.8929,-0.851,-0.625,-0.5044,-0.4551,-0.4551,-0.5061,-0.5367,-0.4653,-0.6759,-0.8041,-0.4491,-0.3789,-0.4491,-0.6407,-0.6487,-0.7381,-1.1302,0.0,0.0,0.0,0.0,0.0,0.0,0.0,0.0,0.0,0.0,0.0,0.0,0.0,0.0,0.0,0.0,0.0,0.0,0.0,-0.556,-0.7889,-0.7975,-0.7969,-0.7969,-0.8048,-0.8627,-0.9993,-0.8806,-0.8909,-0.9998,-0.8825,-0.8137,-0.8038,-0.8038,-0.8137,-0.8237,-0.8038,-0.8825,-0.9998,-0.9998,-0.9316,-0.8237,-0.8038,-0.8038,-0.8038,0.0,0.0,0.0,0.0,0.0,2.3967,2.4954,2.4384,2.4198,2.4982,2.4796,2.4956,2.5905,2.7076,2.7505,2.6864,2.7507,0.0,0.0,0.0,0.0,2.6943,2.4767,2.3594,2.3594,2.4922,2.655,0.0,0.0,3.8129,4.0089,4.2521,4.3688,4.3804,0.0,0.0,4.3408,4.1341,0.0,3.7029,2.543,1.423,0.2597,-1.4193,-1.5959,-1.0751,-1.9864,-1.5367,-0.5275,-0.6199,-0.9414,-1.3233,-1.4082,-1.44,-1.4298,-1.3872,-1.0658,-0.7344,-0.7344,-1.0345,-1.2573,-0.8371,-1.0857,-1.3397,-0.959,-0.9486,-1.0423,-1.0839,-1.0826,-1.124,-1.2682,0.0,0.0,0.0,0.0,0.0,0.0,0.0,0.0,0.0,0.0,-0.4252,0.0,0.0,0.0,0.0,0.0,0.0,0.0,0.0,-0.7556,0.0,-0.7962,-0.8045,0.0,0.0,-0.8718,-0.9964,-0.9786,-0.9803,-0.9998,-0.9805,-0.9019,-0.8038,-0.8038,-0.8627,-0.9608,-0.8432,-0.8825,-0.9998,-0.9998,-0.9903,-0.9509,-0.8432,-0.8038,-0.8038,0.0,0.0,0.0,0.0,0.0,0.0,0.0,2.216,0.0,2.4598,2.4647,2.4879,2.595,2.5683,2.5732,2.6472,2.5826,2.5471,2.563,2.3896,2.2814,2.2814,2.0447,0.0,2.015,2.062,2.2938,2.7198,0.0,3.4013,3.7497,4.0035,4.1358,4.1463,0.0,4.0037,0.0,0.0,0.0,2.4121,0.4391,-0.4678,-0.8036,-2.3837,-2.5701,-2.042,-2.4126,-2.164,-1.6386,-1.4983,-1.5673,-1.7028,-1.6809,-1.6802,-1.649,-1.519,-1.3968,-1.2602,-1.1321,-1.3286,-1.4998,-1.2598,-1.3301,-1.4208,-1.2391,-1.1925,-1.2134,-1.2764,-1.2923,-1.3299,-1.4343,-1.2433,0.0,0.0,0.0,0.0,0.0,0.0,0.0,0.0,0.0,0.0,0.0,0.0,0.0,0.0,0.0,-0.8009,-0.7965,0.0,-0.8045,0.0,0.0,0.0,-0.9069,0.0,-1.0082,-1.2018,-1.1312,-1.1332,-1.1971,-1.1341,-1.0583,-0.9993,-0.9993,-1.0386,-1.0974,-1.1063,-1.1063,-1.0974,-1.0974,-1.0583,-0.9801,-0.8531,-0.8038,-0.8038,0.0,2.1603,0.0,0.0,2.123,0.0,1.9356,1.9926,2.1275,2.3374,2.3902,2.433,2.4904,2.3574,2.3315,2.5262,2.3947,2.3162,2.3604,2.098,1.9167,1.8597,1.6443,1.5705,1.6679,1.6693,1.9254,0.0,0.0,0.0,3.3731,3.6741,3.7801,0.0,0.0,0.0,0.0,0.0,2.8405,1.1837,-1.172,-2.0407,-2.0184,-2.85,-3.0274,-2.8292,-2.8694,-2.7403,-2.5259,-2.3124,-2.1055,-1.9199,-1.8855,-1.8586,-1.7983,-1.6047,-1.6438,-1.7077,-1.5133,-1.5512,-1.6245,-1.5768,-1.5285,-1.4914,-1.4291,-1.3406,-1.2992,-1.4129,-1.4337,-1.4652,-1.5615,-1.4861,0.0,0.0,0.0,0.0,0.0,0.0,0.0,0.0,0.0,0.0,-0.5562,0.0,0.0,0.0,0.0,-0.8006,-0.8041,-0.8038,-0.8144,-0.845,0.0,-0.8763,-1.0423,0.0,-1.1358,-1.3906,-1.2834,-1.2885,-1.3826,-1.2775,-1.2139,-1.1945,-1.1945,-1.1945,-1.2042,-1.3686,-1.3494,-1.2334,-1.2334,-1.1556,-1.019,-0.892,-0.8237,-0.8038,0.0,0.0,0.0,0.0,0.0,0.0,1.7727,1.7895,1.8503,1.9844,2.0926,2.1275,2.0288,2.0837,2.1441,2.1799,2.2562,2.2164,2.0078,1.9627,1.8407,1.6051,1.4691,1.4058,1.4153,1.4214,1.437,0.0,0.0,2.649,0.0,3.2105,3.2414,0.0,0.0,0.0,0.0,1.6431,1.5591,1.3495,-0.6533,-2.2127,-3.3702,-3.6705,-3.4747,-3.0645,-3.2234,-3.0983,-2.8536,-2.8347,-2.5594,-2.2368,-2.2312,-2.1579,-2.0772,-2.0462,-1.9074,-1.7413,-1.7243,-1.8081,-1.8475,-1.614,-1.7332,-1.8319,-1.6094,-1.5507,-1.5507,-1.5615,-1.5615,-1.5622,-1.5724,-1.6531,-1.6968,0.0,0.0,0.0,0.0,0.0,0.0,0.0,0.0,0.0,0.0,-0.8774,0.0,0.0,-0.8818,-0.8048,-0.8038,-0.8038,-0.8553,-0.9797,-0.8656,-0.9176,-1.1686,-1.0541,-1.1301,-1.3886,-1.3749,-1.3731,-1.3927,-1.3736,-1.3011,-1.1945,-1.1945,-1.1945,-1.2042,-1.4567,-1.4854,-1.3686,-1.3686,-1.2909,-1.156,-1.0288,-0.9019,-0.8038,0.0,0.0,0.0,0.0,0.0,0.0,0.0,1.6706,1.7591,1.7296,1.9031,2.0034,1.9579,1.8493,1.8171,1.8926,1.8049,1.7368,1.7084,1.5685,1.4376,1.3339,1.0581,0.9535,1.0312,0.9518,1.0197,0.0,0.0,0.0,0.0,2.6127,2.6274,0.0,0.0,1.1007,1.4108,0.5218,-0.1188,-0.6091,-1.4396,-2.6143,-3.8833,-4.0235,-3.8064,-3.4239,-3.4957,-3.4083,-3.2511,-3.2508,-2.8684,-2.3885,-2.3887,-2.3591,-2.2909,-2.1506,-2.1444,-2.159,-2.0122,-2.0658,-2.1425,-2.0333,-2.0324,-2.0297,-1.9255,-1.8476,-1.802,-1.802,-1.802,-1.802,-1.8013,-1.8427,-1.8576,-1.8037,0.0,0.0,0.0,0.0,0.0,0.0,0.0,0.0,0.0,0.0,0.0,0.0,0.0,-0.8038,-0.8038,-0.8759,-0.9482,-1.0004,0.0,-1.1258,-1.3071,-1.2571,-1.3294,-1.5082,-1.5082,-1.5082,-1.5082,-1.5026,-1.4758,-1.4274,-1.4274,-1.4274,-1.4274,-1.5343,-1.5534,-1.4949,-1.4166,-1.3108,-1.175,-1.0489,-0.9118,-0.8038,1.469,0.0,1.3137,0.0,1.3718,1.4315,1.3482,1.4823,1.5785,1.533,1.6418,1.7416,1.7802,1.5913,1.5044,1.6306,1.481,1.3945,1.4465,1.2475,1.0863,1.0108,0.709,0.0,0.6796,0.6283,0.6908,0.8622,1.3281,0.0,0.0,0.0,0.0,0.0,0.0939,-0.1496,0.2806,-0.7624,-1.7006,-2.492,-2.6201,-3.2388,-4.0927,-4.2063,-4.0493,-3.7706,-3.7912,-3.7201,-3.6103,-3.5799,-3.2058,-2.7518,-2.6995,-2.6279,-2.5262,-2.3246,-2.367,-2.4348,-2.2349,-2.2456,-2.3154,-2.3505,-2.2456,-2.1441,-2.2153,-2.0838,-1.9483,-1.9483,-1.9483,-1.9592,-1.9936,-1.9988,-2.0,-2.0,0.0,0.0,0.0,-1.7399,0.0,0.0,-1.3815,-1.3211,-1.3084,-1.15,0.0,0.0,0.0,-0.8866,-0.8556,-0.9486,-1.038,0.0,0.0,0.0,-1.4398,-1.4082,-1.4551,-1.5832,-1.5832,-1.5832,-1.5832,-1.5832,-1.5832,-1.5832,-1.5832,-1.5832,-1.5832,-1.5832,-1.5832,-1.573,-1.4848,-1.3397,-1.175,-1.0877,-0.9509,-0.8038,1.2237,1.1945,1.1556,1.0293,1.1072,1.1945,1.1945,1.1945,1.2431,1.3782,1.2813,1.2522,1.3776,1.2716,1.2501,1.3689,1.3778,1.32,1.1935,1.0541,0.8709,0.0,0.0,0.4016,0.4016,0.5293,0.4694,0.2112,0.0,0.0,0.757,0.0,0.3992,-0.5401,-0.4513,-1.0773,-2.219,-2.4809,-3.0594,-3.829,-4.067,-4.1209,-4.0792,-4.2529,-4.2085,-4.0661,-4.1306,-4.0471,-3.8877,-3.7818,-3.6275,-3.4499,-3.2758,-3.0316,-2.7854,-2.6764,-2.5667,-2.4563,-2.3388,-2.3047,-2.3378,-2.4466,-2.3038,-2.1886,-2.4102,-2.1914,-1.9476,-1.9476,-1.9476,-1.9896,-2.102,-2.1319,-2.131,-2.131,0.0,0.0,0.0,-1.6578,0.0,-1.5825,-1.3507,-1.2892,-1.5514,-1.2273,0.0,0.0,0.0,0.0,0.0,0.0,0.0,-1.3743,-1.2579,0.0,-1.5737,-1.4558,-1.4551,-1.5832,-1.5832,-1.5832,-1.5832,-1.5832,-1.5832,-1.5832,-1.5832,-1.5832,-1.5832,-1.5832,-1.5832,-1.5832,-1.5825,-1.4178,-1.1945,-1.1848,-1.019,-0.8237,1.0681,0.9899,0.9118,0.8726,0.9702,1.0583,1.0583,1.1365,1.2042,1.2528,1.1458,1.0779,1.1161,1.0872,1.0769,0.0,0.9555,0.8273,0.0,0.6578,0.5494,0.4718,0.3316,0.2614,0.2614,0.211,0.1005,-0.0704,0.0,0.0,0.0,-0.2258,-0.5438,-0.88,-1.5973,-1.9859,-2.1504,-2.8252,-3.3373,-3.7158,-3.9846,-4.1539,-4.2498,-4.3753,-4.3455,-4.2485,-4.3386,-4.2726,-4.1376,-4.102,-3.9524,-3.7654,-3.6766,-3.4778,-3.1902,-2.771,-2.7577,-2.8161,-2.5107,-2.482,-2.5532,-2.59,-2.5378,-2.5055,-2.5732,-2.4456,-2.3144,-2.3144,-2.2465,-2.2108,-2.2456,-2.2562,-2.2562,-2.2562,-2.2224,0.0,-1.9228,0.0,-1.7684,-1.6042,-1.5082,-1.4892,-1.5765,-1.368,0.0,0.0,0.0,0.0,0.0,0.0,0.0,0.0,-1.372,0.0,-1.5292,-1.4867,-1.4867,-1.5292,-1.5292,-1.5305,-1.5514,-1.5724,-1.5832,-1.5832,-1.5832,-1.5832,-1.5832,-1.5832,-1.5832,-1.5832,-1.5832,-1.4752,-1.3295,-1.3295,-1.2134,-1.0676,0.9312,0.8531,0.8038,0.8038,0.8726,0.941,0.9899,1.0293,1.0583,1.1165,1.0096,0.9015,0.851,0.851,0.0,0.851,0.6921,0.5827,0.5325,0.4017,0.3215,0.3215,0.2012,0.1007,0.0503,-0.0302,0.0,-0.2714,-0.1672,-0.2992,-0.6484,-0.9679,-1.1944,-1.3696,-2.1098,-2.3897,-2.3484,-2.9723,-3.4122,-3.7045,-3.9064,-4.0967,-4.2664,-4.3288,-4.3631,-4.3798,-4.4046,-4.3798,-4.3254,-4.2678,-4.1589,-4.0227,-3.9076,-3.7992,-3.6082,-3.061,-2.9854,-3.0065,-2.7137,-2.6479,-2.6607,-2.6993,-2.6818,-2.6514,-2.6539,-2.599,-2.5359,-2.4902,-2.3867,-2.3135,-2.3135,-2.3135,-2.3135,-2.3135,-2.2698,-2.175,-1.9792,0.0,-1.8285,0.0,0.0,0.0,0.0,-1.5451,-1.4698,0.0,0.0,0.0,0.0,0.0,-1.3247,-1.375,-1.4559,-1.4975,-1.4975,-1.4975,-1.5237,-1.5567,-1.5555,-1.551,-1.5292,-1.5406,-1.5514,-1.5622,-1.5622,-1.5724,-1.5832,-1.5832,-1.5832,-1.5832,-1.5832,-1.5045,-1.3878,-1.3878,-1.3006,-1.1945,0.8237,0.8038,0.8038,0.0,0.8038,0.8432,0.9706,0.8825,0.8432,0.9706,0.8722,0.7434,0.6129,0.5927,0.5827,0.5727,0.0,0.0,0.3915,0.2614,0.1812,0.1711,0.0504,-0.0807,-0.2113,-0.2113,-0.2814,-0.4314,-0.5688,-0.889,-1.3696,-1.3886,-1.5905,-1.9397,-2.0755,-2.3488,-2.7411,-2.9599,-3.3178,-3.7584,-3.8453,-3.9918,-4.1492,-4.1533,-4.2838,-4.4499,-4.3677,-4.3948,-4.451,-4.3183,-4.2687,-4.2264,-4.0155,-4.0173,-4.0031,-3.4857,-3.2305,-3.0874,-2.9468,-2.8028,-2.7115,-2.7992,-2.7478,-2.6741,-2.6741,-2.6632,-2.6234,-2.5165,-2.3964,-2.3135,-2.3135,-2.3135,-2.3135,-2.3135,-2.2127,-2.1034,-1.9829,-1.8668,-1.7919,0.0,0.0,0.0,-1.8661,-1.7383,-1.69,0.0,0.0,0.0,0.0,0.0,-1.3769,-1.5007,-1.4944,-1.4958,-1.505,-1.4958,-1.542,-1.6468,-1.6507,-1.5972,-1.4967,-1.4974,-1.5175,-1.5396,-1.5367,-1.5514,-1.573,-1.573,-1.573,-1.573,-1.573,-1.5045,-1.407,-1.407,-1.3199,-1.2334,0.0,0.0,0.8038,0.8038,0.8038,0.8137,0.8432,0.8237,0.8137,0.8432,0.7332,0.6329,0.6029,0.5122,0.4017,0.3016,0.2917,0.2816,0.2514,0.1209,0.0,-0.1006,-0.1309,-0.2113,-0.3515,-0.3516,-0.471,-0.7093,-0.9359,-1.1609,-1.3927,-1.5826,-1.726,-1.8234,-2.0395,-2.2717,-2.536,-2.9001,-3.2055,-3.4713,-3.7089,-3.8924,-4.0314,-4.1069,-4.2345,-4.3829,-4.4699,-4.4945,-4.484,-4.4858,-4.438,-4.3633,-4.2713,-4.2339,-4.1165,-3.5535,-3.4863,-3.505,-3.1305,-3.0577,-3.0701,-2.9651,-2.9245,-2.9015,-2.9015,-2.7731,-2.6441,-2.6183,-2.4466,-2.3135,-2.3135,-2.3135,-2.3135,-2.3135,-2.2814,-2.2217,-2.1066,-2.0401,-1.9655,0.0,-1.7881,-1.766,-1.8286,-1.785,-1.7171,0.0,0.0,-1.5824,-1.5778,-1.5343,-1.5187,-1.5554,-1.4706,-1.467,-1.5536,-1.4754,-1.4428,-1.4699,-1.5688,-1.5696,-1.4603,-1.4891,-1.4998,-1.5046,-1.5127,-1.5089,-1.519,-1.519,-1.5298,-1.5507,-1.5507,-1.5425,-1.5343,-1.5343,-1.5146,-1.4956,0.8038,0.8038,0.8038,0.8038,0.8038,0.8038,0.8038,0.8038,0.7736,0.7132,0.6431,0.5527,0.4321,0.3518,0.2514,0.1209,0.1611,0.1509,0.0302,-0.0504,-0.1511,-0.2814,-0.2914,-0.3516,-0.492,-0.492,-0.6211,-0.889,-1.0378,-1.2037,-1.3974,-1.5305,-1.6539,-1.7777,-1.9679,-2.1951,-2.4681,-2.8338,-3.1334,-3.3723,-3.623,-3.7914,-3.8957,-3.989,-4.1141,-4.259,-4.3767,-4.4628,-4.5233,-4.5275,-4.5082,-4.471,-4.3988,-4.3435,-4.2359,-3.9013,-3.7978,-3.7326,-3.4584,-3.3049,-3.194,-3.02,-2.9792,-2.9792,-2.9792,-2.8482,-2.7121,-2.6596,-2.5539,-2.4511,-2.3941,-2.3917,-2.3867,-2.3867,-2.3398,-2.262,-2.1192,-2.0851,-2.0366,-1.9497,-1.8982,-1.8944,-1.9515,-1.93,-1.8833,-1.8221,-1.7543,0.0,-1.7245,-1.6732,-1.6448,-1.6466,-1.5396,-1.5118,-1.5727,-1.559,-1.5539,-1.5594,-1.6268,-1.6103,-1.505,-1.4754,-1.4663,-1.4796,-1.4763,-1.4837,-1.503,-1.503,-1.5134,-1.5174,-1.5219,-1.535,-1.5475,-1.5425,-1.5498,-1.5602,0.8038,0.8038,0.8038,0.8038,0.8038,0.7939,0.7739,0.7736,0.7232,0.5827,0.5525,0.4522,0.2213,0.1812,0.1108,-0.0202,0.0705,0.0402,-0.1811,-0.2213,-0.2914,-0.4218,-0.4316,-0.492,-0.6229,-0.6331,-0.7422,-0.9706,-0.9899,-1.1356,-1.3861,-1.4052,-1.5488,-1.8048,-1.9222,-2.1502,-2.4608,-2.7534,-3.0545,-3.3485,-3.5259,-3.6705,-3.7831,-3.8679,-3.9954,-4.1465,-4.2417,-4.395,-4.5433,-4.5112,-4.5269,-4.5453,-4.4669,-4.3999,-4.3434,-4.294,-4.0999,-3.8857,-3.7885,-3.503,-3.1967,-3.056,-3.0022,-2.9792,-2.9792,-2.895,-2.785,-2.6945,-2.6572,-2.6206,-2.5196,-2.4914,-2.4815,-2.4794,-2.3757,-2.2544,-2.1176,0.0,-2.0665,-2.0476,-1.9935,-2.0031,-2.1193,-2.086,-2.0557,-2.0401,-1.952,-1.9036,-1.9036,-1.8069,-1.7658,-1.7819,-1.6553,-1.5899,-1.5935,-1.6985,-1.7498,-1.7338,-1.7294,-1.6708,-1.5643,-1.4572,-1.4186,-1.4467,-1.4467,-1.4572,-1.4853,-1.4853,-1.486,-1.4923,-1.4919,-1.4963,-1.4993,-1.5006,-1.5153,-1.5324,0.8038,0.8038,0.8038,0.8038,0.8038,0.7637,0.6531,0.6331,0.5827,0.4518,0.3316,0.2414,0.2013,0.1008,-0.0202,-0.1611,-0.1509,-0.1509,-0.2012,-0.3015,-0.4318,-0.5627,-0.5727,-0.6329,-0.7637,-0.7736,-0.7935,-0.8333,-0.941,-1.1336,-1.3796,-1.4962,-1.6764,-1.9314,-2.0486,-2.2311,-2.4535,-2.6006,-2.8959,-3.2598,-3.2904,-3.4852,-3.7664,-3.8916,-4.0267,-4.1667,-4.3318,-4.4398,-4.5055,-4.5385,-4.5547,-4.557,-4.5431,-4.4785,-4.396,-4.3453,-4.2704,-4.1478,-3.8959,-3.532,-3.2239,-3.1967,-3.0855,-2.9792,-2.9792,-2.8907,-2.803,-2.7928,-2.7115,-2.6476,-2.6287,-2.5416,-2.4765,-2.4766,-2.3564,-2.2502,-2.2244,0.0,-2.1367,-2.2206,-2.1204,-2.08,-2.1772,-2.1118,-2.0245,-1.9362,-1.9116,-1.9036,-1.9036,-1.8798,-1.9116,-2.0079,-1.8132,-1.7017,-1.7057,-1.8141,-1.8275,-1.7309,-1.7315,-1.6706,-1.5643,-1.4572,-1.4088,-1.4179,-1.4179,-1.4179,-1.4271,-1.4271,-1.4375,-1.4578,-1.4603,-1.4785,-1.4995,-1.5007,-1.5013,-1.504,0.8038,0.8038,0.8038,0.8038,0.7434,0.6731,0.6129,0.5425,0.442,0.3115,0.2413,0.1712,0.1008,-0.0302,-0.131,-0.1913,-0.3317,-0.4121,-0.4121,-0.4722,-0.5724,-0.7033,-0.7033,-0.7335,-0.7939,-0.8038,-0.8711,-1.0045,-1.0626,-1.263,-1.5839,-1.642,-1.8026,-2.0477,-2.1025,-2.2221,-2.3811,-2.5518,-2.731,-2.9289,-3.1505,-3.3328,-3.5063,-3.7625,-3.9345,-4.0652,-4.232,-4.3602,-4.4586,-4.5059,-4.5395,-4.5605,-4.5599,-4.5138,-4.4478,-4.3992,-4.2827,-4.1235,-3.9007,-3.6805,-3.4627,-3.2804,-3.1696,-3.0878,-2.9985,-2.9415,-2.8852,-2.8267,-2.8199,-2.8096,-2.7462,-2.6726,-2.5954,-2.5431,-2.4011,-2.2858,-2.2625,-2.224,-2.2267,-2.3069,-2.2098,-2.1517,-2.1952,-2.1155,-2.0401,-1.9923,-1.9844,-1.9844,-1.9844,-1.9844,-1.9844,-1.9756,-1.8709,-1.823,-1.823,-1.8718,-1.8718,-1.823,-1.8249,-1.7616,-1.6558,-1.5413,-1.4951,-1.4951,-1.4368,-1.4088,-1.4088,-1.4088,-1.4179,-1.4277,-1.4277,-1.4375,-1.4508,-1.4489,-1.4629,-1.4702,0.8038,0.8038,0.7939,0.7637,0.6731,0.5829,0.5125,0.4218,0.3015,0.1711,0.1511,0.1007,-0.0303,-0.141,-0.2213,-0.2916,-0.4822,-0.6129,-0.6431,-0.6431,-0.6933,-0.7939,-0.8038,-0.8038,-0.8038,-0.8333,-0.9575,-1.1839,-1.2128,-1.4212,-1.798,-1.798,-1.929,-2.1747,-2.1747,-2.2217,-2.3212,-2.4767,-2.5777,-2.647,-2.9668,-3.1505,-3.2751,-3.6014,-3.8127,-3.9546,-4.1367,-4.2883,-4.4101,-4.4588,-4.5119,-4.5604,-4.5598,-4.5357,-4.4961,-4.4497,-4.2821,-4.0816,-3.9362,-3.8243,-3.6766,-3.3691,-3.2598,-3.1901,-3.0456,-2.9934,-2.9599,-2.8966,-2.9229,-2.9334,-2.8415,-2.7645,-2.6745,-2.5803,0.0,-2.3277,-2.2783,-2.2791,-2.3037,-2.3412,-2.285,-2.2328,-2.2328,-2.1527,-2.0934,-2.0934,-2.0712,-2.0566,-2.0566,-2.0566,-2.0245,-1.9362,-1.9116,-1.9116,-1.9362,-1.9362,-1.9362,-1.9362,-1.9116,-1.8576,-1.7683,-1.6554,-1.5913,-1.5661,-1.4839,-1.4368,-1.4088,-1.4088,-1.4088,-1.4088,-1.4088,-1.4088,-1.4088,-1.4088,-1.4271,-1.4375,0.8038,0.8038,0.7637,0.6329,0.6029,0.5125,0.2716,0.2213,0.1711,0.0303,0.0101,-0.0404,-0.1711,-0.1913,-0.3016,-0.5527,-0.5929,-0.6531,-0.7736,-0.7839,-0.7939,-0.8038,-0.8038,-0.8038,-0.8038,-0.9217,-1.0453,-1.1839,-1.3003,-1.5544,-1.9266,-1.9266,-2.0587,-2.296,-2.296,-2.3047,-2.3135,-2.329,-2.447,-2.6237,-2.654,-2.8984,-3.264,-3.4878,-3.6981,-3.9002,-4.1687,-4.299,-4.3527,-4.4075,-4.486,-4.5596,-4.5609,-4.5586,-4.5472,-4.4996,-4.3364,-4.156,-4.0897,-3.912,-3.7017,-3.516,-3.3503,-3.2116,-3.1288,-3.0419,-2.9998,-3.0807,-2.9907,-2.8913,-2.8825,-2.7612,-2.6241,-2.5205,0.0,0.0,-2.2808,-2.3113,-2.3486,-2.3526,-2.3441,-2.3368,-2.3368,-2.2478,-2.1886,-2.1886,-2.1078,-2.0566,-2.0566,-2.0566,-2.0566,-2.0479,-1.952,-1.9441,-2.0479,-2.0479,-2.0479,-2.0479,-1.9441,-1.8957,-1.8859,-1.7674,-1.6624,-1.5733,-1.5639,-1.5043,-1.4088,-1.4088,-1.4088,-1.4088,-1.4088,-1.4088,-1.4088,-1.4088,-1.4088,-1.4088,0.7839,0.8038,0.7537,0.6232,0.5322,0.4119,0.2314,0.131,0.0605,0.0101,-0.0706,-0.1411,-0.1913,-0.3518,-0.4922,-0.5929,-0.6731,-0.7434,-0.7939,-0.8038,-0.8038,-0.8038,-0.8825,-0.9217,-0.9217,-1.0485,-1.2206,-1.426,-1.4747,-1.6893,-2.0613,-2.0613,-2.1453,-2.3135,-2.3135,-2.3135,-2.3135,-2.3135,-2.3531,-2.4385,-2.5705,-2.7162,-2.9011,-3.2862,-3.5294,-3.7118,-3.9907,-4.1789,-4.3043,-4.3532,-4.4145,-4.4842,-4.542,-4.5405,-4.5078,-4.4595,-4.3454,-4.2221,-4.1621,-4.0295,-3.8581,-3.635,-3.5344,-3.4193,-3.1761,-3.0647,-3.0128,-2.9804,-2.8999,-2.8411,-2.8411,-2.7654,-2.6688,-2.5667,0.0,-2.4553,-2.4175,-2.4307,-2.4624,-2.5276,-2.485,-2.4409,-2.4409,-2.2925,-2.2027,-2.2027,-2.1155,-2.0566,-2.0566,-2.0566,-2.0566,-2.0566,-2.0167,-2.0167,-2.0566,-2.0566,-2.0245,-1.9599,-1.9844,-1.9599,-1.8966,-1.855,-1.7738,-1.6683,-1.602,-1.5118,-1.4088,-1.4088,-1.4088,-1.4088,-1.4088,-1.4088,-1.4088,-1.4088,-1.4088,-1.4088,0.7235,0.7335,0.6933,0.5625,0.4218,0.2914,0.1611,0.0605,0.0,0.0,-0.0807,-0.1711,-0.2514,-0.432,-0.5727,-0.6531,-0.7434,-0.8038,-0.8038,-0.8432,-0.8432,-0.8041,-0.8924,-0.9608,-0.9998,-1.1263,-1.3177,-1.5718,-1.6115,-1.788,-2.0747,-2.0747,-2.1391,-2.2492,-2.2492,-2.2775,-2.3135,-2.3135,-2.3135,-2.3212,-2.4618,-2.5622,-2.6598,-3.0181,-3.3177,-3.561,-3.7981,-4.0259,-4.223,-4.2933,-4.352,-4.4096,-4.4908,-4.5036,-4.4862,-4.4647,-4.3858,-4.2866,-4.1859,-4.092,-3.9562,-3.7022,-3.6228,-3.5305,-3.2472,-3.09,-3.0,-2.9567,-2.8647,-2.7846,-2.7846,-2.7394,-2.6723,-2.5733,-2.5528,-2.537,-2.5004,-2.53,-2.5581,-2.5955,-2.5734,-2.537,-2.5016,-2.3745,-2.2925,-2.2925,-2.1745,-2.0934,-2.0644,-2.0566,-2.0566,-2.0566,-2.0566,-2.0566,-2.0566,-2.0566,-2.0235,-1.952,-2.0245,-2.0235,-1.952,-1.952,-1.8709,-1.7261,-1.6519,-1.5387,-1.4088,-1.4088,-1.4088,-1.4088,-1.4088,-1.4088,-1.4088,-1.4088,-1.4088,-1.4088,0.6029,0.6029,0.5525,0.4216,0.2914,0.1511,0.0202,0.0,0.0,0.0,0.0,-0.1008,-0.3715,-0.4016,-0.5118,-0.7736,-0.8038,-0.8038,-0.8038,-0.9217,-0.941,-0.8038,-0.8038,-0.8627,-0.9998,-1.1268,-1.3177,-1.5718,-1.7001,-1.8319,-1.9497,-1.9497,-2.0124,-2.1293,-2.1293,-2.1943,-2.3135,-2.3135,-2.3135,-2.3135,-2.3135,-2.4395,-2.6296,-2.71,-3.0421,-3.4859,-3.6222,-3.8534,-4.1087,-4.2302,-4.299,-4.3498,-4.4041,-4.4515,-4.4954,-4.5297,-4.4672,-4.3492,-4.1665,-4.0802,-3.9756,-3.7074,-3.5916,-3.4972,-3.3456,-3.1171,-2.9648,-3.0582,-2.8921,-2.7268,-2.7268,-2.6829,-2.6164,-2.5146,-2.5873,-2.6164,-2.5158,-2.5873,-2.6094,-2.5146,-2.5873,-2.6094,-2.5087,-2.5004,-2.5004,-2.5004,-2.3147,-2.1593,-2.0634,-2.0566,-2.0566,-2.0566,-2.0566,-2.0566,-2.0566,-2.0566,-2.0566,-2.0566,-2.0566,-2.0566,-2.0566,-2.0566,-1.9353,-1.7342,-1.7342,-1.6041,-1.4088,-1.4088,-1.4088,-1.4088,-1.4088,-1.4088,-1.4088,-1.4088,-1.4088,-1.4088,0.4418,0.4618,0.4218,0.2815,0.2314,0.1511,0.0202,-0.0807,-0.1109,-0.0101,-0.2416,-0.4121,-0.4016,-0.572,-0.7132,-0.7939,-0.8038,-0.8038,-0.8038,-0.9217,-0.9801,-0.941,-1.0288,-1.1356,-1.2716,-1.3102,-1.4064,-1.5798,-1.619,-1.7037,-1.8234,-1.8234,-1.9314,-2.1293,-2.1293,-2.1943,-2.3135,-2.3135,-2.3135,-2.3135,-2.3135,-2.4395,-2.6389,-2.8083,-3.1226,-3.4919,-3.6821,-3.8947,-4.0949,-4.1313,-4.2101,-4.3128,-4.4307,-4.4791,-4.4859,-4.467,-4.4148,-4.3156,-4.102,-4.0239,-3.9487,-3.718,-3.6133,-3.4987,-3.2689,-3.1375,-3.0397,-2.9417,-2.8315,-2.7611,-2.7611,-2.702,-2.6383,-2.6094,-2.6314,-2.6383,-2.6094,-2.6314,-2.6383,-2.6094,-2.6314,-2.6383,-2.6094,-2.5441,-2.5004,-2.5004,-2.3147,-2.1593,-2.0634,-2.0566,-2.0566,-2.0566,-2.0566,-2.0566,-2.0566,-2.0566,-2.0566,-2.0566,-2.0566,-2.0566,-2.0566,-2.0566,-1.9353,-1.7342,-1.7342,-1.6041,-1.4088,-1.4088,-1.4088,-1.4088,-1.4088,-1.4088,-1.4088,-1.4088,-1.4088,-1.4088,0.3015,0.3215,0.2914,0.2113,0.1611,0.0806,-0.0605,-0.1511,-0.1913,-0.1611,-0.3718,-0.5122,-0.482,-0.6226,-0.7434,-0.7939,-0.8038,-0.8233,-0.8726,-0.9998,-1.097,-1.1551,-1.2231,-1.3102,-1.3878,-1.3878,-1.4561,-1.5832,-1.5832,-1.6197,-1.6943,-1.6943,-1.8041,-1.9943,-2.0395,-2.1302,-2.2482,-2.3367,-2.3551,-2.3212,-2.4501,-2.55,-2.6459,-2.882,-3.1804,-3.4919,-3.6482,-3.8553,-4.0655,-4.1087,-4.1935,-4.2916,-4.4031,-4.425,-4.4097,-4.398,-4.371,-4.2928,-4.0502,-3.9896,-3.9426,-3.7154,-3.5923,-3.4794,-3.2931,-3.1608,-3.054,-2.9449,-2.841,-2.767,-2.767,-2.7284,-2.6837,-2.6521,-2.6782,-2.685,-2.6521,-2.6533,-2.6533,-2.6533,-2.6533,-2.6533,-2.6533,-2.5943,-2.5288,-2.448,-2.3294,-2.2038,-2.0634,-2.0566,-2.0566,-2.0566,-2.0566,-2.0566,-2.0566,-2.0566,-2.0566,-2.0566,-2.0566,-2.0566,-2.0566,-2.0566,-1.9678,-1.798,-1.798,-1.6764,-1.4734,-1.5228,-1.4901,-1.4173,-1.4573,-1.4489,-1.4088,-1.4088,-1.4088,-1.4088,0.1711,0.161,0.161,0.1509,0.0504,-0.0807,-0.2013,-0.2314,-0.2715,-0.3815,-0.4216,-0.4818,-0.5929,-0.6129,-0.6631,-0.7939,-0.8038,-0.8531,-0.9702,-1.1165,-1.2431,-1.368,-1.3974,-1.407,-1.407,-1.3968,-1.4561,-1.5832,-1.5832,-1.5832,-1.5832,-1.5832,-1.648,-1.7777,-1.8956,-2.0215,-2.1471,-2.3826,-2.4211,-2.3541,-2.6653,-2.7404,-2.6921,-2.9627,-3.2469,-3.5074,-3.5782,-3.776,-4.0184,-4.1253,-4.205,-4.2659,-4.333,-4.3245,-4.2947,-4.3228,-4.3308,-4.2707,-4.0076,-3.9676,-3.942,-3.7069,-3.5592,-3.4526,-3.374,-3.1968,-3.0495,-3.0435,-2.9052,-2.792,-2.792,-2.7802,-2.7484,-2.6714,-2.7162,-2.7351,-2.6589,-2.6533,-2.6533,-2.6533,-2.6533,-2.6533,-2.6533,-2.6533,-2.5627,-2.3604,-2.3458,-2.2552,-2.0604,-2.0449,-2.0449,-2.0449,-2.0488,-2.0508,-2.0508,-2.0547,-2.0566,-2.0566,-2.0566,-2.0566,-2.0566,-2.0566,-2.0001,-1.9036,-1.9036,-1.7819,-1.5944,-1.6927,-1.6124,-1.4328,-1.5296,-1.5054,-1.4088,-1.4088,-1.4088,-1.4088,-0.0906,-0.1107,-0.1508,-0.251,-0.2912,-0.3215,-0.3516,-0.442,-0.4822,-0.4116,-0.5822,-0.683,-0.6129,-0.6933,-0.7637,-0.7939,-0.8038,-0.8137,-0.8432,-1.0583,-1.2042,-1.2334,-1.4274,-1.5439,-1.5439,-1.4364,-1.4561,-1.5832,-1.5832,-1.5832,-1.5832,-1.5832,-1.648,-1.7777,-1.8956,-2.0215,-2.1471,-2.3826,-2.4617,-2.4617,-2.6978,-2.8746,-3.0098,-3.1492,-3.4156,-3.7164,-3.734,-3.8194,-3.9364,-4.0086,-4.042,-4.0836,-4.2524,-4.2989,-4.2848,-4.2673,-4.2505,-4.1917,-3.9815,-3.9156,-3.8746,-3.738,-3.6147,-3.5021,-3.4154,-3.3019,-3.1931,-3.123,-3.0377,-2.9766,-2.9766,-2.862,-2.767,-2.7484,-2.704,-2.6714,-2.6521,-2.6533,-2.6533,-2.6533,-2.6533,-2.6533,-2.6533,-2.6533,-2.555,-2.3202,-2.3026,-2.1999,-1.9728,-1.957,-1.957,-1.957,-1.9883,-2.0059,-2.0059,-2.0391,-2.0566,-2.0566,-2.0566,-2.0566,-2.0566,-2.0566,-2.0001,-1.9036,-1.9036,-1.823,-1.7009,-1.7172,-1.6527,-1.5379,-1.5621,-1.5054,-1.4088,-1.4088,-1.4088,-1.4088,-0.1712,-0.2013,-0.2414,-0.3815,-0.4016,-0.4216,-0.482,-0.5525,-0.6027,-0.5922,-0.7132,-0.7739,-0.7033,-0.7537,-0.8038,-0.8038,-0.8038,-0.8233,-0.892,-1.0774,-1.2237,-1.2813,-1.4758,-1.5832,-1.5832,-1.5146,-1.5146,-1.5832,-1.5832,-1.5832,-1.5832,-1.5832,-1.6204,-1.685,-1.8672,-2.009,-2.1389,-2.4385,-2.563,-2.5859,-2.895,-3.0475,-3.1263,-3.3565,-3.5597,-3.731,-3.7648,-3.8522,-3.9466,-3.9779,-4.0217,-4.081,-4.1921,-4.2149,-4.1955,-4.1714,-4.1557,-4.1141,-3.9661,-3.9222,-3.8965,-3.8016,-3.7011,-3.5975,-3.493,-3.3625,-3.2461,-3.2013,-3.1057,-3.0329,-3.0329,-2.9192,-2.8182,-2.7802,-2.7351,-2.6905,-2.6521,-2.6533,-2.6533,-2.6533,-2.6533,-2.642,-2.6076,-2.5824,-2.4774,-2.2601,-2.2868,-2.2188,-2.0063,-2.0329,-2.0329,-1.9909,-2.0131,-2.0032,-1.9619,-2.0039,-2.0254,-2.0254,-2.0469,-2.0566,-2.0566,-2.0566,-2.0323,-1.9766,-1.9766,-1.9116,-1.8149,-1.863,-1.7891,-1.6437,-1.6437,-1.5786,-1.4817,-1.425,-1.4088,-1.4088,-0.2013,-0.2314,-0.2815,-0.4416,-0.4718,-0.502,-0.6129,-0.6331,-0.6734,-0.7839,-0.8038,-0.8038,-0.8038,-0.8038,-0.8038,-0.8038,-0.8038,-0.8531,-0.9899,-1.117,-1.2528,-1.3878,-1.5146,-1.5832,-1.5832,-1.5832,-1.5832,-1.5832,-1.5832,-1.5832,-1.5832,-1.5832,-1.592,-1.6197,-1.8488,-2.0245,-2.1678,-2.5051,-2.6637,-2.7105,-3.1,-3.1969,-3.1505,-3.4927,-3.6369,-3.663,-3.7232,-3.8345,-3.9589,-3.959,-4.0225,-4.108,-4.1377,-4.1224,-4.0952,-4.0857,-4.0809,-4.0587,-3.9642,-3.9494,-3.9419,-3.8659,-3.7821,-3.6946,-3.5925,-3.4267,-3.2949,-3.2949,-3.1747,-3.0674,-3.0674,-2.9875,-2.9002,-2.8247,-2.7855,-2.7484,-2.6782,-2.6589,-2.6533,-2.6533,-2.6445,-2.6088,-2.5523,-2.5071,-2.4083,-2.2264,-2.2803,-2.2432,-2.0711,-2.1265,-2.1254,-2.0443,-2.0446,-2.0073,-1.918,-1.959,-1.9844,-1.9922,-2.0283,-2.0498,-2.0566,-2.0566,-2.0566,-2.0566,-2.0566,-2.0079,-1.9362,-2.0235,-1.9432,-1.7577,-1.7415,-1.6601,-1.5538,-1.4489,-1.4088,-1.4088,-0.3215,-0.3715,-0.4518,-0.703,-0.7434,-0.7534,-0.7736,-0.7739,-0.7839,-0.7939,-0.8038,-0.8038,-0.8038,-0.8038,-0.8038,-0.8038,-0.8038,-0.8531,-0.9899,-1.117,-1.2528,-1.3878,-1.5146,-1.5832,-1.5832,-1.5832,-1.5832,-1.5832,-1.5832,-1.5832,-1.5832,-1.5832,-1.6386,-1.7505,-1.8856,-2.0712,-2.2882,-2.5419,-2.7046,-2.8152,-3.1322,-3.2134,-3.1723,-3.3942,-3.521,-3.5838,-3.5947,-3.6973,-3.8285,-3.8307,-3.8896,-3.9734,-4.0629,-4.0871,-4.085,-4.0945,-4.0883,-4.0645,-3.9923,-3.9667,-3.9457,-3.8826,-3.7929,-3.7173,-3.7002,-3.5596,-3.4333,-3.4333,-3.3271,-3.2296,-3.2296,-3.1072,-3.0072,-2.995,-2.8684,-2.767,-2.7537,-2.6905,-2.6533,-2.6533,-2.6013,-2.5498,-2.4971,-2.4858,-2.4208,-2.2728,-2.2692,-2.2168,-2.0685,-2.0727,-2.0402,-1.9488,-1.9797,-1.9602,-1.8721,-1.915,-1.9561,-1.9912,-1.9971,-2.0195,-2.0566,-2.0566,-2.0566,-2.0566,-2.0566,-2.0489,-2.0401,-2.0566,-1.9844,-1.863,-1.7658,-1.6601,-1.5538,-1.4489,-1.4088,-1.4088,-0.3615,-0.4618,-0.5724,-0.7637,-0.8038,-0.8038,-0.8038,-0.8038,-0.8038,-0.8038,-0.8038,-0.8038,-0.8038,-0.8038,-0.8038,-0.8038,-0.8726,-0.9706,-1.0974,-1.2328,-1.359,-1.4854,-1.5534,-1.6109,-1.685,-1.685,-1.7217,-1.7848,-1.6473,-1.5832,-1.5832,-1.5832,-1.648,-1.7777,-1.8956,-2.1132,-2.4047,-2.5753,-2.729,-2.8781,-3.1087,-3.1668,-3.1334,-3.3245,-3.4398,-3.5182,-3.6075,-3.7108,-3.8117,-3.8609,-3.9366,-4.0216,-4.0655,-4.0908,-4.1004,-4.091,-4.085,-4.0722,-4.0296,-3.9888,-3.9529,-3.9268,-3.8186,-3.719,-3.719,-3.6138,-3.5052,-3.4688,-3.3531,-3.2586,-3.2586,-3.1319,-3.0329,-3.0329,-2.9254,-2.8247,-2.7802,-2.7144,-2.6449,-2.564,-2.5046,-2.4607,-2.4393,-2.4067,-2.3393,-2.2309,-2.2674,-2.244,-2.1376,-2.1741,-2.1604,-2.0782,-2.0467,-1.986,-1.9005,-1.8913,-1.9014,-1.9209,-1.9687,-2.0146,-2.0566,-2.0566,-2.0566,-2.0566,-2.0566,-2.0566,-2.0566,-2.0566,-2.0323,-1.9766,-1.8709,-1.7253,-1.5538,-1.4489,-1.4088,-1.4088]},{"header":{"parameterUnit":"m.s-1","parameterCategory":1,"la1":30.6,"la2":28.766,"lo1":-90.7593,"lo2":-88.6598,"dy":0.0162,"dx":0.0183,"nx":116,"ny":114,"refTime":"2024-05-10T12:00:00:Z","depth":0,"parameterNumber":3,"parameterNumberName":"V-component_of_WINDS"},"data":[0.0,0.0,0.0,0.0,0.0,0.0,0.0,0.0,0.0,0.0,0.0,0.0,0.0,0.0,0.0,0.0,0.0,0.0,0.0,0.0,0.0,0.0,0.0,0.0,0.0,0.0,0.0,0.0,0.0,0.0,0.0,0.0,0.0,0.0,0.0,0.0,0.0,0.0,0.0,0.0,0.0,0.0,0.0,0.0,0.0,0.0,0.0,0.0,0.0,0.0,0.0,0.0,0.0,0.0,0.0,0.0,0.0,0.0,0.0,0.0,0.0,0.0,0.0,0.0,0.0,0.0,0.0,0.0,0.0,0.0,0.0,0.0,0.0,0.0,0.0,0.0,0.0,0.0,0.0,0.0,0.0,0.0,0.0,0.0,0.0,0.0,0.0,0.0,0.0,0.0,0.0,0.0,0.0,0.0,0.0,0.0,0.0,0.0,0.0,0.0,0.0,0.0,0.0,0.0,0.0,0.0,0.0,0.0,0.0,0.0,0.0,0.0,0.0,0.0,0.0,0.0,0.0,0.0,0.0,0.0,0.0,0.0,0.0,0.0,0.0,0.0,0.0,0.0,0.0,0.0,0.0,0.0,0.0,0.0,0.0,0.0,0.0,0.0,0.0,0.0,0.0,0.0,0.0,0.0,0.0,0.0,0.0,0.0,0.0,0.0,0.0,0.0,0.0,0.0,0.0,0.0,0.0,0.0,0.0,0.0,0.0,0.0,0.0,0.0,0.0,0.0,0.0,0.0,0.0,0.0,0.0,0.0,0.0,0.0,0.0,0.0,0.0,0.0,0.0,0.0,0.0,0.0,0.0,0.0,0.0,0.0,0.0,0.0,0.0,0.0,0.0,0.0,0.0,0.0,0.0,0.0,0.0,0.0,0.0,0.0,0.0,0.0,0.0,0.0,0.0,0.0,0.0,0.0,0.0,0.0,0.0,0.0,0.0,0.0,0.0,0.0,0.0,0.0,0.0,0.0,0.0,0.0,0.0,0.0,0.0,0.0,0.0,0.0,0.0,0.0,0.0,0.0,0.0,0.0,0.0,0.0,0.0,0.0,0.0,0.0,0.0,0.0,0.0,0.0,0.0,0.0,0.0,0.0,0.0,0.0,0.0,0.0,0.0,0.0,0.0,0.0,0.0,0.0,0.0,0.0,0.0,0.0,0.0,0.0,0.0,0.0,0.0,0.0,0.0,0.0,0.0,0.0,0.0,0.0,0.0,0.0,0.0,0.0,0.0,0.0,0.0,0.0,0.0,0.0,0.0,0.0,0.0,0.0,0.0,0.0,0.0,0.0,0.0,0.0,0.0,0.0,0.0,0.0,0.0,0.0,0.0,0.0,0.0,0.0,0.0,0.0,0.0,0.0,0.0,0.0,0.0,0.0,0.0,0.0,0.0,0.0,0.0,0.0,0.0,0.0,0.0,0.0,0.0,0.0,0.0,0.0,0.0,0.0,0.0,0.0,0.0,0.0,0.0,0.0,0.0,0.0,0.0,0.0,0.0,0.0,0.0,0.0,0.0,0.0,0.0,0.0,0.0,0.0,0.0,0.0,0.0,0.0,0.0,0.0,0.0,0.0,0.0,0.0,0.0,0.0,0.0,0.0,0.0,0.0,0.0,0.0,0.0,0.0,0.0,0.0,0.0,0.0,0.0,0.0,0.0,0.0,0.0,0.0,0.0,0.0,0.0,0.0,0.0,0.0,0.0,0.0,0.0,0.0,0.0,0.0,0.0,0.0,0.0,0.0,0.0,0.0,0.0,0.0,0.0,0.0,0.0,0.0,0.0,0.0,0.0,0.0,0.0,0.0,0.0,0.0,0.0,0.0,0.0,0.0,0.0,0.0,0.0,0.0,0.0,0.0,0.0,0.0,0.0,0.0,0.0,0.0,0.0,0.0,0.0,0.0,0.0,0.0,0.0,0.0,0.0,0.0,0.0,0.0,0.0,0.0,0.0,0.0,0.0,0.0,0.0,0.0,0.0,0.0,0.0,0.0,0.0,0.0,0.0,0.0,0.0,0.0,0.0,0.0,0.0,0.0,0.0,0.0,0.0,0.0,0.0,0.0,0.0,0.0,0.0,0.0,0.0,0.0,0.0,0.0,0.0,0.0,0.0,0.0,0.0,0.0,0.0,0.0,0.0,0.0,0.0,0.0,0.0,0.0,0.0,0.0,0.0,0.0,0.0,0.0,0.0,0.0,0.0,0.0,0.0,0.0,0.0,0.0,0.0,0.0,0.0,0.0,0.0,0.0,0.0,0.0,0.0,0.0,0.0,0.0,0.0,0.0,0.0,0.0,0.0,0.0,0.0,0.0,0.0,0.0,0.0,0.0,0.0,0.0,0.0,0.0,0.0,0.0,0.0,0.0,0.0,0.0,0.0,0.0,0.0,0.0,0.0,0.0,0.0,0.0,0.0,0.0,0.0,0.0,0.0,0.0,0.0,0.0,0.0,0.0,0.0,0.0,0.0,0.0,0.0,0.0,0.0,0.0,0.0,0.0,0.0,0.0,0.0,0.0,0.0,0.0,0.0,0.0,0.0,0.0,0.0,0.0,0.0,0.0,0.0,0.0,0.0,0.0,0.0,0.0,0.0,0.0,0.0,0.0,0.0,0.0,0.0,0.0,0.0,0.0,0.0,0.0,0.0,0.0,0.0,0.0,0.0,0.0,0.0,0.0,0.0,0.0,0.0,0.0,0.0,0.0,0.0,0.0,0.0,0.0,0.0,0.0,0.0,0.0,0.0,0.0,0.0,0.0,0.0,0.0,0.0,0.0,0.0,0.0,0.0,0.0,0.0,0.0,0.0,0.0,0.0,0.0,0.0,0.0,0.0,0.0,0.0,0.0,0.0,0.0,0.0,0.0,0.0,0.0,0.0,0.0,0.0,0.0,0.0,0.0,0.0,0.0,0.0,0.0,0.0,0.0,0.0,0.0,0.0,0.0,0.0,0.0,0.0,0.0,0.0,0.0,0.0,0.0,0.0,0.0,0.0,0.0,0.0,0.0,0.0,0.0,0.0,0.0,0.0,0.0,0.0,0.0,0.0,0.0,0.0,0.0,0.0,0.0,0.0,0.0,0.0,0.0,0.0,0.0,0.0,0.0,0.0,0.0,0.0,0.0,0.0,0.0,0.0,0.0,0.0,0.0,0.0,0.0,0.0,0.0,0.0,0.0,0.0,0.0,0.0,0.0,0.0,0.0,0.0,0.0,0.0,0.0,0.0,0.0,0.0,0.0,0.0,0.0,0.0,0.0,0.0,0.0,0.0,0.0,0.0,0.0,0.0,0.0,0.0,0.0,0.0,0.0,0.0,0.0,0.0,0.0,0.0,0.0,0.0,0.0,0.0,0.0,0.0,0.0,0.0,0.0,0.0,0.0,0.0,0.0,0.0,0.0,0.0,0.0,0.0,0.0,0.0,0.0,0.0,0.0,0.0,0.0,0.0,0.0,0.0,0.0,0.0,0.0,0.0,0.0,0.0,0.0,0.0,0.0,0.0,0.0,0.0,0.0,0.0,0.0,0.0,0.0,0.0,0.0,0.0,0.0,0.0,0.0,0.0,0.0,0.0,0.0,0.0,0.0,0.0,0.0,0.0,0.0,0.0,0.0,0.0,0.0,0.0,0.0,0.0,0.0,0.0,0.0,0.0,0.0,0.0,0.0,0.0,0.0,0.0,0.0,0.0,0.0,0.0,0.0,0.0,0.0,0.0,0.0,0.0,0.0,0.0,0.0,0.0,0.0,0.0,0.0,0.0,0.0,0.0,0.0,0.0,0.0,0.0,0.0,0.0,0.0,0.0,0.0,0.0,0.0,0.0,0.0,0.0,0.0,0.0,0.0,0.0,0.0,0.0,0.0,0.0,0.0,0.0,0.0,0.0,0.0,0.0,0.0,0.0,0.0,0.0,0.0,0.0,0.0,0.0,0.0,0.0,0.0,0.0,0.0,0.0,0.0,0.0,0.0,0.0,0.0,0.0,0.0,0.0,0.0,0.0,0.0,0.0,0.0,0.0,0.0,0.0,0.0,0.0,0.0,0.0,0.0,0.0,0.0,0.0,0.0,0.0,0.0,0.0,0.0,0.0,0.0,0.0,0.0,0.0,0.0,0.0,0.0,0.0,0.0,0.0,0.0,0.0,0.0,0.0,0.0,0.0,0.0,0.0,0.0,0.0,0.0,0.0,0.0,0.0,0.0,0.0,0.0,0.0,0.0,0.0,0.0,0.0,0.0,0.0,0.0,0.0,0.0,0.0,0.0,0.0,0.0,0.0,0.0,0.0,0.0,0.0,0.0,0.0,0.0,0.0,0.0,0.0,0.0,0.0,0.0,0.0,0.0,0.0,0.0,0.0,0.0,0.0,0.0,0.0,0.0,0.0,0.0,0.0,0.0,0.0,0.0,0.0,0.0,0.0,0.0,0.0,0.0,0.0,0.0,0.0,0.0,0.0,0.0,0.0,0.0,0.0,0.0,0.0,0.0,0.0,0.0,0.0,0.0,0.0,0.0,0.0,0.0,0.0,0.0,0.0,0.0,0.0,0.0,0.0,0.0,0.0,0.0,0.0,0.0,0.0,0.0,0.0,0.0,0.0,0.0,0.0,0.0,0.0,0.0,0.0,0.0,0.0,0.0,0.0,0.0,0.0,0.0,0.0,0.0,0.0,0.0,0.0,0.0,0.0,0.0,0.0,0.0,0.0,0.0,0.0,0.0,0.0,0.0,0.0,0.0,0.0,0.0,0.0,0.0,0.0,0.0,0.0,0.0,0.0,0.0,0.0,0.0,0.0,0.0,0.0,0.0,0.0,0.0,0.0,0.0,0.0,0.0,0.0,0.0,0.0,0.0,0.0,0.0,0.0,0.0,0.0,0.0,0.0,0.0,0.0,0.0,0.0,0.0,0.0,0.0,0.0,0.0,0.0,0.0,0.0,0.0,0.0,0.0,0.0,0.0,0.0,0.0,0.0,0.0,0.0,0.0,0.0,0.0,0.0,0.0,0.0,0.0,0.0,0.0,0.0,0.0,0.0,0.0,0.0,0.0,0.0,0.0,0.0,0.0,0.0,0.0,0.0,0.0,0.0,0.0,0.0,0.0,0.0,0.0,0.0,0.0,0.0,0.0,0.0,0.0,0.0,0.0,0.0,0.0,0.0,0.0,0.0,0.0,0.0,0.0,0.0,0.0,0.0,0.0,0.0,0.0,0.0,0.0,0.0,0.0,0.0,0.0,0.0,0.0,0.0,0.0,0.0,0.0,0.0,0.0,0.0,0.0,0.0,0.0,0.0,0.0,0.0,0.0,0.0,0.0,0.0,0.0,0.0,0.0,0.0,0.0,0.0,0.0,0.0,0.0,0.0,0.0,0.0,0.0,0.0,0.0,0.0,0.0,0.0,0.0,0.0,0.0,0.0,0.0,0.0,0.0,0.0,0.0,0.0,0.0,0.0,0.0,0.0,0.0,0.0,0.0,0.0,0.0,0.0,0.0,0.0,0.0,0.0,0.0,0.0,0.0,0.0,0.0,0.0,0.0,0.0,0.0,0.0,0.0,0.0,0.0,0.0,0.0,0.0,0.0,0.0,0.0,0.0,0.0,0.0,0.0,0.0,0.0,0.0,0.0,0.0,0.0,0.0,0.0,0.0,0.0,0.0,0.0,0.0,0.0,0.0,0.0,0.0,0.0,0.0,0.0,0.0,0.0,0.0,0.0,0.0,0.0,0.0,0.0,0.0,0.0,0.0,0.0,0.0,0.0,0.0,0.0,0.0,0.0,0.0,0.0,0.0,0.0,0.0,0.0,0.0,0.0,0.0,0.0,0.0,0.0,0.0,0.0,0.0,0.0,0.0,0.0,0.0,0.0,0.0,0.0,0.0,0.0,0.0,0.0,0.0,0.0,0.0,0.0,0.0,0.0,0.0,0.0,0.0,0.0,0.0,0.0,0.0,0.0,0.0,0.0,0.0,0.0,0.0,0.0,0.0,0.0,0.0,0.0,0.0,0.0,0.0,0.0,0.0,0.0,0.0,0.0,0.0,0.0,0.0,0.0,0.0,0.0,0.0,0.0,0.0,0.0,0.0,0.0,0.0,0.0,0.0,0.0,0.0,0.0,0.0,0.0,0.0,0.0,-2.6764,0.0,0.0,0.0,0.0,0.0,0.0,0.0,0.0,0.0,0.0,0.0,0.0,0.0,0.0,0.0,0.0,0.0,0.0,0.0,0.0,0.0,0.0,0.0,0.0,-0.8804,-0.8804,-0.8804,-0.8804,-0.8804,-0.8804,0.0,0.0,0.0,0.0,0.0,-0.9309,-0.8956,-0.9182,-1.0053,-0.9695,-0.9613,-0.97,-0.9755,-0.9755,-0.97,0.0,0.0,0.0,0.0,0.0,0.0,0.0,0.0,0.0,0.0,0.0,0.0,0.0,0.0,0.0,0.0,0.0,0.0,0.0,0.0,0.0,0.0,0.0,0.0,0.0,0.0,0.0,0.0,0.0,0.0,0.0,0.0,0.0,0.0,0.0,0.0,0.0,0.0,0.0,0.0,0.0,0.0,0.0,0.0,0.0,0.0,0.0,0.0,0.0,0.0,0.0,0.0,0.0,0.0,0.0,0.0,0.0,0.0,0.0,0.0,0.0,0.0,0.0,0.0,0.0,0.0,0.0,0.0,0.0,0.0,0.0,-2.5778,0.0,0.0,0.0,0.0,0.0,0.0,0.0,0.0,0.0,0.0,0.0,0.0,0.0,0.0,0.0,0.0,0.0,0.0,0.0,0.0,0.0,-0.8804,-0.8804,-0.8804,-0.8804,-0.8804,-0.8804,-0.8804,-0.8804,-0.8804,-0.8804,-0.8804,-0.8804,-0.8884,-0.9037,-0.8931,-0.9342,-1.0397,-1.0115,-1.0163,-1.0595,-0.9856,-0.9942,-1.0675,-1.0119,0.0,0.0,0.0,0.0,0.0,0.0,0.0,0.0,0.0,0.0,0.0,0.0,0.0,0.0,0.0,0.0,0.0,0.0,0.0,0.0,0.0,0.0,0.0,0.0,0.0,0.0,0.0,0.0,0.0,0.0,0.0,0.0,0.0,0.0,0.0,0.0,0.0,0.0,0.0,0.0,0.0,0.0,0.0,0.0,0.0,0.0,0.0,0.0,0.0,0.0,0.0,0.0,0.0,0.0,0.0,0.0,0.0,0.0,0.0,0.0,0.0,0.0,0.0,-2.597,-2.6436,-2.6609,-2.6436,-2.7001,-2.7982,-2.5975,-2.5512,-2.6159,-2.5589,0.0,0.0,0.0,0.0,0.0,0.0,0.0,0.0,0.0,0.0,0.0,0.0,0.0,0.0,0.0,0.0,0.0,0.0,0.0,-0.8804,-0.8804,-0.8804,-0.8804,-0.8804,-0.8804,-0.8804,-0.8804,-0.8804,-0.8804,-0.8804,-0.8804,-0.9185,-1.0085,-0.9501,-0.9646,-1.0676,-0.9292,-0.9153,-1.0174,-0.9302,-0.9555,-1.0601,-1.0594,-1.0293,-0.9911,0.0,0.0,0.0,0.0,0.0,0.0,0.0,0.0,0.0,0.0,0.0,0.0,0.0,0.0,0.0,0.0,0.0,0.0,0.0,0.0,0.0,0.0,0.0,0.0,0.0,0.0,0.0,0.0,0.0,0.0,0.0,0.0,0.0,0.0,0.0,0.0,0.0,0.0,0.0,0.0,0.0,-2.2949,-2.2965,0.0,0.0,0.0,0.0,0.0,0.0,0.0,0.0,0.0,0.0,0.0,0.0,0.0,-2.4776,-2.4772,-2.5286,-2.5882,-2.6645,-2.7196,-2.7889,-2.8565,-2.7824,-2.7617,-2.7735,-2.6713,0.0,-2.7446,-2.738,0.0,0.0,0.0,0.0,0.0,0.0,0.0,0.0,0.0,0.0,0.0,0.0,0.0,0.0,0.0,0.0,0.0,0.0,0.0,0.0,0.0,-0.8427,-0.8156,-0.8156,-0.7777,-0.7723,-0.8156,-0.8156,-0.8374,-0.8804,-0.8965,-0.9214,-0.9666,-0.9568,-0.9555,-0.9636,-0.8644,-0.8408,-0.8897,-0.8513,-0.8891,-0.9843,-0.9897,-1.0032,-1.0235,-1.082,0.0,0.0,0.0,0.0,0.0,0.0,0.0,0.0,0.0,0.0,0.0,0.0,0.0,0.0,0.0,0.0,0.0,0.0,0.0,0.0,0.0,0.0,0.0,0.0,0.0,0.0,0.0,0.0,0.0,0.0,0.0,0.0,0.0,0.0,0.0,0.0,0.0,0.0,0.0,-2.2975,-2.3078,-2.3078,-2.3427,-2.3615,0.0,0.0,0.0,0.0,0.0,0.0,0.0,0.0,0.0,-2.5245,-2.561,-2.5741,-2.5741,-2.5995,-2.6308,-2.6668,-2.7366,-2.792,-2.8247,-2.7855,-2.767,-2.767,-2.685,-2.6714,-2.704,-2.704,-2.685,-2.6533,0.0,0.0,0.0,0.0,-2.7484,-2.8247,0.0,0.0,0.0,0.0,0.0,0.0,0.0,0.0,0.0,0.0,0.0,0.0,-0.8533,-0.7883,-0.7402,-0.7402,-0.6912,-0.6912,-0.767,-0.7782,-0.8153,-0.8864,-0.9198,-0.9273,-0.9112,-0.9212,-0.9023,-0.8584,-0.8004,-0.7762,-0.8027,-0.7762,-0.8156,-0.9005,-0.9204,-0.9786,-1.0624,-1.0624,-1.0624,-1.0618,0.0,0.0,0.0,0.0,0.0,0.0,0.0,0.0,0.0,0.0,0.0,0.0,0.0,0.0,0.0,0.0,0.0,0.0,0.0,0.0,0.0,0.0,0.0,0.0,0.0,0.0,0.0,0.0,0.0,0.0,0.0,0.0,0.0,0.0,0.0,0.0,0.0,-2.3078,-2.3188,-2.3339,-2.374,-2.4054,0.0,0.0,0.0,0.0,0.0,0.0,-2.5234,-2.5635,-2.5847,-2.5847,-2.6296,-2.6533,-2.6533,-2.6533,-2.6533,-2.6533,-2.7249,-2.7572,-2.7572,-2.7715,-2.7793,-2.7793,-2.7145,-2.6879,-2.6866,-2.6728,-2.6666,-2.6747,-2.6829,-2.6879,-2.6949,-2.7214,-2.7396,-2.778,0.0,0.0,0.0,0.0,0.0,0.0,0.0,0.0,0.0,0.0,0.0,-0.7777,-0.7777,-0.7074,-0.6642,-0.6642,-0.6642,-0.6912,-0.767,-0.8013,-0.8484,-0.9163,-0.9506,-0.9421,-0.881,-0.8318,-0.806,-0.8006,-0.7167,-0.7177,-0.7962,-0.7177,-0.7242,-0.8091,-0.8947,-0.9786,-1.0624,-1.0624,-1.0624,-1.0624,-1.0624,0.0,0.0,0.0,0.0,0.0,0.0,0.0,0.0,0.0,0.0,0.0,0.0,0.0,0.0,0.0,0.0,0.0,0.0,0.0,0.0,0.0,0.0,0.0,0.0,0.0,0.0,0.0,0.0,0.0,0.0,0.0,0.0,0.0,0.0,0.0,0.0,0.0,0.0,-2.3891,-2.3979,0.0,0.0,0.0,0.0,-2.5511,-2.5524,-2.5828,-2.6395,-2.6414,-2.644,-2.644,-2.6452,-2.6533,-2.6533,-2.6533,-2.6533,-2.6533,-2.7062,-2.7314,-2.7326,-2.7855,-2.8094,-2.8094,-2.8021,-2.8021,-2.7984,-2.7457,-2.7243,-2.7293,-2.7821,-2.8021,-2.8154,-2.9034,-2.9832,-3.0715,0.0,0.0,0.0,0.0,0.0,-0.8804,-0.8804,-0.8791,-0.8579,-0.7984,-0.7687,-0.7371,-0.702,-0.6308,-0.5873,-0.5873,-0.5496,-0.555,-0.6249,-0.7067,-0.7824,-0.8503,-0.8921,-0.8851,-0.8281,-0.7529,-0.7177,-0.7177,-0.6268,-0.6013,-0.6338,-0.6013,-0.6334,-0.7177,-0.7502,-0.8086,-0.9,-1.0104,-1.0624,-1.0624,-1.0624,-1.0624,0.0,0.0,0.0,0.0,0.0,0.0,0.0,0.0,0.0,0.0,0.0,0.0,0.0,0.0,0.0,0.0,0.0,0.0,0.0,0.0,0.0,0.0,0.0,0.0,0.0,0.0,0.0,0.0,0.0,0.0,0.0,0.0,0.0,0.0,0.0,0.0,0.0,-2.4456,-2.482,0.0,-2.531,-2.5661,-2.598,-2.619,-2.619,-2.6261,-2.6508,-2.6533,-2.6533,-2.6533,-2.6793,-2.7018,-2.7009,-2.7381,-2.7519,-2.7519,-2.772,-2.7808,-2.7821,-2.8009,-2.8109,-2.8109,-2.8109,-2.8109,-2.8109,-2.8285,-2.8134,-2.7833,-2.8034,-2.8109,-2.817,-2.8507,-2.9183,-3.0063,0.0,0.0,0.0,-0.5725,-0.7481,-0.8804,-0.8804,-0.8811,-0.8318,-0.7079,-0.6907,-0.6722,-0.6258,-0.5601,-0.5164,-0.5164,-0.4732,-0.4812,-0.558,-0.6331,-0.7175,-0.7952,-0.8027,-0.7927,-0.7567,-0.6724,-0.6268,-0.6268,-0.5686,-0.5428,-0.5428,-0.5428,-0.5686,-0.6268,-0.6588,-0.7046,-0.7637,-0.9156,-0.993,-1.0174,-1.0498,-1.0624,-1.0631,0.0,0.0,0.0,0.0,0.0,0.0,0.0,0.0,0.0,0.0,0.0,0.0,0.0,0.0,0.0,0.0,0.0,0.0,0.0,0.0,0.0,0.0,0.0,0.0,0.0,0.0,0.0,0.0,0.0,0.0,0.0,0.0,0.0,0.0,0.0,-2.4481,-2.5021,-2.5385,-2.5674,-2.5875,-2.6239,-2.6533,-2.6533,-2.6533,-2.6533,-2.6533,-2.6673,-2.6776,-2.6776,-2.7259,-2.7605,-2.7585,-2.7959,-2.8109,-2.8109,-2.8298,-2.8386,-2.8398,-2.8586,-2.8674,-2.8674,-2.8674,-2.8674,-2.8699,-2.9063,-2.9001,-2.8674,-2.9007,-2.9349,-2.9626,-2.996,-3.0516,-3.113,0.0,-0.4525,-0.4541,-0.4599,-0.6956,-0.8804,-0.8811,-0.8811,-0.8086,-0.6114,-0.5842,-0.5773,-0.5487,-0.4893,-0.4519,-0.4519,-0.4519,-0.486,-0.5702,-0.6062,-0.661,-0.7442,-0.7007,-0.6719,-0.6654,-0.5815,-0.5428,-0.5435,-0.5435,-0.5435,-0.5442,-0.5442,-0.5442,-0.5442,-0.6284,-0.6671,-0.6749,-0.7745,-0.8589,-0.9297,-1.02,-1.0518,-1.0551,0.0,0.0,0.0,0.0,0.0,0.0,0.0,0.0,0.0,0.0,0.0,0.0,0.0,0.0,0.0,0.0,0.0,0.0,0.0,0.0,0.0,0.0,0.0,0.0,0.0,0.0,0.0,0.0,0.0,0.0,0.0,0.0,0.0,-2.4781,-2.4781,-2.5034,-2.5561,-2.5624,-2.585,-2.6471,-2.6533,-2.6533,-2.6533,-2.6533,-2.6546,-2.6546,-2.7065,-2.7284,-2.7323,-2.7879,-2.8139,-2.8134,-2.8147,-2.816,-2.816,-2.8699,-2.895,-2.8976,-2.9528,-2.9792,-2.9792,-2.9792,-2.9792,-2.9792,-2.9792,-2.9792,-2.9934,-3.0833,-3.1742,-3.2664,-3.3602,-3.3959,-3.4163,-0.4519,-0.4525,-0.5159,-0.7231,-0.8253,-0.8824,-0.8818,-0.8824,-0.7865,-0.5225,-0.4875,-0.4846,-0.4787,-0.4625,-0.4519,-0.4519,-0.4519,-0.464,-0.4966,-0.5766,-0.6428,-0.6888,-0.6755,-0.6396,-0.5752,-0.5491,-0.5416,-0.5528,-0.5528,-0.5579,-0.5681,-0.5681,-0.5681,-0.5681,-0.5955,-0.6021,-0.6098,-0.7049,-0.7534,-0.7757,-0.8643,-0.8985,-0.899,0.0,0.0,0.0,0.0,0.0,0.0,0.0,0.0,0.0,0.0,0.0,0.0,0.0,0.0,0.0,0.0,0.0,0.0,0.0,0.0,0.0,0.0,0.0,0.0,0.0,0.0,0.0,0.0,0.0,0.0,0.0,-2.2455,-2.3663,-2.4302,-2.4975,-2.5586,-2.6151,-2.6226,-2.6289,-2.6508,-2.6533,-2.6665,-2.7036,-2.7049,-2.7263,-2.7636,-2.7804,-2.7859,-2.7907,-2.8405,-2.871,-2.8699,-2.9114,-2.9327,-2.9327,-2.9478,-2.9553,-2.9566,-2.9716,-2.9792,-2.9792,-2.9792,-2.9792,-2.9792,-2.9792,-3.0216,-3.0833,-3.1106,-3.1389,-3.1669,-3.2664,-3.3449,-3.4163,-0.4519,-0.4481,-0.54,-0.8298,-0.8811,-0.8811,-0.8791,-0.7776,-0.6372,-0.4743,-0.4498,-0.4519,-0.4519,-0.4519,-0.4519,-0.4519,-0.4577,-0.4623,-0.4775,-0.5467,-0.593,-0.6129,-0.6141,-0.5947,-0.5428,-0.5423,-0.5501,-0.5589,-0.565,-0.5722,-0.58,-0.58,-0.58,-0.58,-0.58,-0.58,-0.5806,-0.6371,-0.6619,-0.6699,-0.7273,-0.7857,-0.8413,-0.8502,-0.9177,-1.0055,-0.973,-1.0563,-1.17,-1.1313,0.0,0.0,0.0,0.0,0.0,0.0,0.0,0.0,0.0,0.0,0.0,0.0,0.0,0.0,0.0,0.0,0.0,0.0,0.0,0.0,0.0,0.0,0.0,0.0,-2.2883,-2.3979,-2.4483,-2.5394,-2.6088,-2.6483,-2.6533,-2.6622,-2.6779,-2.6804,-2.705,-2.7623,-2.7615,-2.7804,-2.8066,-2.8311,-2.8472,-2.8472,-2.8991,-2.926,-2.9289,-2.9628,-2.9792,-2.9792,-2.9792,-2.9792,-2.9792,-2.9792,-2.9792,-2.9792,-2.9792,-2.9792,-2.9869,-3.0203,-3.0696,0.0,0.0,0.0,0.0,0.0,-3.4192,-3.4691,-0.4519,-0.4491,-0.5307,-0.7889,-0.8603,-0.8798,-0.8811,-0.6333,-0.4497,-0.4522,-0.4498,-0.4519,-0.4519,-0.4519,-0.4519,-0.4519,-0.4602,-0.4762,-0.4931,-0.5206,-0.5428,-0.5428,-0.5428,-0.5435,-0.5452,-0.5518,-0.5606,-0.564,-0.5766,-0.5837,-0.5854,-0.5854,-0.5854,-0.5854,-0.5854,-0.5854,-0.5861,-0.6,-0.6057,-0.6067,-0.6207,-0.7061,-0.8212,-0.8398,-0.9202,-1.0042,-0.937,-1.0421,-1.1996,-1.1075,0.0,0.0,0.0,0.0,0.0,0.0,0.0,0.0,0.0,0.0,0.0,0.0,0.0,0.0,0.0,0.0,0.0,0.0,0.0,0.0,0.0,0.0,0.0,0.0,-2.3441,-2.4707,-2.4779,-2.563,-2.6308,-2.6465,-2.6584,-2.6753,-2.7231,-2.7389,-2.7601,-2.8122,-2.8176,-2.8225,-2.8297,0.0,0.0,0.0,0.0,-2.9792,-2.9792,-2.9792,-2.9792,-2.9792,-2.9792,-2.9792,-2.9792,-2.9792,-2.9792,-2.9792,-2.9934,-2.9934,-2.9998,-3.097,-3.1389,-3.1609,-3.2464,-3.331,-3.4245,-3.5133,-3.5504,-3.5504,-0.4519,-0.4491,-0.4689,-0.5249,-0.7263,-0.8824,-0.8802,-0.6367,-0.4504,-0.4501,-0.4515,-0.4519,-0.4519,-0.4519,-0.4519,-0.4519,-0.4602,-0.4806,-0.5074,-0.526,-0.5428,-0.5428,-0.5428,-0.542,-0.5542,-0.5576,-0.5705,-0.5945,-0.5973,-0.6051,-0.6173,-0.6173,-0.6173,-0.6173,-0.6173,-0.6173,-0.6173,-0.6203,-0.6217,-0.6217,-0.6247,-0.6451,-0.6703,-0.6732,-0.7423,-0.8259,-0.8147,-0.9362,-1.1075,-1.0861,-1.1483,-1.2305,-1.2305,-1.2808,0.0,0.0,0.0,0.0,0.0,0.0,0.0,0.0,0.0,0.0,0.0,0.0,0.0,0.0,0.0,0.0,0.0,0.0,0.0,-2.0847,-2.1821,-2.285,-2.3672,-2.4317,-2.5093,-2.6364,-2.6854,-2.7168,-2.7268,-2.7662,-2.8181,-2.8669,-2.875,-2.8995,-2.9437,-2.9549,-2.9651,-2.9651,-2.9767,-2.9792,-2.9792,-2.9792,-2.9792,-2.9792,0.0,0.0,-2.9792,-2.9792,-2.9792,-2.9856,-3.062,-3.0895,-3.097,-3.196,-3.282,-3.3449,-3.3671,-3.4327,-3.5213,-3.5439,-3.5504,-3.5504,-0.4519,-0.4505,-0.4488,-0.4525,-0.5684,-0.6879,-0.7575,-0.5873,-0.4522,-0.4512,-0.4519,-0.4519,-0.4519,-0.5128,-0.5554,-0.5526,-0.5545,-0.5435,-0.523,-0.5318,-0.5428,-0.5428,-0.5428,-0.5433,-0.5586,-0.5657,-0.5803,-0.603,-0.6108,-0.6183,-0.6338,-0.6338,-0.6338,-0.6338,-0.6338,-0.6338,-0.6338,-0.6338,-0.6338,-0.6338,-0.6338,-0.6338,-0.6338,-0.6338,-0.6945,-0.7706,-0.7249,-0.8685,-1.0708,-1.0226,-1.1063,-1.2305,-1.2305,-1.2633,-1.3226,0.0,0.0,0.0,0.0,0.0,0.0,0.0,0.0,0.0,0.0,0.0,0.0,0.0,0.0,-2.0303,-2.0527,0.0,-2.0789,-2.1221,-2.1855,-2.2907,-2.4464,-2.4536,-2.5125,-2.6706,-2.6915,-2.7189,-2.8009,-2.8318,-2.8733,-2.9302,-2.9333,-2.95,-2.9754,-2.9792,-2.9792,-2.9792,-2.9792,-2.9792,-2.9792,-2.9792,-2.9792,-2.9792,-2.9792,-3.0075,-3.0482,-3.0482,-3.0771,-3.1193,-3.1683,-3.1888,-3.196,-3.289,-3.3891,-3.4758,-3.4758,-3.5067,-3.5504,-3.5504,-3.5504,-3.5504,-0.4519,-0.4519,-0.4508,-0.4481,-0.4583,-0.5031,-0.6014,-0.5378,-0.4703,-0.4512,-0.4519,-0.4515,-0.4508,-0.5513,-0.6396,-0.6822,-0.6567,-0.6213,-0.5675,-0.5491,-0.5428,-0.5428,-0.5428,-0.5433,-0.5586,-0.5728,-0.5878,-0.603,-0.6183,-0.6338,-0.6338,-0.6338,-0.6338,-0.6338,-0.6338,-0.6338,-0.6338,-0.6338,-0.6338,-0.6338,-0.6338,-0.6338,-0.6338,-0.6338,-0.6795,-0.7403,-0.6795,-0.8309,-1.0421,-0.982,-1.0801,-1.2305,-1.2305,-1.2305,-1.2472,-1.3483,-1.3761,0.0,0.0,0.0,0.0,0.0,0.0,0.0,0.0,0.0,-2.0566,-2.0566,-2.0566,-2.0566,-2.0566,-2.0566,-2.0886,-2.1717,-2.219,-2.3062,-2.5044,-2.4725,-2.5026,-2.6773,-2.6805,-2.7239,-2.875,-2.8975,-2.9277,-2.9754,-2.9792,-2.9792,-2.9792,-2.9792,-2.9792,-2.9792,-2.9792,-2.9792,-2.9792,-2.9792,-2.9792,-2.9792,-2.9998,-3.0482,-3.118,-3.1389,-3.1888,-3.2593,-3.282,-3.2961,-3.3255,-3.3959,-3.4758,-3.5504,-3.5504,-3.5504,-3.5504,-3.5504,-3.5504,-3.5504,-0.4519,-0.4519,-0.4515,-0.4512,-0.4995,-0.5214,-0.4791,-0.5336,-0.5441,-0.4625,-0.4519,-0.4505,-0.4474,-0.4663,-0.5667,-0.8066,-0.7107,-0.6464,-0.658,-0.5815,-0.5428,-0.5428,-0.5428,-0.5433,-0.5586,-0.5728,-0.5878,-0.603,-0.6183,-0.6338,-0.6338,-0.6338,-0.6338,-0.6338,-0.6338,-0.6338,-0.6338,-0.6338,-0.6338,-0.6338,-0.6338,-0.6338,-0.6338,-0.6338,-0.6338,-0.6567,-0.7326,-0.8408,-0.9559,-1.0351,-1.1391,-1.2305,-1.2305,-1.2305,-1.2553,-1.3748,-1.4116,-1.4393,-1.5599,-1.7002,-1.8177,-1.8366,-1.9457,-2.0498,0.0,0.0,-2.0566,-2.0566,-2.0566,-2.0566,-2.0566,-2.0566,-2.0771,-2.1243,-2.1351,-2.189,-2.3345,-2.3104,-2.3515,-2.5529,-2.6628,-2.7649,-2.8775,-2.9403,-2.9704,-2.9779,-2.9792,-2.9792,-2.9792,-2.9792,-2.9792,-2.9792,-2.9792,-2.9792,-2.9792,-2.9792,-2.9792,-2.9792,-3.062,-3.1106,-3.1254,-3.2033,-3.2536,-3.2664,-3.3449,-3.4327,-3.5213,-3.5279,-3.5424,-3.5504,-3.5504,-3.5504,-3.5504,-3.5504,-3.5504,-3.5504,-0.4519,-0.4519,-0.4519,-0.4519,-0.4732,-0.4842,-0.4519,-0.4846,-0.4956,-0.4574,-0.4519,-0.4512,-0.4498,-0.4509,-0.5839,-0.9073,-0.8432,-0.7495,-0.678,-0.5881,-0.5428,-0.5428,-0.5428,-0.5433,-0.5586,-0.5647,-0.5749,-0.5895,-0.6051,-0.6125,-0.6129,-0.6217,-0.6338,-0.6338,-0.6338,-0.6338,-0.6338,-0.6338,-0.6338,-0.6338,-0.6338,-0.6338,-0.6338,-0.6338,-0.6338,-0.6412,-0.7403,-0.8484,0.0,-1.0449,-1.149,-1.2305,-1.2553,-1.256,-1.2721,-1.3402,-1.3586,-1.3909,-1.5242,-1.6171,-1.7103,0.0,-1.9155,-1.9835,-2.0479,-2.0566,-2.0566,-2.0566,-2.0566,-2.0644,-2.0908,-2.0957,-2.1103,0.0,-2.1816,-2.2353,-2.3637,-2.3815,-2.4409,-2.5915,-2.7126,-2.793,-2.8366,-2.9235,-2.9792,-2.9792,-2.9792,-2.9792,-2.9792,-2.9792,-2.9792,-2.9792,-2.9792,-2.9792,-2.9792,-2.9792,-2.9792,-2.9792,-3.0758,-3.1462,-3.2033,-3.2961,-3.3754,-3.4341,-3.4691,-3.5133,-3.5504,-3.5504,-3.5504,-3.5504,-3.5504,-3.5504,-3.5504,-3.5504,-3.5504,-3.5504,-0.4519,-0.4519,-0.4519,-0.4519,-0.4519,-0.4519,-0.4519,-0.4519,-0.4519,-0.4519,-0.4519,-0.4515,-0.4505,-0.5205,-0.6876,-0.9917,-0.9302,-0.8259,-0.6902,-0.5943,-0.5428,-0.5428,-0.5428,-0.5413,-0.5525,-0.5569,-0.564,-0.5742,-0.5935,-0.603,-0.6034,-0.6186,-0.6338,-0.6338,-0.6338,-0.6338,-0.6338,-0.6338,-0.6338,-0.6338,-0.6338,-0.6338,-0.6338,-0.6338,-0.6493,-0.6953,-0.7859,-0.8708,-0.964,-1.0917,-1.1887,-1.256,-1.2808,-1.2873,-1.2966,-1.323,-1.3407,-1.3665,-1.4719,0.0,0.0,-1.806,-1.8798,-1.9283,-2.0323,-2.0566,-2.0596,-2.0723,-2.0752,-2.0889,-2.1338,-2.1416,-2.1553,-2.1982,-2.2314,-2.2794,-2.3719,-2.4418,-2.5126,-2.5959,-2.7294,-2.8122,-2.8096,-2.913,-2.9792,-2.9792,-2.9792,-2.9792,-2.9792,-2.9792,-2.9792,-2.9792,-2.9792,-2.9792,-2.9792,-2.9792,-2.9934,-3.0216,-3.1119,-3.2105,-3.3031,-3.3959,-3.4839,-3.5504,-3.5504,-3.5504,-3.5504,-3.5504,-3.5504,-3.5504,-3.5504,-3.5619,-3.5782,-3.5782,-3.5782,-3.5782,-0.4519,-0.4519,-0.4519,-0.4519,-0.4519,-0.4519,-0.4519,-0.4519,-0.4519,-0.4519,-0.4519,-0.4505,-0.4525,-0.6996,-0.9168,-1.05,-0.9474,-0.8343,-0.7187,-0.5997,-0.5428,-0.5428,-0.5428,-0.5428,-0.5435,-0.5515,-0.5593,-0.5596,-0.5888,-0.603,-0.6034,-0.6186,-0.6338,-0.6338,-0.6338,-0.6338,-0.6338,-0.6338,-0.6338,-0.6338,-0.6338,-0.6338,-0.6338,-0.6338,-0.7111,-0.834,-0.9003,-0.9463,-1.0008,-1.2048,-1.2896,-1.3145,-1.3145,-1.3192,0.0,-1.3549,-1.386,-1.4088,0.0,0.0,-1.5944,-1.709,-1.8149,-1.9283,-2.0323,-2.0566,-2.0684,-2.1123,-2.1211,-2.1348,-2.1787,-2.1865,-2.2002,-2.2432,-2.251,-2.2656,-2.3057,-2.4072,-2.479,-2.4867,-2.6769,-2.8122,0.0,-2.913,-2.9792,-2.9792,-2.9792,-2.9792,-2.9792,-2.9792,-2.9792,-2.9792,-2.9792,-2.9792,-2.9792,-2.9792,-3.0279,-3.118,-3.2105,-3.3031,-3.4027,-3.4986,-3.5439,-3.5504,-3.5504,-3.5504,-3.5504,-3.5504,-3.5504,-3.5504,-3.5504,-3.5943,-3.6554,-3.6554,-3.6554,-3.6554,-0.4473,-0.4522,-0.4519,-0.4519,-0.4519,-0.4519,-0.4519,-0.4519,-0.4519,-0.4519,-0.4519,0.0,0.0,0.0,0.0,0.0,-0.979,-0.9337,-0.7822,-0.6286,-0.538,-0.538,-0.5411,-0.5428,-0.5428,-0.5413,-0.544,-0.544,-0.5661,-0.5805,-0.5808,-0.6139,-0.6338,-0.6338,-0.6338,-0.6338,-0.6338,-0.6338,-0.6338,-0.6338,-0.6338,-0.6338,-0.6335,-0.6304,-0.6597,-0.7291,0.0,-1.0494,-1.0965,-1.2498,-1.316,-1.3211,-1.3393,0.0,0.0,-1.3802,-1.399,-1.4088,-1.4088,0.0,-1.4901,-1.5951,-1.709,-1.8149,-1.9274,-2.0308,-2.1055,-2.1201,-2.1465,-2.1797,-2.2217,-2.2305,-2.2441,-2.2861,-2.293,-2.3221,-2.4082,-2.5186,-2.5921,-2.5921,-2.7839,0.0,0.0,0.0,0.0,-2.9792,-2.9792,-2.9792,-2.9792,-2.9792,-2.9792,-2.9792,-2.9792,-2.9792,-2.9792,-3.0419,-3.0895,-3.1254,-3.282,-3.4027,-3.4986,-3.5359,-3.5504,-3.5504,-3.5504,-3.5504,-3.5504,-3.5504,-3.5782,-3.6228,-3.6228,-3.6692,-3.7397,-3.7397,-3.7732,-3.806,0.0,-0.4473,-0.4522,-0.4519,-0.4519,0.0,0.0,0.0,0.0,0.0,0.0,0.0,0.0,0.0,0.0,0.0,0.0,-1.0137,-0.8972,-0.7297,-0.6078,-0.5404,-0.537,-0.5384,-0.5384,-0.5384,-0.5384,-0.5384,-0.5503,-0.5583,-0.5568,-0.6054,-0.6287,-0.6338,-0.6338,-0.6338,-0.6338,-0.6338,-0.6328,-0.6314,-0.6314,-0.6304,-0.6287,-0.6332,-0.7175,0.0,-0.9903,-1.1018,-1.2043,-1.304,-1.342,-1.3516,-1.3704,0.0,0.0,0.0,-1.4088,-1.4088,-1.4088,-1.4088,-1.4412,-1.5869,-1.6764,-1.7781,-1.9387,-2.0537,-2.1318,-2.1631,-2.1914,-2.2236,-2.2656,-2.2734,-2.2822,-2.3096,-2.3135,-2.3505,-2.4682,-2.5791,-2.6639,-2.7021,-2.8679,-2.9524,0.0,0.0,0.0,-2.9792,-2.9792,-2.9792,-2.9792,-2.9792,-2.9792,-2.9792,-2.9792,-2.9792,-2.9792,-3.0771,-3.1536,-3.2249,-3.3822,-3.4839,-3.5504,-3.5504,-3.5504,-3.5504,-3.5504,-3.5504,-3.5504,-3.5782,-3.6165,-3.66,-3.6919,-3.7499,-3.8189,-3.8189,-3.869,-3.9209,0.0,0.0,-0.4477,0.0,0.0,0.0,0.0,0.0,0.0,0.0,0.0,0.0,0.0,0.0,0.0,0.0,0.0,0.0,-1.0629,-0.9035,-0.7399,-0.5769,-0.5639,-0.5639,-0.5639,-0.5639,-0.5639,-0.5639,-0.5494,-0.5382,-0.5383,-0.6012,-0.6338,-0.6331,-0.6331,-0.6331,-0.6331,-0.6331,-0.6304,-0.6343,-0.6503,-0.663,-0.659,-0.6587,-0.8995,-1.2022,-1.0163,-1.1135,-1.342,0.0,0.0,0.0,0.0,0.0,0.0,0.0,0.0,-1.4088,-1.4088,-1.4088,-1.458,-1.6609,-1.7269,-1.8027,-2.0472,-2.1189,-2.1533,-2.2344,-2.2529,-2.2666,0.0,0.0,-2.3135,-2.3135,-2.3154,-2.3612,-2.4702,-2.5836,-2.7015,0.0,0.0,0.0,0.0,0.0,0.0,-2.9792,0.0,-2.9792,-2.9792,-2.9792,-2.9792,-2.9856,-2.9856,-2.9856,-2.9934,-3.0833,-3.2249,-3.4095,-3.5052,-3.5504,-3.5504,-3.5504,-3.5504,-3.5504,-3.5504,-3.5504,-3.5619,-3.6337,-3.6661,-3.6783,-3.7573,-3.8334,-3.9028,-3.9028,-3.9504,-4.0121,0.0,0.0,0.0,0.0,0.0,0.0,0.0,0.0,0.0,0.0,0.0,0.0,0.0,0.0,0.0,0.0,0.0,0.0,-1.0561,-1.0186,-0.9725,-0.9297,-0.9268,-0.9291,-0.9291,-0.9291,-0.9291,-0.9291,-0.6651,-0.5411,-0.5409,-0.6006,-0.6314,-0.6311,-0.6311,-0.6311,-0.6311,-0.6311,-0.6304,-0.6529,-0.957,-1.079,-1.0767,-1.0773,-1.1384,-1.2241,-1.1682,-1.3553,0.0,0.0,0.0,0.0,0.0,0.0,-1.4088,0.0,0.0,-1.4088,-1.4088,-1.4088,-1.425,-1.4741,-1.6399,-1.802,-1.8694,-2.0523,-2.2246,-2.2461,-2.2764,-2.3018,0.0,0.0,0.0,-2.3135,-2.3847,0.0,-2.5911,-2.6963,0.0,-2.9217,0.0,-2.9792,-2.9792,-2.9792,0.0,0.0,-2.9792,-2.9792,-2.9792,-2.9792,-3.0139,-3.0833,-3.0833,-3.1193,-3.1901,-3.282,-3.3891,-3.5133,-3.5359,-3.5504,-3.5504,-3.5504,-3.5504,-3.5504,-3.5504,-3.5846,-3.6322,-3.6492,-3.7306,-3.8325,-3.8525,-3.9433,-4.0606,-4.0606,-4.1081,-4.1728,0.0,0.0,0.0,0.0,0.0,0.0,0.0,0.0,0.0,0.0,0.0,0.0,0.0,0.0,0.0,0.0,0.0,0.0,0.0,-1.0623,-1.0577,-1.0628,-1.0604,-1.0624,-1.0624,-1.0624,-1.0624,-1.0624,-0.8668,-0.7659,-0.7711,-0.8543,-0.8927,-0.8911,-0.893,-0.8898,-0.8898,-0.8898,-0.8954,0.0,0.0,-1.2273,-1.2309,-1.2324,-1.2264,-1.2264,-1.233,0.0,0.0,0.0,0.0,-1.4179,-1.4663,-1.4473,-1.4088,-1.4088,0.0,-1.4088,-1.4088,-1.4088,-1.4226,-1.4792,-1.6492,-1.8221,-1.8965,-2.0939,-2.2568,-2.2754,-2.2969,0.0,-2.3135,0.0,0.0,0.0,0.0,0.0,-2.6936,-2.7702,-2.8509,0.0,-2.9792,0.0,-2.9792,-2.9792,-2.9792,0.0,-2.9792,-2.9792,-2.9792,-2.9792,-3.0203,-3.118,-3.118,-3.1815,-3.3171,-3.3739,-3.4476,-3.5504,-3.5504,-3.5504,-3.5504,-3.5846,-3.6006,-3.6006,-3.6368,-3.6768,-3.7144,-3.7483,-3.8351,-3.9457,-3.9797,-4.0618,-4.1677,-4.1677,-4.1931,-4.2286,0.0,0.0,0.0,0.0,0.0,0.0,0.0,0.0,0.0,0.0,-0.5109,-0.5941,0.0,0.0,0.0,0.0,0.0,0.0,0.0,0.0,-1.0602,-1.0611,-1.0624,-1.0624,-1.0624,-1.0624,-1.0624,-1.0624,-1.0571,-1.0601,-1.0644,-1.1594,-1.2164,-1.2315,-1.2264,-1.2322,-1.2273,-1.2273,-1.2296,-1.2284,-1.2284,-1.2573,-1.2994,0.0,-1.2324,-1.2376,-1.3127,0.0,0.0,0.0,-1.4508,-1.4601,-1.5317,-1.4853,-1.4088,-1.4088,-1.4186,-1.4284,-1.4284,-1.4467,-1.4937,-1.6096,-1.7415,-1.8761,-2.039,-2.1654,-2.2705,-2.3066,0.0,-2.3135,-2.3135,-2.3135,-2.3495,-2.4584,0.0,-2.576,-2.7789,-2.8232,-2.8725,-2.9664,-2.9792,-2.9792,-2.9792,-2.9792,-2.9792,-2.9792,-2.9792,-2.9792,-2.9792,-2.9934,-3.0495,-3.1536,-3.1683,-3.2536,-3.4177,-3.4177,-3.4624,-3.5504,-3.5504,-3.5504,-3.5504,-3.6275,-3.6615,-3.6661,-3.7456,-3.7927,-3.818,-3.8782,-3.961,-4.047,-4.1112,-4.1796,-4.2439,-4.2439,-4.2506,-4.2591,0.0,0.0,0.0,0.0,0.0,0.0,0.0,0.0,0.0,0.0,-0.5109,-0.5819,0.0,0.0,0.0,0.0,0.0,0.0,0.0,0.0,0.0,-1.0611,-1.0624,-1.0624,-1.0624,-1.0624,-1.0624,-1.0624,-1.0575,-1.0597,-1.0614,-1.083,-1.139,-1.2269,-1.2318,-1.2318,-1.2291,-1.2291,-1.2285,-1.2264,-1.2264,-1.4165,-1.6679,-1.3479,0.0,0.0,0.0,0.0,0.0,0.0,-1.67,-1.6453,-1.4853,-1.4271,-1.4088,-1.4088,-1.4754,-1.5437,-1.5437,-1.6331,-1.7355,-1.7637,-1.9081,-2.0492,-2.0811,-2.1947,0.0,0.0,-2.3135,-2.3135,-2.3135,-2.3135,-2.3495,-2.4584,0.0,0.0,0.0,0.0,-2.9549,0.0,0.0,0.0,0.0,0.0,0.0,0.0,-2.9792,-2.9792,-2.9792,-3.0558,-3.1756,-3.3449,-3.4327,-3.492,-3.5213,-3.5213,-3.5359,-3.5504,-3.5504,-3.5504,-3.5504,-3.6275,-3.6615,-3.6661,-3.7456,0.0,-3.9719,-3.9847,-4.0662,-4.1923,-4.2047,-4.2557,-4.3217,-4.3217,-4.3623,-4.4181,0.0,0.0,0.0,0.0,0.0,0.0,0.0,-0.4519,-0.4519,-0.4519,-0.4787,-0.5218,-0.5928,-0.7333,-0.8063,0.0,0.0,0.0,0.0,0.0,0.0,0.0,0.0,0.0,-1.0624,-1.0624,0.0,0.0,0.0,-1.0618,-1.0624,0.0,0.0,-1.3942,-1.4883,-1.5248,-1.5244,-1.5255,-1.5251,-1.5251,-1.5251,-1.6378,-1.7821,0.0,0.0,0.0,0.0,0.0,0.0,0.0,-1.9039,-1.8679,-1.6425,-1.4985,-1.4088,-1.4088,-1.4958,-1.6126,-1.6927,-1.7504,-1.8065,-1.8201,-1.954,-2.0977,-2.106,0.0,0.0,0.0,-2.3135,-2.3135,-2.3135,0.0,0.0,0.0,0.0,0.0,0.0,0.0,0.0,0.0,0.0,0.0,0.0,0.0,0.0,0.0,-3.0558,-3.0558,-3.0558,-3.1901,-3.3101,-3.3959,-3.4986,-3.5504,-3.5504,-3.5504,-3.5504,-3.5504,-3.5894,-3.6054,-3.6117,-3.7247,-3.7815,-3.7815,-3.8652,-3.964,-4.0679,-4.0679,-4.1564,-4.2878,-4.2878,-4.3335,-4.4067,-4.4397,-4.471,-4.5089,0.0,0.0,0.0,0.0,0.0,0.0,-0.4519,-0.4519,-0.4519,-0.4519,-0.4519,-0.468,-0.5218,-0.6578,-0.7509,0.0,0.0,0.0,0.0,0.0,0.0,0.0,0.0,0.0,0.0,0.0,0.0,0.0,0.0,0.0,0.0,0.0,0.0,0.0,0.0,0.0,-1.7988,-1.7966,-1.797,0.0,0.0,-1.8037,0.0,0.0,0.0,0.0,0.0,0.0,0.0,0.0,-2.0591,-2.0325,-1.8575,-1.6886,-1.5285,-1.4371,-1.4853,-1.6118,-1.7708,-1.8437,-1.8806,-1.9187,-2.0297,-2.1429,-2.1644,-2.2457,0.0,0.0,-2.3135,-2.3135,-2.3135,0.0,0.0,0.0,0.0,0.0,0.0,0.0,0.0,0.0,0.0,0.0,0.0,0.0,0.0,0.0,-3.1609,-3.1815,-3.1815,-3.3171,-3.4095,-3.4312,-3.5067,-3.5504,-3.5504,-3.5504,-3.5554,-3.5718,-3.6337,-3.6661,-3.6904,-3.8286,-3.8908,-3.8978,-3.9899,-4.0747,-4.1457,-4.161,-4.2472,-4.3673,-4.3673,-4.4045,-4.4682,-4.5267,-4.5511,-4.5597,0.0,0.0,0.0,0.0,0.0,0.0,-0.4519,-0.4519,-0.4519,-0.4519,-0.4519,-0.4515,-0.457,-0.5878,-0.6966,0.0,0.0,0.0,0.0,0.0,0.0,0.0,0.0,0.0,0.0,0.0,0.0,0.0,0.0,0.0,0.0,0.0,0.0,0.0,0.0,0.0,0.0,-1.8015,0.0,0.0,0.0,0.0,0.0,0.0,0.0,0.0,0.0,0.0,0.0,0.0,0.0,-2.0547,-2.0333,-2.0201,-1.9255,-1.5286,0.0,0.0,-1.6843,-1.9223,-2.1194,-2.1807,-2.2436,-2.2902,-2.2969,0.0,0.0,-2.3135,-2.3135,-2.3135,-2.3135,-2.397,0.0,0.0,0.0,-2.837,0.0,0.0,0.0,0.0,0.0,0.0,0.0,0.0,0.0,-3.118,-3.282,-3.3739,-3.3739,-3.3876,-3.4394,-3.5359,-3.5424,-3.5504,-3.5504,-3.5504,-3.5846,-3.6492,-3.6554,-3.6964,-3.769,-3.8525,-3.8908,-3.8995,-4.0452,-4.1525,0.0,-4.2929,-4.3707,-4.4468,-4.4468,-4.4519,-4.4682,-4.5267,-4.5511,-4.5597,0.0,0.0,0.0,0.0,0.0,0.0,-0.4519,-0.4519,-0.4519,-0.4519,-0.4519,-0.4519,-0.4519,-0.5386,-0.6253,-0.6966,-0.7723,0.0,0.0,0.0,0.0,0.0,0.0,0.0,0.0,0.0,-1.0584,-1.0573,0.0,0.0,0.0,0.0,0.0,0.0,0.0,0.0,0.0,0.0,0.0,0.0,0.0,0.0,0.0,0.0,0.0,0.0,0.0,0.0,0.0,0.0,0.0,0.0,-2.0566,-2.0576,0.0,0.0,-1.8006,-1.8175,-1.9056,-2.032,-2.1501,-2.1931,-2.2572,-2.3135,-2.3135,0.0,-2.3135,-2.3135,-2.3665,-2.4093,-2.4095,-2.507,-2.6211,-2.7252,-2.7801,0.0,0.0,0.0,0.0,0.0,0.0,0.0,0.0,0.0,0.0,-3.282,-3.4124,-3.4905,-3.4905,-3.4905,-3.5067,-3.5504,-3.5504,-3.5504,-3.5504,-3.5504,-3.5894,-3.6615,-3.71,-3.7732,-3.8469,-3.9262,-3.961,-3.9713,-4.0745,-4.1627,0.0,-4.3115,-4.3876,-4.4626,-4.4998,-4.5142,-4.5267,-4.6257,-4.6635,-4.6728,0.0,0.0,0.0,0.0,0.0,-0.448,-0.4525,-0.4519,-0.4519,-0.4519,-0.4519,-0.4519,-0.4519,-0.4893,-0.5601,-0.6534,-0.7289,0.0,0.0,0.0,0.0,0.0,0.0,0.0,0.0,0.0,-1.0836,-1.1327,-1.1764,-1.2028,0.0,0.0,0.0,0.0,0.0,0.0,0.0,0.0,0.0,0.0,0.0,0.0,0.0,0.0,0.0,0.0,0.0,0.0,0.0,0.0,0.0,0.0,0.0,0.0,0.0,0.0,-2.0613,-2.0611,-2.0627,-2.1025,-2.159,-2.1968,-2.2563,-2.3135,0.0,0.0,-2.3574,-2.3574,-2.4487,-2.5294,-2.5322,-2.624,-2.7243,-2.7975,-2.8366,-2.8876,-2.9664,0.0,0.0,0.0,0.0,0.0,0.0,0.0,-3.2678,-3.4327,-3.5133,-3.5504,-3.5504,-3.5504,-3.5504,-3.5504,-3.5504,-3.5504,-3.5504,-3.5733,-3.618,-3.6964,-3.7732,-3.8525,-3.9262,-3.9833,-4.007,-4.0121,-4.0882,-4.1627,0.0,-4.3297,-4.4153,-4.4906,-4.5545,-4.5783,-4.5915,-4.7017,-4.7385,-4.7488,0.0,0.0,0.0,0.0,0.0,-0.4494,-0.448,-0.4525,-0.4519,-0.4519,-0.4519,-0.4519,-0.4519,-0.4519,-0.5062,-0.648,-0.7289,0.0,0.0,0.0,0.0,0.0,0.0,0.0,-1.0599,-1.0615,-1.1353,-1.2951,-1.4551,-1.5369,-1.5298,-1.3758,-1.3874,0.0,0.0,0.0,0.0,0.0,0.0,0.0,0.0,0.0,0.0,0.0,0.0,0.0,0.0,0.0,0.0,0.0,0.0,0.0,0.0,-2.0566,-2.0566,0.0,-2.0566,-2.0566,-2.0576,-2.1194,-2.1977,-2.2252,-2.2715,-2.3135,0.0,-2.3965,-2.4791,-2.4791,-2.5722,-2.6464,-2.6472,-2.7384,-2.8071,-2.8104,-2.9028,-2.9792,-2.9792,0.0,0.0,0.0,0.0,0.0,0.0,0.0,-3.4394,-3.5439,-3.5504,0.0,-3.5504,-3.5504,-3.5504,-3.5504,-3.5504,-3.5504,-3.5504,-3.6212,-3.6964,-3.7822,-3.8525,-3.9315,-4.007,-4.0087,-4.007,-4.0121,-4.0882,-4.1627,0.0,-4.3803,-4.4801,-4.5545,-4.6143,-4.6383,-4.6478,-4.715,-4.7385,-4.7488,0.0,0.0,0.0,0.0,0.0,0.0,-0.4366,-0.4525,-0.4519,-0.4519,-0.4519,-0.4519,-0.4519,-0.4519,-0.4842,-0.5764,-0.6524,0.0,0.0,0.0,0.0,0.0,0.0,0.0,-1.0592,-1.0622,-1.137,-1.3005,-1.461,-1.5406,-1.5367,-1.4893,-1.4883,-1.5409,0.0,0.0,0.0,0.0,0.0,0.0,0.0,0.0,0.0,0.0,0.0,0.0,0.0,0.0,0.0,0.0,0.0,0.0,0.0,0.0,0.0,-2.0566,-2.0566,-2.0635,-2.0611,-2.1269,-2.1974,-2.2188,-2.2679,-2.3135,-2.3135,-2.3965,-2.4834,-2.4838,-2.6298,-2.7616,-2.7622,-2.853,-2.9229,-2.9263,-2.9534,-2.9792,0.0,0.0,0.0,0.0,0.0,0.0,0.0,0.0,-3.5133,-3.5504,-3.5504,-3.5504,-3.5504,-3.6006,-3.6275,-3.6275,-3.6275,-3.6523,-3.7071,-3.7279,-3.779,-3.858,-3.8799,-3.9315,-4.007,-4.007,-4.007,-4.0121,-4.0882,-4.1904,-4.3062,-4.4006,-4.5085,-4.6192,-4.6819,-4.7088,-4.715,-4.7797,-4.8035,-4.8035,0.0,0.0,0.0,0.0,0.0,0.0,-0.42,-0.4477,-0.4522,-0.4519,-0.4519,-0.4519,-0.4519,-0.4519,-0.4787,-0.5433,-0.6145,0.0,0.0,0.0,0.0,0.0,0.0,0.0,-1.0219,-1.0335,-1.1245,-1.3009,-1.3987,-1.4837,-1.5399,-1.54,-1.541,-1.539,-1.54,-1.5566,0.0,0.0,0.0,0.0,0.0,0.0,-1.8008,0.0,0.0,0.0,0.0,0.0,0.0,0.0,0.0,0.0,0.0,0.0,0.0,0.0,-2.0566,-2.0674,-2.0992,-2.1696,-2.2357,-2.2351,-2.2698,-2.3135,-2.3135,-2.3972,-2.4943,-2.5344,-2.6887,-2.8228,-2.8639,-2.9287,-2.9792,-2.9792,-2.9792,-2.9934,0.0,0.0,0.0,0.0,0.0,0.0,0.0,-3.4905,-3.5504,-3.5504,-3.5504,-3.5504,-3.5504,-3.6228,-3.6722,-3.7024,-3.7024,-3.7279,-3.7822,-3.8092,-3.8469,-3.8908,-3.9193,-3.961,-4.007,-4.007,-4.007,-4.0104,-4.0578,-4.1579,0.0,-4.3585,-4.4847,-4.6373,-4.7018,-4.7443,-4.7797,-4.8172,-4.8306,-4.8306,0.0,0.0,0.0,0.0,0.0,0.0,0.0,-0.4428,-0.4477,-0.4519,-0.4519,-0.4519,-0.4519,-0.4519,-0.4732,-0.5378,-0.6091,0.0,0.0,0.0,0.0,0.0,0.0,-0.9359,-0.9679,-0.9947,-1.1013,-1.2887,-1.2948,-1.3786,-1.5294,-1.5352,-1.541,-1.541,-1.541,-1.541,0.0,0.0,0.0,0.0,0.0,-1.8008,0.0,0.0,0.0,0.0,0.0,0.0,0.0,0.0,0.0,0.0,0.0,0.0,0.0,0.0,0.0,0.0,0.0,-2.2473,-2.2998,-2.267,-2.2852,-2.3135,-2.3135,-2.3963,0.0,-2.6307,-2.736,-2.8426,-2.9624,-2.9792,-2.9792,-2.9792,-2.9792,-3.0139,0.0,0.0,0.0,0.0,0.0,0.0,0.0,-3.4986,-3.5504,-3.5504,-3.5554,-3.5554,-3.5554,-3.6337,-3.7084,-3.7863,-3.7921,-3.7978,-3.7978,-3.8635,-3.8978,-3.8962,-3.9731,-4.007,-4.007,-4.007,-4.0121,0.0,-4.0171,-4.0959,-4.2258,-4.2829,-4.4282,-4.6223,-4.6813,-4.748,-4.8141,-4.8196,-4.8214,-4.8233,0.0,0.0,0.0,0.0,0.0,0.0,0.0,0.0,0.0,0.0,-0.4519,-0.4519,-0.4519,-0.4519,-0.457,0.0,0.0,0.0,0.0,0.0,0.0,0.0,-0.8871,-0.9152,-0.9673,-0.9753,-1.0559,-1.2081,-1.2704,-1.3494,-1.451,-1.5108,-1.541,-1.541,-1.541,-1.541,0.0,0.0,0.0,0.0,-1.7619,-1.8008,0.0,0.0,0.0,0.0,-1.8008,-1.8006,0.0,0.0,0.0,0.0,0.0,0.0,0.0,0.0,-2.0566,-2.082,-2.1634,0.0,-2.3079,-2.2948,-2.3066,-2.3135,0.0,-2.3963,-2.5126,0.0,0.0,-2.8426,-2.9624,-2.9792,-2.9792,-2.9792,-2.9792,-3.0139,0.0,0.0,0.0,0.0,0.0,0.0,0.0,-3.5359,-3.5504,-3.5504,-3.5991,-3.6337,-3.6337,-3.7642,-3.8453,-3.8635,-3.9209,-3.9558,-3.9558,-3.9731,-3.9833,-3.9833,-4.002,-4.007,-4.007,-4.007,-4.0336,-4.0685,-4.0685,-4.1751,-4.3483,-4.3647,-4.4603,-4.5973,-4.614,-4.6305,-4.6544,-4.7168,-4.7388,-4.748,0.0,0.0,0.0,0.0,0.0,0.0,0.0,0.0,0.0,0.0,-0.4525,-0.4522,-0.4519,-0.4519,-0.4519,0.0,0.0,0.0,0.0,0.0,0.0,-0.8804,-0.8804,-0.9018,-0.9472,-0.9613,-1.03,-1.154,-1.2188,-1.3053,-1.4213,-1.4628,-1.505,-1.541,-1.541,-1.541,0.0,0.0,0.0,-1.6567,-1.7589,0.0,0.0,0.0,0.0,0.0,-1.8008,-1.7988,0.0,-1.8021,-1.9145,-2.0626,0.0,0.0,0.0,0.0,-2.0566,-2.0762,-2.1641,-2.2446,-2.3266,-2.3725,-2.3877,-2.3877,-2.3877,0.0,0.0,0.0,0.0,0.0,-2.9534,-3.0139,0.0,-2.9856,-3.0495,0.0,0.0,0.0,0.0,0.0,0.0,0.0,0.0,-3.5504,-3.5504,-3.5504,-3.6165,-3.6615,-3.6615,-3.8044,-3.8908,-3.8908,-3.9662,-4.007,-4.007,-4.007,-4.007,-4.0121,-4.0319,-4.0449,-4.0497,-4.0767,-4.1013,-4.1313,-4.1313,-4.2083,-4.3343,-4.3343,-4.4122,-4.5351,-4.5351,-4.5571,-4.5957,-4.6397,-4.6562,-4.6654,0.0,0.0,0.0,0.0,0.0,0.0,0.0,0.0,0.0,0.0,0.0,0.0,0.0,0.0,0.0,0.0,0.0,0.0,0.0,0.0,-0.7723,-0.8593,-0.8752,-0.8965,-0.9243,-0.9552,-1.0186,-1.1174,-1.1569,-1.2565,-1.4025,-1.43,-1.4775,-1.541,-1.541,-1.541,-1.54,-1.5952,-1.6316,-1.6567,-1.7589,0.0,0.0,0.0,0.0,0.0,0.0,0.0,0.0,-1.7965,-1.9175,-2.0624,-2.0592,0.0,0.0,0.0,0.0,0.0,-2.1641,-2.2724,-2.3805,-2.464,-2.4787,-2.4872,-2.5041,0.0,0.0,0.0,0.0,0.0,0.0,0.0,0.0,0.0,0.0,0.0,0.0,0.0,0.0,0.0,0.0,0.0,-3.5504,-3.5619,-3.5668,-3.5668,-3.6446,-3.6948,-3.6948,-3.8342,-3.9086,-3.9086,-3.9714,-4.007,-4.007,-4.007,-4.007,-4.0138,-4.0577,-4.0827,-4.0903,-4.1446,-4.175,-4.1937,-4.1937,0.0,-4.2826,-4.2826,-4.3506,-4.4525,-4.4525,-4.4929,-4.5535,-4.5717,-4.5789,-4.5879,0.0,0.0,0.0,0.0,0.0,0.0,0.0,0.0,0.0,0.0,0.0,0.0,0.0,0.0,0.0,0.0,0.0,0.0,0.0,-0.5701,-0.6465,-0.783,-0.848,-0.9065,-0.9606,-0.9659,-1.0006,-1.0732,-1.1447,-1.2266,-1.3191,-1.4598,-1.5252,-1.541,-1.541,-1.541,-1.54,-1.5476,-1.5577,-1.5733,-1.7321,0.0,0.0,0.0,0.0,0.0,0.0,0.0,0.0,-1.7965,-1.9175,-2.0624,-2.0592,0.0,0.0,0.0,0.0,0.0,-2.1641,-2.3924,-2.5806,-2.503,-2.4787,-2.5041,-2.6058,0.0,0.0,0.0,0.0,0.0,0.0,0.0,0.0,0.0,0.0,0.0,0.0,0.0,0.0,0.0,0.0,-3.5504,-3.5504,-3.6054,-3.6446,-3.6446,-3.7758,-3.8564,-3.8564,-3.9437,-3.9901,-3.9901,-4.002,-4.007,-4.007,-4.007,-4.007,-4.007,-4.0154,-4.0449,-4.0903,-4.0995,-4.1578,-4.2577,0.0,-4.2884,-4.3375,-4.3375,-4.3483,-4.3681,-4.3681,-4.3754,-4.4007,-4.4967,-4.5287,-4.5443,0.0,0.0,0.0,0.0,0.0,0.0,0.0,0.0,0.0,0.0,0.0,0.0,0.0,0.0,0.0,0.0,0.0,0.0,0.0,-0.5324,-0.5814,-0.6465,-0.761,-0.8565,-0.9432,-0.9599,-0.9893,-1.0321,-1.0906,-1.1531,-1.2389,-1.4427,-1.5399,-1.541,-1.541,-1.541,-1.54,-1.5396,-1.5914,-1.6899,0.0,0.0,0.0,0.0,0.0,0.0,0.0,0.0,0.0,0.0,-1.9175,-2.0624,-2.0592,0.0,0.0,0.0,0.0,0.0,-2.2369,-2.4625,-2.6462,-2.6197,-2.6411,-2.6685,-2.7279,0.0,0.0,0.0,0.0,0.0,0.0,0.0,0.0,0.0,0.0,0.0,0.0,0.0,0.0,0.0,0.0,-3.5504,-3.5504,-3.6165,-3.6615,-3.6615,-3.8044,-3.8908,-3.8908,-3.9662,-4.007,-4.007,-4.007,-4.007,-4.007,-4.0368,-4.0368,-4.0121,-4.072,-4.115,-4.1402,-4.2026,-4.26,-4.3124,-4.3124,-4.325,-4.3497,-4.3497,-4.3497,-4.3513,-4.3693,-4.3772,-4.3841,-4.4606,-4.4992,-4.5236,0.0,0.0,0.0,0.0,0.0,0.0,0.0,0.0,0.0,0.0,0.0,0.0,0.0,0.0,0.0,0.0,0.0,0.0,0.0,-0.5003,-0.5324,-0.5487,-0.674,-0.7924,-0.9045,-0.9508,-0.986,-1.0221,-1.0448,-1.1052,-1.1973,-1.4291,-1.5427,-1.542,-1.542,-1.5399,-1.5396,-1.542,-1.6424,-1.7999,0.0,0.0,0.0,0.0,0.0,0.0,0.0,0.0,0.0,0.0,0.0,0.0,0.0,0.0,0.0,-2.0566,-2.0566,-2.0985,-2.2548,-2.4757,-2.6644,-2.6866,-2.7546,-2.8176,-2.8426,0.0,0.0,0.0,0.0,0.0,0.0,0.0,0.0,0.0,0.0,0.0,0.0,0.0,0.0,-3.5653,-3.5894,-3.6022,-3.6022,-3.6692,-3.7128,-3.7128,-3.8398,-3.9193,-3.9193,-3.9782,-4.007,-4.007,-4.007,-4.0171,-4.0286,-4.0703,-4.0703,-4.0286,-4.1331,-4.1895,-4.2021,-4.2903,-4.3375,-4.3497,-4.3497,-4.3497,-4.3532,-4.3597,-4.3631,-4.3646,-4.3986,-4.4175,-4.4271,-4.4587,-4.4919,-4.5222,0.0,0.0,0.0,0.0,0.0,0.0,0.0,0.0,0.0,0.0,0.0,0.0,0.0,0.0,0.0,0.0,0.0,0.0,-0.4519,-0.4574,-0.4842,-0.5487,-0.6258,-0.7289,-0.8627,-0.9318,-0.996,-1.0591,-1.0611,-1.1129,-1.2205,-1.4364,-1.5425,-1.5415,-1.5415,-1.5401,-1.5404,-1.542,-1.644,-1.7984,-1.7973,0.0,0.0,0.0,0.0,0.0,0.0,0.0,0.0,0.0,0.0,0.0,0.0,0.0,-2.0566,-2.0566,-2.0566,-2.0752,-2.1402,-2.4075,-2.6535,-2.6018,-2.6978,0.0,-2.9456,-2.9702,0.0,0.0,0.0,0.0,0.0,0.0,0.0,0.0,0.0,0.0,0.0,0.0,-3.6415,-3.6492,-3.716,-3.7648,-3.7648,-3.8302,-3.8728,-3.8728,-3.9542,-4.002,-4.002,-4.007,-4.007,-4.007,-4.007,-4.0319,-4.0827,-4.0856,-4.0856,-4.0856,-4.149,-4.208,-4.2655,-4.2732,-4.3014,-4.3497,-4.3497,-4.3497,-4.3513,-4.3836,-4.3955,-4.4016,-4.4419,-4.4732,-4.5011,-4.5052,-4.5282,-4.5568,0.0,0.0,0.0,0.0,0.0,0.0,0.0,0.0,0.0,0.0,0.0,0.0,0.0,0.0,0.0,0.0,0.0,0.0,-0.4519,-0.4519,-0.4625,-0.4842,-0.5546,-0.6281,-0.7106,-0.8786,-0.9973,-1.0624,-1.0624,-1.0836,-1.1188,-1.2066,-1.2435,-1.2432,-1.2429,-1.2453,-1.2465,-1.315,-1.3815,-1.4645,-1.7073,-1.659,0.0,0.0,0.0,0.0,0.0,0.0,0.0,0.0,-2.0029,-2.0631,-2.0635,-2.0605,-2.0566,-2.0566,-2.0566,-2.0848,-2.1824,-2.3985,-2.6053,-2.6228,0.0,0.0,0.0,0.0,0.0,0.0,0.0,0.0,0.0,0.0,0.0,0.0,0.0,0.0,0.0,-3.6102,-3.6615,-3.6615,-3.7338,-3.7822,-3.7822,-3.8469,-3.8908,-3.8908,-3.9662,-4.007,-4.007,-4.007,-4.007,-4.007,-4.04,-4.0703,-4.0903,-4.1621,-4.2021,-4.2021,-4.2262,-4.248,-4.2711,-4.3069,-4.3304,-4.3497,-4.3497,-4.3497,-4.3513,-4.3849,-4.4016,-4.4058,-4.4663,-4.5118,-4.5419,-4.5419,-4.5495,-4.5586,0.0,0.0,0.0,0.0,0.0,0.0,0.0,0.0,0.0,0.0,0.0,0.0,0.0,0.0,0.0,0.0,0.0,0.0,-0.4519,-0.4519,-0.4519,-0.4519,-0.5219,-0.5779,-0.6216,-0.832,-0.9691,-1.0174,-1.0498,-1.0577,-1.0615,-1.0615,-1.0574,-1.0575,-1.0588,-1.0775,-1.1183,-1.1983,-1.2304,-1.2529,-1.5141,-1.4617,0.0,0.0,0.0,0.0,0.0,0.0,0.0,0.0,-1.972,-1.8803,-2.0186,-2.0615,-2.0566,-2.0566,-2.0876,-2.1349,-2.2122,-2.3988,-2.5824,0.0,0.0,0.0,0.0,0.0,0.0,0.0,0.0,0.0,0.0,0.0,0.0,0.0,0.0,0.0,-3.5504,-3.6352,-3.6964,-3.6964,-3.7905,-3.8557,-3.8557,-3.8978,-3.9262,-3.9262,-3.9782,-4.007,-4.007,-4.0237,-4.0368,-4.0368,-4.0874,-4.1268,-4.149,-4.2302,-4.2788,-4.2939,-4.2939,-4.2939,-4.2976,-4.3321,-4.3497,-4.3497,-4.3497,-4.3563,-4.3679,-4.4046,-4.4299,-4.4568,-4.5055,-4.54,-4.5586,-4.5586,-4.5586,-4.5586,0.0,0.0,0.0,0.0,0.0,0.0,0.0,0.0,0.3408,0.0447,0.0,0.0,0.0,0.0,0.0,0.0,0.0,0.0,-0.4519,-0.4519,-0.4519,-0.4519,-0.5337,-0.5914,-0.616,-0.7873,-0.893,-0.9338,-1.0174,-1.0624,-1.0624,-1.0624,-1.0624,-1.0575,-1.0575,-1.1236,-1.2308,-1.2305,-1.2278,-1.227,-1.2325,-1.2298,-1.2328,0.0,0.0,0.0,0.0,0.0,0.0,0.0,-1.7716,-1.4925,-1.9232,-2.0566,-2.0566,-2.0566,-2.1522,-2.238,-2.2059,-2.385,0.0,0.0,0.0,0.0,0.0,0.0,0.0,0.0,0.0,0.0,0.0,0.0,0.0,0.0,0.0,-3.5504,-3.5504,-3.6829,-3.7822,-3.7822,-3.9172,-4.007,-4.007,-4.007,-4.007,-4.007,-4.007,-4.0121,-4.0121,-4.0625,-4.0903,-4.0903,-4.149,-4.208,-4.2693,-4.2711,-4.2976,-4.3497,-4.3497,-4.3497,-4.3497,-4.3479,-4.3479,-4.3479,-4.3532,-4.3693,-4.4046,-4.4447,-4.4988,-4.5586,-4.5586,-4.5586,-4.5586,-4.5586,-4.5586,-4.5586,0.0,0.0,0.0,0.0,0.0,0.0,0.0,0.0,0.4193,0.3294,0.1338,0.0,0.0,0.0,0.0,0.0,0.0,0.0,-0.4519,-0.4519,-0.4519,-0.4519,-0.4834,-0.5108,-0.5271,-0.6602,-0.827,-1.0238,-1.0498,-1.0624,-1.0624,-1.0624,-1.0591,-1.0581,-1.0568,-1.123,-1.2318,-1.2294,-1.2284,-1.2318,-1.2285,-1.2278,-1.2304,0.0,0.0,0.0,0.0,0.0,0.0,0.0,0.0,0.0,-2.0184,-2.0615,-2.0566,-2.0566,-2.0886,-2.1118,-2.1011,0.0,0.0,0.0,0.0,0.0,0.0,0.0,0.0,0.0,0.0,0.0,0.0,0.0,0.0,-3.4095,-3.4839,-3.5668,-3.6228,-3.716,-3.7978,-3.8525,-3.9506,-4.007,-4.007,-4.007,-4.007,-4.007,-4.007,-4.0237,-4.0655,-4.081,-4.1087,-4.1534,-4.2121,-4.2519,-4.2711,-4.305,-4.3321,-4.3497,-4.3497,-4.3497,-4.3532,-4.374,-4.3849,-4.3881,-4.4136,-4.4337,-4.4447,-4.4825,-4.5222,-4.5586,-4.5586,-4.5586,-4.5605,-4.5719,-4.5738,-4.5757,0.0,0.0,0.0,0.0,0.0,0.0,0.0,0.0,0.4473,0.448,0.2903,0.1338,0.0,0.0,0.0,0.0,0.0,0.0,-0.4525,-0.4525,-0.4522,-0.4519,-0.4667,-0.5058,-0.5583,-0.6351,-0.7627,-0.9582,-1.027,-1.0595,-1.0624,-1.0604,-1.0607,-1.0633,-1.1041,-1.1627,-1.2287,-1.2264,-1.2305,-1.2305,-1.2305,-1.2305,-1.2305,0.0,0.0,0.0,0.0,0.0,0.0,0.0,0.0,0.0,-2.0575,-2.0596,-2.0566,-2.0566,-2.0857,-2.1221,-2.168,0.0,0.0,0.0,0.0,0.0,0.0,0.0,0.0,0.0,0.0,0.0,0.0,0.0,0.0,-3.4999,-3.5578,-3.618,-3.698,-3.7732,-3.8414,-3.8854,-3.961,-4.007,-4.007,-4.007,-4.007,-4.007,-4.007,-4.0319,-4.0856,-4.1133,-4.1534,-4.2121,-4.2714,-4.3014,-4.3014,-4.3339,-4.3582,-4.3693,-4.3693,-4.3791,-4.3931,-4.3986,-4.4106,-4.4261,-4.4631,-4.48,-4.4806,-4.5161,-4.5419,-4.5586,-4.5586,-4.5624,-4.5699,-4.5776,-4.5819,-4.5838,0.0,0.0,0.4519,0.4519,0.0,0.0,0.0,0.0,0.4522,0.4477,0.448,0.3463,0.0,0.0,0.0,0.0,0.0,0.0,-0.4307,-0.4421,-0.448,-0.4539,-0.4775,-0.5439,-0.6584,-0.6593,-0.6981,-0.7897,-0.9655,-1.0514,-1.0575,-1.0568,-1.0639,-1.083,-1.1852,-1.2287,-1.2329,-1.2278,-1.2305,-1.2305,-1.2305,-1.2318,-1.2291,-1.2296,0.0,0.0,0.0,0.0,0.0,0.0,0.0,0.0,-2.0566,-2.0566,-2.0566,-2.0566,-2.1231,-2.2103,0.0,0.0,0.0,0.0,0.0,0.0,0.0,0.0,0.0,0.0,0.0,0.0,0.0,0.0,-3.4736,-3.6353,-3.6661,-3.6964,-3.7806,-3.8469,-3.8908,-3.9016,-3.9662,-4.007,-4.007,-4.0171,-4.0154,-4.0154,-4.0204,-4.0497,-4.1041,-4.1578,-4.2162,-4.2732,-4.325,-4.3497,-4.3497,-4.3548,-4.3693,-4.4016,-4.4046,-4.4261,-4.4631,-4.4261,-4.4318,-4.4707,-4.5011,-4.5159,-4.518,-4.5457,-4.5586,-4.5586,-4.5605,-4.5699,-4.5796,-4.5815,-4.5877,-4.591,0.0,0.0,0.4519,0.4519,0.0,0.0,0.0,0.0,0.0,0.0,0.0,0.0,0.0,0.0,0.0,0.0,0.0,0.0,-0.2679,-0.3802,-0.4587,-0.4711,-0.4931,-0.5233,-0.5683,-0.5686,-0.6075,-0.6981,-0.8694,-0.9899,-1.0604,-1.0594,-1.1109,-1.1969,-1.2186,-1.2319,-1.2298,-1.2278,-1.2305,-1.2305,-1.2305,-1.2276,-1.2309,-1.2285,-1.2872,0.0,0.0,0.0,0.0,0.0,0.0,0.0,-2.0566,-2.0566,-2.0566,-2.0566,-2.0712,-2.1078,0.0,0.0,0.0,0.0,0.0,0.0,0.0,0.0,0.0,0.0,0.0,0.0,0.0,-3.5785,-3.6151,-3.6538,-3.7144,-3.779,-3.858,-3.8799,-3.9139,-3.9782,-4.0003,-4.007,-4.007,-4.0497,-4.075,-4.075,-4.115,-4.1682,-4.2302,-4.244,-4.277,-4.3286,-4.3444,-4.3497,-4.3497,-4.374,-4.3924,-4.3998,-4.4318,-4.4657,-4.4988,-4.49,-4.5055,-4.5381,-4.5457,-4.5495,-4.5495,-4.5568,-4.5586,-4.5605,-4.5719,-4.5776,-4.5815,-4.5988,-4.6037,-4.6056,0.0,0.0,0.0,0.0,0.0,0.0,0.0,0.0,0.0,0.0,0.0,0.0,0.0,0.0,0.0,0.0,-0.0727,-0.1511,-0.2404,-0.3178,-0.4033,-0.4901,-0.505,-0.5203,-0.5425,-0.5428,-0.562,-0.6075,-0.7377,-0.8614,-0.9747,-1.0359,-1.0895,-1.1497,-1.2029,-1.2324,-1.2305,-1.2305,-1.2305,-1.2311,-1.2289,-1.227,-1.2343,-1.2968,-1.3546,-1.41,-1.4125,0.0,0.0,0.0,0.0,0.0,0.0,0.0,-2.0566,-2.0566,-2.0566,-2.0779,0.0,0.0,0.0,0.0,0.0,0.0,0.0,0.0,0.0,0.0,0.0,0.0,0.0,-3.6117,-3.6737,-3.7084,-3.7847,-3.8596,-3.9385,-3.9489,-3.961,-4.007,-4.007,-4.007,-4.007,-4.0577,-4.0903,-4.0903,-4.1446,-4.2062,-4.2655,-4.2711,-4.2939,-4.3479,-4.3497,-4.3497,-4.3497,-4.3818,-4.4106,-4.429,-4.4657,-4.5011,-4.5342,-4.5342,-4.5438,-4.5586,-4.5586,-4.5586,-4.5586,-4.5586,-4.5586,-4.5605,-4.5757,-4.5816,-4.5866,-4.6053,-4.6143,-4.6216,0.0,0.0,0.0,0.0,0.0,0.0,0.0,0.0,0.0,0.0,0.0,0.0,0.0,0.0,0.0,0.0,0.0,0.0,-0.2601,-0.2984,-0.3721,-0.5058,-0.5155,-0.523,-0.5425,-0.5428,-0.5428,-0.5428,-0.6296,-0.7247,-0.829,-0.9947,-1.0817,-1.092,-1.1846,-1.2305,-1.2305,-1.2305,-1.2325,-1.2317,-1.2296,-1.2453,-1.2693,-1.3729,-1.4063,-1.4125,-1.4092,-1.4065,-1.462,-1.8228,0.0,0.0,0.0,0.0,-2.0566,-2.0566,-2.0566,-2.0799,0.0,0.0,0.0,0.0,0.0,0.0,0.0,0.0,0.0,0.0,0.0,0.0,-3.5668,-3.6275,-3.7084,-3.7863,-3.8635,-3.9315,-4.002,-4.007,-4.007,-4.007,-4.0154,-4.0254,-4.0254,-4.0844,-4.1223,-4.1223,-4.175,-4.2324,-4.2826,-4.2826,-4.305,-4.3497,-4.3548,-4.3597,-4.3597,-4.3986,-4.4346,-4.4682,-4.503,-4.5322,-4.5586,-4.5586,-4.5586,-4.5586,-4.5586,-4.5586,-4.5586,-4.5605,-4.5624,-4.5643,-4.5796,-4.5887,-4.5958,-4.6093,-4.6188,-4.6308,0.0,0.0,0.0,0.0,0.0,0.0,0.0,0.0,0.0,0.0,0.4897,0.4522,0.0,0.0,0.307,0.0223,0.0,-0.0793,-0.2576,0.0,0.0,-0.5068,-0.5257,-0.5342,-0.5428,-0.5428,-0.5428,-0.5428,-0.6356,-0.6623,-0.6194,-0.9678,-1.1587,-1.2046,-1.2251,-1.2305,-1.2305,-1.2305,-1.2282,-1.2335,-1.2298,-1.2961,-1.3899,-1.4076,-1.409,-1.4126,-1.4075,-1.4065,-1.4152,-1.4806,-1.7476,0.0,0.0,0.0,-2.0566,-2.0566,-2.0566,-2.0868,0.0,0.0,0.0,0.0,0.0,0.0,0.0,0.0,0.0,0.0,0.0,-3.5668,-3.6337,-3.71,-3.7847,-3.8635,-3.9437,-3.9952,-4.007,-4.007,-4.007,-4.007,-4.0497,-4.078,-4.078,-4.181,-4.248,-4.248,-4.2958,-4.3321,-4.341,-4.341,-4.341,-4.3497,-4.3772,-4.3924,-4.3924,-4.4612,-4.4988,-4.5052,-4.5362,-4.5568,-4.5586,-4.5586,-4.5586,-4.5586,-4.5586,-4.5586,-4.5605,-4.5738,-4.5776,-4.5796,-4.5988,-4.6061,-4.6074,-4.6215,-4.6285,-4.6308,0.0,0.0,0.0,0.0,0.0,0.0,0.0,0.0,0.0,0.0,0.0,0.4897,0.0,0.4477,0.3946,0.264,0.0976,-0.0352,-0.1113,-0.3814,-0.5331,-0.5267,-0.5328,-0.5428,-0.5428,-0.5428,-0.5428,-0.5428,-0.5913,-0.6051,-0.588,-0.7494,-0.9735,-1.2284,-1.2271,-1.2305,-1.2311,-1.2309,-1.2283,-1.2337,-1.3021,-1.3595,-1.4131,-1.411,-1.4072,-1.4088,-1.4088,-1.4126,-1.4102,-1.4097,-1.6984,-2.0566,-2.0596,0.0,0.0,0.0,-2.0742,0.0,0.0,0.0,0.0,0.0,0.0,0.0,0.0,0.0,0.0,0.0,0.0,-3.6228,-3.6554,-3.7279,-3.8035,-3.8799,-3.961,-4.007,-4.007,-4.007,-4.0204,-4.048,-4.0733,-4.1041,-4.1358,-4.2203,-4.2711,-4.2711,-4.3214,-4.3563,-4.3772,-4.3772,-4.3881,-4.4125,-4.4252,-4.4337,-4.4337,-4.483,-4.5201,-4.5381,-4.5531,-4.5624,-4.5719,-4.5719,-4.5719,-4.5719,-4.5719,-4.5738,-4.5776,-4.5834,-4.5851,-4.5867,-4.605,-4.6103,-4.6124,-4.6245,-4.6308,-4.6308,0.0,0.0,0.0,0.0,0.0,0.0,0.0,0.0,0.0,0.0,0.0,0.0,0.0,0.0,0.0,0.0,0.208,0.0426,0.0,-0.2525,-0.4469,-0.5376,-0.5369,-0.5432,-0.5428,-0.5428,-0.5512,-0.5814,-0.5707,-0.5913,-0.6384,-0.6401,-0.7974,-1.0818,-1.1806,-1.2284,-1.2337,-1.2303,-1.2485,-1.283,-1.3743,-1.407,-1.4069,-1.4099,-1.4062,-1.4112,-1.4068,-1.4062,-1.4065,-1.407,-1.6643,-1.9778,-1.9938,-2.0215,0.0,0.0,0.0,0.0,0.0,0.0,0.0,0.0,0.0,0.0,0.0,0.0,0.0,0.0,-3.6228,-3.6722,-3.7128,-3.7658,-3.8318,-3.9086,-3.98,-4.0286,-4.0286,-4.0417,-4.0672,-4.1087,-4.1251,-4.1534,-4.1979,-4.2559,-4.2921,-4.3032,-4.3389,-4.3772,-4.4117,-4.4146,-4.429,-4.458,-4.4682,-4.4726,-4.4726,-4.5074,-4.5361,-4.5643,-4.5643,-4.5719,-4.5834,-4.5835,-4.5838,-4.5873,-4.5835,-4.5862,-4.5905,-4.5943,-4.5935,-4.5956,-4.6087,-4.6158,-4.6162,-4.6264,-4.6308,-4.6308,0.0,0.0,0.0,0.0,0.0,0.0,0.0,0.0,0.0,0.0,0.0,0.0,0.4677,0.4809,0.4783,0.4501,0.3009,0.1491,0.0064,-0.0198,-0.1804,-0.5243,-0.5379,0.0,-0.5428,-0.5428,-0.5963,-0.7001,-0.6209,-0.6367,-0.7405,-0.7916,-0.758,-0.6814,-1.0582,-1.2287,-1.2292,-1.2298,-1.2981,-1.3981,-1.4097,-1.4096,-1.4068,-1.4082,-1.4065,-1.4117,-1.4112,-1.4065,-1.409,-1.4069,-1.5591,-1.7582,-1.8292,-1.9066,-1.9842,0.0,0.0,0.0,0.0,0.0,0.0,0.0,0.0,0.0,0.0,0.0,0.0,0.0,-3.6554,-3.7068,-3.8509,-3.8799,-3.9086,-3.9901,-4.048,-4.0856,-4.0856,-4.1358,-4.1707,-4.175,-4.2262,-4.2616,-4.2655,-4.3124,-4.3579,-4.3924,-4.3955,-4.4165,-4.4553,-4.4553,-4.458,-4.458,-4.4919,-4.5074,-4.5074,-4.5419,-4.5663,-4.5796,-4.5796,-4.5834,-4.589,-4.5902,-4.5963,-4.608,-4.5941,-4.59,-4.5901,-4.6036,-4.6082,-4.6105,-4.625,-4.6287,-4.6287,-4.6308,-4.6308,-4.6308,0.0,0.0,0.0,0.0,0.0,0.0,0.0,0.0,0.0,0.0,0.0,0.0,0.0,0.4887,0.4897,0.4876,0.2378,0.0587,0.0066,0.0,-0.0602,-0.1873,-0.4164,-0.543,-0.5586,-0.559,-0.5793,-0.6283,-0.666,-0.7066,-0.7499,-0.7139,-0.6794,-0.6511,-1.0483,-1.2286,-1.2337,-1.3134,-1.3689,-1.4131,-1.413,-1.4085,-1.4088,-1.4088,-1.4065,0.0,0.0,0.0,0.0,-1.7365,-1.8177,-1.8404,-1.982,-2.0695,-2.1186,-2.189,-2.3071,-2.4509,0.0,0.0,0.0,0.0,0.0,0.0,0.0,0.0,0.0,0.0,-3.7024,-3.7674,-3.869,-3.8908,-3.9139,-3.9969,-4.0237,-4.0368,-4.0368,-4.0891,-4.1358,-4.175,-4.2342,-4.2826,-4.3178,-4.3375,-4.3548,-4.3679,-4.3881,-4.4175,-4.458,-4.4781,-4.5011,-4.5243,-4.5362,-4.5458,-4.5534,-4.5666,-4.5776,-4.5853,-4.5866,-4.591,-4.6026,-4.6036,-4.6098,-4.6236,-4.6171,-4.6153,-4.6167,-4.6206,-4.6242,-4.6234,-4.6284,-4.6308,-4.6308,-4.6308,-4.6308,-4.6308,0.0,0.0,0.0,0.0,0.0,0.9385,0.9385,0.9323,0.8968,0.7887,0.0,0.0,0.0,0.0,0.5416,0.5216,0.3115,0.1272,0.0067,0.0,0.0,0.0,-0.231,-0.4069,-0.5102,-0.5491,-0.5906,-0.6379,-0.7082,-0.7681,-0.811,-0.7534,-0.6962,-0.6433,-0.9075,-1.0363,-1.0734,-1.3095,0.0,-1.4096,0.0,-1.4088,-1.4082,0.0,0.0,0.0,0.0,0.0,0.0,0.0,-2.0279,-1.9515,-2.1053,-2.2281,-2.3217,-2.3247,-2.4346,-2.5709,-2.6792,0.0,0.0,0.0,0.0,0.0,0.0,0.0,0.0,-3.6584,-3.7456,-3.8092,-3.9102,-3.9315,-3.9489,-4.002,-4.0434,-4.0689,-4.0689,-4.1313,-4.1902,-4.2306,-4.2714,-4.3105,-4.3463,-4.3597,-4.3726,-4.3836,-4.4175,0.0,-4.4919,-4.514,-4.5381,-4.5663,-4.568,-4.5719,-4.5834,-4.5831,-4.5885,-4.5969,-4.5976,-4.6038,-4.6174,-4.6159,-4.6229,-4.6302,-4.6302,-4.6305,-4.6308,-4.6308,-4.6308,-4.6308,-4.6308,-4.6308,-4.6308,-4.6308,-4.6308,-4.6308,0.0,0.0,1.0622,0.9846,0.9751,0.9699,0.9699,0.9103,0.8634,0.8634,0.0,0.0,0.0,0.0,0.0,0.5449,0.5399,0.3907,0.0403,0.0134,0.0068,0.0,0.0,-0.1201,-0.3702,-0.5044,-0.6321,-0.743,-0.7389,-0.7997,-0.9221,-0.9382,-0.8358,-0.6499,-0.6377,-0.6576,-0.74,0.0,-1.4108,-1.4088,0.0,-1.4082,-1.4062,0.0,0.0,0.0,-1.9057,-2.0633,0.0,-2.1622,0.0,0.0,0.0,0.0,-2.5683,-2.5071,-2.6356,-2.8096,0.0,0.0,0.0,0.0,0.0,0.0,-3.2393,0.0,-3.4721,-3.7247,-3.7822,-3.8262,-3.9799,-4.0121,-4.0121,-4.0121,-4.1076,-4.1768,-4.181,-4.2772,-4.3497,-4.3497,-4.3479,-4.3479,-4.3513,-4.3804,-4.4175,-4.4553,-4.4919,-4.5243,-4.5568,-4.5605,-4.568,-4.5796,-4.5796,-4.5851,-4.5911,-4.591,-4.598,-4.6116,-4.6116,-4.6169,-4.6308,-4.631,-4.6297,-4.6308,-4.6308,-4.6308,-4.6308,-4.6308,-4.6308,-4.6308,-4.6308,-4.6289,-4.6289,-4.6289,-4.6289,-4.6289,0.0,1.1567,1.085,1.0629,1.0251,1.0,1.0,0.9991,0.9812,0.0,0.0,0.0,0.6707,0.6222,0.5795,0.56,0.5564,0.5194,0.4189,0.291,0.1568,0.0072,0.0,-0.0364,-0.1044,-0.4387,-0.6261,-0.6426,-0.7279,-0.7828,-0.8241,-1.0479,-1.1169,-1.0561,-0.8045,-0.694,-0.7401,-1.2108,0.0,-1.4088,-1.4088,-1.4099,0.0,0.0,0.0,0.0,0.0,-2.1371,-2.2391,0.0,-2.2119,-2.2839,0.0,0.0,-2.5576,-2.5953,-2.7035,-2.8096,-2.8096,0.0,0.0,0.0,0.0,0.0,-3.2249,-3.282,-3.3926,-3.7097,-3.7822,-3.8262,-3.9799,-4.0417,-4.0703,-4.0703,-4.0949,-4.1313,-4.175,-4.2462,-4.2939,-4.2939,-4.325,-4.3597,-4.3836,-4.3955,-4.4175,0.0,-4.4919,-4.514,-4.5222,-4.5553,-4.5757,-4.5796,-4.5841,-4.5932,-4.6026,-4.6028,-4.6096,-4.6236,-4.6236,-4.6267,-4.6308,-4.6303,-4.6306,-4.6308,-4.6308,-4.6308,-4.6308,-4.6308,-4.6308,-4.6287,-4.6192,-4.6164,-4.6131,-4.6049,-4.6001,-4.6001,1.3855,1.2981,1.2067,1.1373,1.1008,1.0718,1.0362,1.0448,1.0434,0.0,0.0,0.0,0.7017,0.6513,0.6161,0.5748,0.5688,0.5741,0.582,0.4867,0.3798,0.2662,0.096,0.0,0.0,-0.2429,-0.4515,-0.6119,-0.6857,-0.7423,-0.7974,-1.0504,-1.2037,-1.2637,-1.0832,-0.9976,-1.0208,0.0,0.0,0.0,-1.4092,0.0,0.0,-1.609,-1.8394,0.0,0.0,0.0,-2.3144,-2.3699,-2.4132,0.0,0.0,0.0,-2.6622,-2.7058,-2.7947,-2.8767,-2.8767,-2.9275,-2.9792,0.0,0.0,0.0,-3.2249,-3.3185,-3.4486,0.0,-3.8035,-3.8652,-3.985,-4.0385,-4.0703,-4.1223,-4.1268,-4.149,-4.208,-4.2675,-4.3069,-4.323,-4.3542,-4.3868,-4.4223,-4.4373,-4.4561,-4.4781,-4.5118,-4.5341,-4.5399,-4.5667,-4.5873,-4.593,-4.5955,-4.6057,-4.6173,-4.6173,-4.6222,-4.6308,-4.6308,-4.6308,-4.6308,-4.6308,-4.6273,-4.6227,-4.6227,-4.617,-4.612,-4.612,-4.6172,-4.6193,-4.6072,-4.6017,-4.6003,-4.5924,-4.5905,-4.5905,0.0,1.4572,1.3837,1.2312,1.2012,1.1663,1.0911,1.0792,1.0742,0.0,0.9939,0.8879,0.7412,0.7233,0.6889,0.6251,0.6057,0.6075,0.6161,0.6234,0.6243,0.627,0.2579,0.0307,0.0,0.0,-0.1845,-0.5608,-0.6126,-0.6891,-0.7928,-0.9606,-1.1275,-1.2931,-1.3695,-1.4079,-1.4117,0.0,0.0,-1.4132,-1.4144,-1.4358,0.0,0.0,-2.0614,-2.0661,-2.1352,-2.26,-2.4114,-2.5957,-2.6597,0.0,0.0,0.0,-2.8315,-2.8267,-2.9028,-2.9792,-2.9792,-2.9792,-2.9792,0.0,-3.0482,0.0,-3.2393,-3.3897,-3.5525,-3.7306,-3.8246,-3.9032,-3.9833,-4.0104,-4.0514,-4.1552,-4.1793,-4.2121,-4.2693,-4.3214,-4.3612,-4.3955,-4.4016,-4.4175,-4.4606,-4.4919,-4.5137,-4.514,-4.5457,-4.5678,-4.5806,-4.5871,-4.5988,-4.6103,-4.6108,-4.6171,-4.6308,-4.6308,-4.6308,-4.6308,-4.6308,-4.6288,-4.628,-4.628,-4.6208,-4.6075,-4.6063,-4.6003,-4.5901,-4.5901,-4.5958,-4.6061,-4.5941,-4.5887,-4.5892,-4.5873,-4.5873,-4.5873,1.6279,1.5571,1.4798,1.3888,1.3183,1.2545,1.1995,1.1911,1.1747,1.129,0.9782,0.8713,0.8473,0.7134,0.6861,0.8311,0.7803,0.745,0.7454,0.7454,0.7102,0.6318,0.4426,0.2352,0.0081,0.0,-0.0403,-0.1239,-0.4794,-0.673,-0.7015,-0.7427,-0.8765,-1.0904,-1.3134,-1.4128,-1.4102,0.0,0.0,-1.413,-1.409,0.0,-1.9416,-2.025,-2.0598,-2.123,-2.6207,-2.8246,-2.8381,-2.7603,-2.738,-2.7625,0.0,0.0,0.0,-2.9465,-2.9624,-2.9792,-2.9792,0.0,0.0,0.0,0.0,0.0,-3.2393,-3.3435,-3.4707,0.0,-3.744,-3.8246,-3.8978,-4.0035,-4.0827,-4.1041,-4.1895,-4.2732,-4.325,-4.3444,-4.3612,-4.3955,-4.4016,-4.4243,-4.4943,-4.5052,-4.5222,-4.5495,-4.5664,-4.5808,-4.5869,-4.5993,-4.6065,-4.6103,-4.6188,-4.6278,-4.6308,-4.6308,-4.6308,-4.6308,-4.6308,-4.6236,-4.6129,-4.6129,-4.6074,-4.5928,-4.5943,-4.5924,-4.5893,-4.5835,-4.5863,-4.593,-4.5841,-4.5825,-4.5815,-4.5699,-4.5643,-4.5643,1.7688,1.6846,1.6018,1.5248,1.4646,1.4038,1.3324,1.2833,1.2447,1.2144,1.1045,0.9905,0.9161,0.868,0.8599,0.9129,0.8951,0.8768,0.8768,0.8313,0.7573,0.6461,0.5743,0.4725,0.3385,0.1152,0.0083,0.0167,-0.3387,-0.5721,-0.6841,-0.7539,-0.81,-0.8781,-1.2437,-1.4091,-1.4077,0.0,-1.5382,-1.7307,-1.7309,0.0,-2.068,-2.149,-2.3217,-2.562,-2.8651,-2.9774,-2.9596,-2.8333,-2.7882,0.0,0.0,-2.9401,-2.9022,0.0,-2.9792,-2.9792,0.0,0.0,0.0,-2.9792,0.0,0.0,0.0,-3.398,-3.5604,-3.6933,-3.8133,-3.9049,-3.9437,-4.0036,-4.0577,-4.0874,-4.1664,-4.2505,-4.3228,-4.3424,-4.3712,-4.4252,-4.429,-4.4587,-4.5283,-4.5342,-4.5458,-4.5682,-4.5853,-4.5973,-4.6009,-4.6124,-4.6191,-4.6191,-4.6267,-4.6308,-4.6308,-4.6308,-4.627,-4.6199,-4.6199,-4.6124,-4.599,-4.5992,-4.5951,-4.5854,-4.5841,-4.5815,-4.5757,-4.5719,-4.5719,-4.5757,-4.5719,-4.5699,-4.5699,-4.5605,-4.5586,-4.5586,1.9078,1.8351,1.7584,1.6748,1.6272,1.5725,1.4946,1.4048,1.3359,1.3089,1.2424,1.1512,1.0318,1.0738,1.0986,1.0617,1.0616,1.0601,1.0377,0.9752,0.862,0.698,0.6933,0.6899,0.6703,0.3204,0.1013,0.0339,-0.1811,-0.427,-0.6914,-0.8059,-0.8009,-0.7295,-1.1079,-1.3213,0.0,0.0,0.0,-1.9755,0.0,-2.1101,-2.1291,-2.3583,-2.6645,-2.9776,-2.9774,-2.9959,-3.0023,-2.9057,-2.8706,-2.8876,-3.0024,-2.9614,0.0,0.0,0.0,0.0,0.0,0.0,0.0,0.0,0.0,-3.1947,0.0,0.0,0.0,0.0,0.0,0.0,0.0,0.0,0.0,0.0,0.0,0.0,0.0,-4.3403,0.0,-4.4606,-4.4701,-4.4943,-4.5531,-4.5586,-4.568,-4.5834,-4.5976,-4.6074,-4.6148,-4.625,-4.6308,-4.6308,-4.6308,-4.6286,-4.6264,-4.6264,-4.6201,-4.6063,-4.6059,-4.5993,-4.588,-4.5866,-4.5834,-4.5757,-4.5757,-4.5699,-4.5586,-4.5586,-4.5586,-4.5586,-4.5586,-4.5586,-4.5586,-4.5586,-4.5586,-4.5586,2.0459,2.012,1.9796,1.9033,1.8237,1.7532,1.696,1.6129,1.507,1.3803,1.2767,1.243,1.3142,1.279,1.3219,1.4941,1.4607,1.3937,1.2968,1.2838,1.134,0.8311,0.8237,0.7753,0.6833,0.6309,0.409,0.0089,-0.0266,-0.2668,-0.7104,-0.7265,-0.721,-0.7098,-0.7669,0.0,0.0,0.0,-1.5893,0.0,-2.1071,-2.2832,0.0,-2.7452,-2.9401,-2.9819,-2.9774,-3.0509,-3.1439,0.0,-3.0869,-3.1018,0.0,-3.1596,-3.0869,0.0,0.0,0.0,0.0,0.0,0.0,0.0,-3.2961,0.0,0.0,0.0,-3.6828,-3.7632,0.0,0.0,0.0,0.0,0.0,0.0,0.0,0.0,-4.2605,-4.3453,-4.4233,-4.4966,-4.5052,-4.5201,-4.5568,-4.5586,-4.5738,-4.6046,-4.599,-4.6025,-4.6258,-4.6288,-4.6308,-4.6308,-4.6308,-4.6231,-4.6132,-4.6117,-4.6073,-4.5911,-4.5916,-4.5871,-4.5806,-4.5813,-4.5738,-4.5605,-4.5605,-4.5605,-4.5586,-4.5586,-4.5586,-4.5586,-4.5586,-4.5586,-4.5586,-4.5586,-4.5586,-4.5586,2.1469,2.0906,2.063,2.0321,1.9463,1.8645,1.8475,1.7387,1.6307,1.5364,1.4867,1.4561,0.0,0.0,0.0,0.0,0.0,1.5646,0.0,0.0,1.2535,0.9822,0.9653,0.8854,0.7054,0.695,0.6005,0.4111,0.1336,-0.0986,-0.3004,-0.4458,-0.5882,-0.7389,-0.7168,0.0,-1.0278,0.0,-1.5765,0.0,0.0,0.0,0.0,-2.9105,-2.9824,-2.9761,-2.9779,-3.1017,-3.2629,0.0,-3.3127,0.0,0.0,0.0,0.0,0.0,0.0,0.0,0.0,0.0,0.0,0.0,0.0,0.0,-3.4971,0.0,-3.7026,0.0,0.0,0.0,0.0,0.0,0.0,0.0,-4.1706,0.0,0.0,0.0,-4.4373,0.0,0.0,0.0,-4.5568,-4.5658,-4.5785,-4.5967,-4.5996,-4.6097,-4.6289,-4.6308,-4.6308,-4.6308,-4.6308,-4.624,-4.6102,-4.6103,-4.6012,-4.5833,-4.5841,-4.5796,-4.568,-4.568,-4.5643,-4.5586,-4.5586,-4.5586,-4.5586,-4.5586,-4.5586,-4.5586,-4.5586,-4.5586,-4.5586,-4.5586,-4.5586,-4.5586,2.352,0.0,2.2142,2.193,2.1116,2.0347,1.979,1.8615,1.7551,1.6874,1.6841,0.0,1.571,1.691,0.0,0.0,1.7911,1.827,0.0,0.0,1.458,1.2872,1.1679,0.0,0.8548,0.7948,0.7467,0.7205,0.3629,0.1279,-0.0,-0.1763,-0.4414,-0.7685,0.0,-0.8109,-0.9818,0.0,0.0,-1.8152,-2.1706,-2.5825,-2.9774,-2.9802,-2.9808,-2.9826,-2.9794,-3.2106,-3.5178,-3.5685,-3.5398,0.0,-3.5569,0.0,0.0,0.0,0.0,0.0,-3.2917,0.0,0.0,0.0,0.0,0.0,0.0,0.0,0.0,0.0,0.0,0.0,0.0,0.0,-4.0857,-4.1672,0.0,-4.2814,0.0,-4.4018,0.0,0.0,0.0,0.0,0.0,-4.5742,-4.5829,-4.5948,-4.6037,-4.6167,-4.6289,-4.6308,-4.6308,-4.6308,-4.6267,-4.6177,-4.6051,-4.6037,-4.593,-4.5757,-4.5757,-4.5699,-4.5586,-4.5586,-4.5586,-4.5586,-4.5586,-4.5586,-4.5586,-4.5586,-4.5586,-4.5586,-4.5586,-4.5586,-4.5586,-4.5586,-4.5586,-4.5586,2.7276,2.613,0.0,2.431,2.3888,2.3019,2.1048,1.9859,1.8914,0.0,0.0,0.0,0.0,0.0,0.0,0.0,0.0,2.2837,2.1774,0.0,1.8556,1.83,1.4365,1.2186,1.2083,1.0046,0.8516,0.7409,0.7045,0.4561,-0.0,-0.0095,-0.2976,-0.7966,-0.7689,-1.0587,-1.5842,-2.0738,-2.2875,-2.2909,-2.3077,-2.5825,-2.9821,0.0,-2.9807,-2.9781,-2.9803,0.0,0.0,-3.8196,-3.7687,0.0,0.0,0.0,0.0,0.0,0.0,0.0,0.0,0.0,0.0,-3.7314,0.0,0.0,0.0,0.0,-3.64,0.0,0.0,0.0,0.0,-4.1013,-4.175,-4.1793,-4.2734,0.0,0.0,0.0,0.0,0.0,0.0,0.0,0.0,-4.5796,-4.5873,-4.6084,-4.61,-4.6162,-4.6288,-4.6308,-4.6308,-4.6308,-4.6169,-4.6037,-4.5909,-4.5834,-4.5738,-4.5605,-4.5605,-4.5586,-4.5586,-4.5586,-4.5586,-4.5586,-4.5586,-4.5586,-4.5586,-4.5586,-4.5586,-4.5586,-4.5586,-4.5586,-4.5586,-4.5586,-4.5586,-4.5586,2.8846,0.0,0.0,0.0,0.0,2.3965,2.2391,2.1882,0.0,0.0,0.0,0.0,0.0,0.0,2.3968,0.0,0.0,2.3659,2.2019,2.0878,0.0,0.0,0.0,1.5112,1.2267,1.1938,1.0342,0.751,0.7523,0.5744,0.2323,0.0774,-0.0978,-0.2888,0.0,-0.8898,0.0,0.0,0.0,0.0,0.0,-2.844,-3.0301,0.0,-3.6617,-3.6613,-3.6622,-3.8114,0.0,-4.1257,-4.1076,-4.0534,-4.1025,-3.8512,-3.5719,-3.7905,-4.0276,-4.2153,0.0,0.0,-4.0905,-4.1443,0.0,0.0,0.0,0.0,0.0,0.0,0.0,0.0,0.0,-4.043,-4.1175,-4.2665,-4.3232,-4.3498,0.0,0.0,0.0,0.0,0.0,0.0,0.0,0.0,-4.5873,-4.6084,-4.6103,-4.6157,-4.6288,-4.6308,-4.6308,-4.6308,-4.6177,-4.6037,-4.5907,-4.5825,-4.5738,-4.5586,-4.5586,-4.5586,-4.5586,-4.5586,-4.5586,-4.5586,-4.5586,-4.5586,-4.5586,-4.5586,-4.5586,-4.5586,-4.5586,-4.5586,-4.5586,-4.5586,-4.5586,-4.5586,3.0283,3.0283,0.0,0.0,0.0,0.0,2.4691,0.0,0.0,0.0,2.5232,0.0,2.499,0.0,2.6118,0.0,2.5946,2.5816,2.3813,2.3599,0.0,2.1918,2.1203,0.0,1.7335,1.5324,1.2936,1.0218,0.8577,0.6943,0.5042,0.1579,0.0,-0.0201,0.0,-0.7969,-0.8411,0.0,-1.91,0.0,0.0,-3.3485,0.0,0.0,-4.1301,-4.1331,0.0,-4.1291,-4.1513,-4.2999,-4.3026,-4.2486,-4.2915,-4.1214,-3.948,-4.1469,-4.3723,-4.5618,-4.5602,-4.4925,0.0,-4.4443,-4.2885,0.0,-4.1304,0.0,0.0,0.0,0.0,0.0,0.0,-4.0104,-4.0854,-4.313,-4.3515,-4.3674,0.0,-4.5025,0.0,0.0,0.0,0.0,0.0,0.0,-4.5906,-4.61,-4.6098,-4.6166,0.0,-4.6308,-4.6308,-4.6308,-4.6114,-4.5982,-4.5892,-4.5796,-4.5699,-4.5586,-4.5586,-4.5586,-4.5586,-4.5586,-4.5586,-4.5586,-4.5586,-4.5586,-4.5586,-4.5586,-4.5586,-4.5586,-4.5586,-4.5586,-4.5586,-4.5586,-4.5586,-4.5586,3.1582,3.1554,0.0,0.0,2.8432,0.0,0.0,0.0,2.7328,0.0,2.6346,2.6426,2.6426,2.7249,2.7774,2.7722,2.9203,0.0,2.7246,2.7665,0.0,0.0,2.6139,2.5499,2.6426,2.0026,1.6199,1.5181,1.0439,0.8172,0.7975,0.2711,0.0101,-0.0201,-0.5805,0.0,-0.8802,-1.5338,-2.0208,-2.4428,-3.5614,-4.0128,-4.032,-4.2526,-4.3475,-4.3632,-4.3507,-4.3504,-4.3496,-4.3505,-4.3552,-4.3624,-4.3634,-4.4562,-4.563,-4.5627,-4.5641,-4.562,-4.562,-4.5622,-4.5738,-4.6191,-4.4952,0.0,0.0,0.0,-4.2976,0.0,0.0,0.0,0.0,0.0,-4.1075,-4.3243,-4.3592,-4.4058,-4.5418,-4.5617,0.0,0.0,0.0,0.0,0.0,-4.587,-4.5977,-4.609,-4.6103,-4.6151,0.0,-4.6289,-4.6288,-4.6287,-4.604,-4.591,-4.5892,-4.5699,-4.5586,-4.5586,-4.5586,-4.5586,-4.5586,-4.5586,-4.5586,-4.5586,-4.5586,-4.5586,-4.5586,-4.5586,-4.5586,-4.5586,-4.5586,-4.5586,-4.5586,-4.5586,-4.5586,-4.5586,3.2437,3.2655,3.2642,0.0,3.054,2.9492,0.0,0.0,0.0,0.0,3.0088,3.0729,3.083,3.1492,3.1734,3.1069,3.1382,0.0,0.0,0.0,0.0,3.0215,2.9457,2.8477,2.7267,2.2773,0.0,1.8562,1.3385,1.0538,0.985,0.5152,0.1892,-0.0399,0.0,0.0,-1.4007,-1.7338,-2.2312,-2.8787,-3.6875,-4.0119,-4.0133,0.0,-4.2875,-4.5401,-4.3996,-4.3488,-4.3504,-4.3505,-4.4429,-4.559,-4.5592,-4.5831,-4.6127,-4.6114,-4.6125,-4.6111,-4.6111,-4.6129,-4.6152,-4.6268,-4.5932,-4.5577,0.0,0.0,0.0,0.0,0.0,0.0,0.0,0.0,-4.4383,-4.4972,-4.5076,-4.5201,-4.5535,0.0,0.0,-4.5605,0.0,0.0,0.0,-4.6104,-4.6098,-4.624,-4.6158,0.0,0.0,0.0,-4.6141,-4.6151,-4.6076,-4.5989,-4.5834,-4.568,-4.5586,-4.5586,-4.5586,-4.5586,-4.5586,-4.5586,-4.5586,-4.5586,-4.5586,-4.5586,-4.5586,-4.5586,-4.5586,-4.5586,-4.5586,-4.5586,-4.5586,-4.5586,-4.5586,-4.5586,3.4099,0.0,0.0,3.397,0.0,0.0,3.1584,0.0,0.0,3.2228,3.2883,0.0,3.2991,3.3622,3.3698,3.2819,3.3339,0.0,3.1806,0.0,0.0,3.263,3.3332,3.3128,3.204,2.7893,0.0,2.2827,0.0,1.3625,1.1667,0.9198,0.5158,-0.0298,0.0,-1.264,0.0,-2.4905,-2.8775,-3.1694,-3.7041,-4.0615,0.0,-4.2819,-4.4251,-4.616,-4.5097,-4.4725,-4.4731,-4.472,-4.5437,-4.6307,-4.6296,-4.6308,-4.6297,-4.6308,-4.6306,-4.6306,-4.6306,-4.63,-4.6303,-4.6297,-4.6158,-4.5988,-4.5996,-4.5796,-4.5597,0.0,-4.5604,-4.568,0.0,0.0,0.0,-4.563,-4.5598,-4.5595,0.0,0.0,0.0,0.0,-4.5999,0.0,0.0,-4.6102,-4.6219,-4.6287,-4.6182,0.0,0.0,0.0,-4.6127,-4.6025,-4.5988,-4.5911,-4.5796,-4.568,-4.5513,-4.5381,-4.5531,-4.5513,-4.54,-4.5531,-4.5586,-4.5586,-4.5586,-4.5586,-4.5586,-4.5586,-4.5513,-4.5362,-4.5362,-4.5476,-4.5586,-4.5586,-4.5586,-4.5586,0.0,0.0,0.0,0.0,0.0,0.0,0.0,3.507,0.0,3.4862,0.0,3.4814,3.4016,3.4555,3.4719,3.4091,0.0,3.5034,3.3358,3.6117,3.6999,3.5182,3.6995,3.806,3.806,3.3752,0.0,0.0,0.0,1.7209,1.4389,1.4027,0.973,0.2374,0.0,0.0,0.0,-3.2959,-3.5804,-3.4311,-3.6968,-4.0877,-4.5238,-4.5504,-4.5534,-4.5499,-4.5485,-4.5845,-4.6294,-4.6306,-4.6147,-4.5923,-4.5938,-4.5937,-4.5917,-4.5924,-4.6053,-4.6202,-4.6202,-4.6208,-4.6213,-4.6212,-4.5911,-4.5605,-4.56,-4.5604,-4.56,-4.5587,-4.5438,-4.5321,-4.5331,0.0,0.0,0.0,0.0,0.0,0.0,0.0,0.0,0.0,0.0,0.0,0.0,0.0,0.0,0.0,0.0,0.0,0.0,0.0,-4.6111,-4.5909,-4.5815,-4.5776,-4.5776,-4.5643,-4.5438,-4.5077,-4.5304,-4.5304,-4.5096,-4.54,-4.5568,-4.5586,-4.5586,-4.5568,-4.555,-4.5586,-4.54,-4.5096,-4.5096,-4.5282,-4.555,-4.5586,-4.5586,-4.5586,0.0,0.0,0.0,0.0,0.0,3.8731,3.8243,3.7192,3.6214,3.5678,3.6589,3.6999,3.6317,3.626,3.65,3.6975,3.6669,0.0,0.0,0.0,0.0,3.7255,3.8689,3.9461,3.9461,3.6432,3.4601,0.0,0.0,2.1572,2.0869,1.8489,1.6552,1.4657,0.0,0.0,-2.3446,-2.8948,0.0,-3.9363,-3.8421,-3.8572,-3.9622,-4.1219,-4.1573,-4.1198,-4.1182,-4.3395,-4.6302,-4.6306,-4.5262,-4.397,-4.3992,-4.3992,-4.4005,-4.3998,-4.4824,-4.5722,-4.5722,-4.5719,-4.5725,-4.5724,-4.5661,-4.5592,-4.5604,-4.5606,-4.5601,-4.5584,-4.4664,-4.3856,-4.3867,0.0,0.0,0.0,0.0,0.0,0.0,0.0,0.0,0.0,0.0,-4.627,0.0,0.0,0.0,0.0,0.0,0.0,0.0,0.0,-4.5767,0.0,-4.5738,-4.5624,0.0,0.0,-4.5381,-4.4944,-4.4603,-4.4679,-4.5096,-4.5159,-4.5342,-4.5586,-4.5586,-4.5438,-4.5201,-4.5495,-4.54,-4.5096,-4.5096,-4.5137,-4.5222,-4.5495,-4.5586,-4.5586,0.0,0.0,0.0,0.0,0.0,0.0,0.0,3.9569,0.0,3.7518,3.7953,3.8128,3.7407,3.7898,3.8149,3.7806,3.8109,3.83,3.8358,3.9187,3.9714,3.9714,4.0787,0.0,4.1086,3.9822,3.7987,3.5605,0.0,2.7299,2.5055,2.1964,2.0172,1.9225,0.0,0.0349,0.0,0.0,0.0,-2.5307,-3.1748,-3.6774,-4.04,-4.0066,-3.9014,-3.7806,-3.8609,-4.0698,-4.325,-4.4457,-4.426,-4.3505,-4.3506,-4.3488,-4.3524,-4.3498,-4.3967,-4.4683,-4.5407,-4.5584,-4.5152,-4.3221,-4.4194,-4.5407,-4.4681,-4.4504,-4.4508,-4.4515,-4.398,-4.3501,-4.3497,-4.4831,0.0,0.0,0.0,0.0,0.0,0.0,0.0,0.0,0.0,0.0,0.0,0.0,0.0,0.0,0.0,-4.6007,-4.5757,0.0,-4.5624,0.0,0.0,0.0,-4.5591,0.0,-4.5478,-4.5247,-4.4543,-4.4215,-4.429,-4.4656,-4.4943,-4.5077,-4.5077,-4.4988,-4.4849,-4.4787,-4.4787,-4.4849,-4.4849,-4.4943,-4.514,-4.5476,-4.5586,-4.5586,0.0,4.0629,0.0,0.0,4.0782,0.0,4.1747,4.1542,4.0868,3.9682,3.9389,3.9126,3.8717,3.9428,3.9581,3.8531,3.927,3.9716,3.9478,4.0735,4.1576,4.177,4.2559,4.2858,4.2614,4.265,4.0824,0.0,0.0,0.0,2.8682,2.5369,2.3392,0.0,0.0,0.0,0.0,0.0,-0.8078,-1.0289,-2.2634,-3.2342,-3.919,-3.7142,-3.5762,-3.5094,-3.6073,-3.7717,-3.9649,-4.129,-4.223,-4.287,-4.3363,-4.3522,-4.3415,-4.2919,-4.3105,-4.3632,-4.4262,-4.442,-4.3741,-4.081,-4.2283,-4.4253,-4.3658,-4.3509,-4.3512,-4.3485,-4.3478,-4.3476,-4.3493,-4.4416,0.0,0.0,0.0,0.0,0.0,0.0,0.0,0.0,0.0,0.0,-4.6131,0.0,0.0,0.0,0.0,-4.5988,-4.5605,-4.5586,-4.5607,-4.5591,0.0,-4.5611,-4.5601,0.0,-4.5136,-4.5133,-4.4393,-4.3849,-4.352,-4.4186,-4.4527,-4.458,-4.458,-4.458,-4.4553,-4.4076,-4.4136,-4.4474,-4.4474,-4.4682,-4.5033,-4.5362,-4.555,-4.5586,0.0,0.0,0.0,0.0,0.0,0.0,4.2273,4.2415,4.2302,4.1603,4.107,4.0868,4.1367,4.0896,4.0538,4.0569,4.0082,4.0192,4.1165,4.1382,4.1832,4.2646,4.3278,4.359,4.3559,4.3745,4.3262,0.0,0.0,3.3906,0.0,2.9548,2.8177,0.0,0.0,0.0,0.0,0.8103,-0.3208,-0.748,-1.4172,-2.165,-2.8657,-2.7785,-2.9808,-3.3006,-3.2234,-3.4259,-3.7188,-3.6446,-3.8124,-4.0771,-4.2861,-4.3518,-4.3065,-4.1041,-4.1855,-4.3099,-4.1121,-4.061,-4.0539,-4.0201,-4.0341,-4.1145,-4.3047,-4.349,-4.349,-4.3493,-4.3493,-4.3511,-4.3495,-4.3633,-4.3633,0.0,0.0,0.0,0.0,0.0,0.0,0.0,0.0,0.0,0.0,-4.5669,0.0,0.0,-4.5899,-4.5643,-4.5586,-4.5586,-4.5591,-4.56,-4.5592,-4.5609,-4.5597,-4.433,-4.3699,-4.3707,-4.3606,-4.355,-4.3509,-4.3897,-4.428,-4.458,-4.458,-4.458,-4.4553,-4.3855,-4.3758,-4.4076,-4.4076,-4.429,-4.4701,-4.5011,-4.5342,-4.5586,0.0,0.0,0.0,0.0,0.0,0.0,0.0,4.296,4.2732,4.281,4.2003,4.1534,4.175,4.2029,4.2042,4.1772,4.2009,4.219,4.2285,4.2803,4.328,4.3631,4.4501,4.4857,4.4665,4.4781,4.417,0.0,0.0,0.0,0.0,3.4359,3.3031,0.0,0.0,3.1967,3.5587,2.4289,1.3248,0.3103,0.0723,-0.6639,-1.6184,-1.595,-2.056,-2.7235,-2.6823,-2.8599,-3.1395,-3.265,-3.4951,-3.7491,-3.8413,-3.8687,-3.8891,-3.9817,-4.0758,-4.1254,-4.0359,-4.011,-4.0083,-4.0122,-4.0105,-4.0709,-4.2995,-4.3526,-4.3505,-4.3505,-4.3505,-4.3505,-4.3487,-4.2378,-4.1479,-4.1483,0.0,0.0,0.0,0.0,0.0,0.0,0.0,0.0,0.0,0.0,0.0,0.0,0.0,-4.5586,-4.5586,-4.5592,-4.5587,-4.5595,0.0,-4.4738,-4.5585,-4.4204,-4.3482,-4.3494,-4.3494,-4.3494,-4.3494,-4.3638,-4.3791,-4.3931,-4.3931,-4.3931,-4.3931,-4.3631,-4.3563,-4.3726,-4.3924,-4.4252,-4.4631,-4.4985,-4.5322,-4.5586,4.3587,0.0,4.3998,0.0,4.3841,4.3732,4.4098,4.3666,4.3369,4.3594,4.305,4.2571,4.2454,4.3135,4.3383,4.2758,4.3319,4.3565,4.323,4.3866,4.4393,4.4671,4.5407,0.0,4.5471,4.5427,4.4882,4.3848,4.2443,0.0,0.0,0.0,0.0,0.0,3.5867,3.6063,3.667,3.2697,2.3952,1.2698,1.1054,0.3333,-0.7125,-0.6474,-1.238,-2.1009,-2.1559,-2.3246,-2.5633,-2.8096,-3.0823,-3.3382,-3.5022,-3.5514,-3.5911,-3.812,-3.9393,-4.0124,-4.0112,-4.0097,-4.0104,-4.0104,-4.0097,-4.0538,-4.2106,-4.2489,-4.2505,-4.2505,-4.2505,-4.2498,-4.251,-4.1209,-4.0115,-4.0115,0.0,0.0,0.0,-4.3063,0.0,0.0,-4.3483,-4.3895,-4.489,-4.4071,0.0,0.0,0.0,-4.5611,-4.5611,-4.5606,-4.5411,0.0,0.0,0.0,-4.4978,-4.3992,-4.3489,-4.3497,-4.3497,-4.3497,-4.3497,-4.3497,-4.3497,-4.3497,-4.3497,-4.3497,-4.3497,-4.3497,-4.3497,-4.3513,-4.374,-4.4165,-4.4631,-4.4872,-4.5222,-4.5586,4.4501,4.458,4.4682,4.503,4.4825,4.458,4.458,4.458,4.4447,4.4046,4.4318,4.4401,4.4028,4.4346,4.4325,4.3748,4.37,4.3857,4.4158,4.433,4.4806,0.0,0.0,4.5899,4.5899,4.5572,4.5618,4.6065,0.0,0.0,4.3487,0.0,3.9643,4.0343,4.0393,3.8197,3.4169,2.9436,2.4445,1.9195,1.3806,0.57,-0.2942,-0.0928,-0.6196,-1.5001,-1.6794,-1.8764,-2.078,-2.2611,-2.5047,-2.8312,-3.3774,-3.5495,-3.5492,-3.5517,-3.7697,-4.0084,-4.0104,-4.0121,-4.0087,-4.0121,-4.0104,-4.01,-4.0113,-4.0151,-4.0155,-4.0155,-4.0155,-4.0123,-4.0164,-4.0095,-4.0077,-4.0077,0.0,0.0,0.0,-4.2087,0.0,-4.3479,-4.3498,-4.3521,-4.3508,-4.3517,0.0,0.0,0.0,0.0,0.0,0.0,0.0,-4.3588,-4.3511,0.0,-4.3532,-4.3508,-4.3489,-4.3497,-4.3497,-4.3497,-4.3497,-4.3497,-4.3497,-4.3497,-4.3497,-4.3497,-4.3497,-4.3497,-4.3497,-4.3497,-4.3479,-4.3962,-4.458,-4.4606,-4.5033,-4.555,4.4919,4.5118,4.5322,4.5419,4.5161,4.4943,4.4943,4.4751,4.4553,4.4419,4.4707,4.4896,4.4762,4.4853,4.4858,0.0,4.4953,4.5186,0.0,4.5365,4.5568,4.5852,4.5974,4.6039,4.6039,4.6026,4.6044,4.6108,0.0,0.0,0.0,4.1364,4.1304,4.2776,3.9784,3.8148,3.7246,3.1933,2.6785,2.1888,1.8159,1.27,0.6731,0.4695,0.0379,-0.5122,-0.8335,-1.2757,-1.7138,-1.773,-2.0685,-2.457,-2.7082,-2.9441,-3.2041,-3.595,-3.7783,-3.876,-3.9792,-4.0109,-4.0077,-4.0074,-3.8525,-3.7497,-3.9624,-4.0104,-4.0087,-4.0087,-4.0114,-4.0089,-4.0097,-4.0082,-4.0082,-4.0082,-4.0092,0.0,-4.2192,0.0,-4.3496,-4.3483,-4.3494,-4.3869,-4.4828,-4.4058,0.0,0.0,0.0,0.0,0.0,0.0,0.0,0.0,-4.3513,0.0,-4.3483,-4.3486,-4.3486,-4.3483,-4.3483,-4.352,-4.3508,-4.3495,-4.3497,-4.3497,-4.3497,-4.3497,-4.3497,-4.3497,-4.3497,-4.3497,-4.3497,-4.3772,-4.4175,-4.4175,-4.4508,-4.49,4.5263,4.5476,4.5586,4.5586,4.5419,4.5243,4.5118,4.503,4.4943,4.4781,4.5074,4.5323,4.5361,4.5361,0.0,4.5361,4.563,4.5803,4.5844,4.5918,4.5981,4.5981,4.6089,4.6141,4.6091,4.6171,0.0,4.6014,4.5067,4.4176,4.3385,4.2345,4.2352,4.3111,4.0101,3.843,3.7582,3.3448,2.8886,2.4288,2.2101,1.824,1.3554,1.1094,0.6813,0.1625,-0.2212,-0.7133,-1.2199,-1.4695,-1.744,-2.0386,-2.2903,-2.4909,-2.7313,-3.2397,-3.5579,-3.7628,-3.8221,-3.8348,-3.8354,-3.8371,-3.6911,-3.5996,-3.7902,-3.8351,-3.8678,-3.9852,-4.0117,-4.007,-4.007,-4.007,-4.007,-4.007,-4.0118,-4.0905,-4.318,0.0,-4.3077,0.0,0.0,0.0,0.0,-4.2742,-4.0937,0.0,0.0,0.0,0.0,0.0,-4.1696,-4.1698,-4.1691,-4.1709,-4.1709,-4.1709,-4.1302,-4.0552,-4.133,-4.2326,-4.3483,-4.3505,-4.3508,-4.3511,-4.3511,-4.3495,-4.3497,-4.3497,-4.3497,-4.3497,-4.3497,-4.3693,-4.4016,-4.4016,-4.4261,-4.458,4.555,4.5586,4.5586,0.0,4.5586,4.5495,4.518,4.54,4.5495,4.518,4.54,4.5648,4.5783,4.579,4.5803,4.5815,0.0,0.0,4.5907,4.6039,4.6117,4.6101,4.6228,4.6223,4.6084,4.6084,4.6008,4.5852,4.5505,4.4691,4.3439,4.3379,4.2825,4.1835,4.1178,3.9091,3.5885,3.405,3.0804,2.6685,2.5452,2.2013,1.7719,1.7523,1.2791,0.5858,0.1716,-0.2207,-0.6354,-1.2587,-1.4907,-1.6012,-2.057,-2.1586,-2.1848,-2.6148,-3.1607,-3.6149,-3.5748,-3.5554,-3.5497,-3.5508,-3.5488,-3.5486,-3.5486,-3.5665,-3.661,-3.9501,-4.0081,-4.007,-4.007,-4.007,-4.007,-4.007,-4.0124,-4.0839,-4.3013,-4.2678,-4.2214,0.0,0.0,0.0,-4.0712,-3.9978,-3.8867,0.0,0.0,0.0,0.0,0.0,-3.8615,-3.8591,-3.8678,-3.8715,-3.87,-3.8715,-3.769,-3.5723,-3.7739,-4.0289,-4.3162,-4.318,-4.3152,-4.3177,-4.3395,-4.3508,-4.3513,-4.3513,-4.3513,-4.3513,-4.3513,-4.3693,-4.3955,-4.3955,-4.4204,-4.4474,0.0,0.0,4.5586,4.5586,4.5586,4.5568,4.5495,4.555,4.5568,4.5495,4.5645,4.5756,4.5796,4.5847,4.5918,4.6014,4.604,4.6047,4.6045,4.6175,4.6211,4.6102,4.6134,4.6084,4.594,4.5959,4.5774,4.5426,4.4994,4.4487,4.3837,4.3188,4.2719,4.244,4.1358,3.9747,3.7598,3.4562,3.1916,2.9517,2.7071,2.4322,2.1323,1.8393,1.4995,1.1029,0.5192,0.1177,-0.1958,-0.5508,-0.9433,-1.3132,-1.5126,-1.7106,-1.9855,-2.6415,-2.8484,-2.9935,-3.5229,-3.6119,-3.5473,-3.5494,-3.5477,-3.5513,-3.5513,-3.7306,-3.9201,-3.9936,-4.0121,-4.007,-4.007,-4.007,-4.007,-4.007,-4.0119,-4.0497,-4.1568,-4.0919,-4.0524,0.0,-4.0399,-3.9664,-3.8992,-3.872,-3.8342,0.0,0.0,-3.7967,-3.8092,-3.7975,-3.7827,-3.7551,-3.831,-3.872,-3.8697,-3.8688,-3.8081,-3.6844,-3.8108,-3.9095,-3.985,-3.9827,-3.9849,-3.9977,-4.2423,-4.3513,-4.3498,-4.3498,-4.3502,-4.349,-4.349,-4.356,-4.3631,-4.3631,-4.3679,-4.3744,4.5586,4.5586,4.5586,4.5586,4.5586,4.5586,4.5586,4.5586,4.5618,4.5677,4.5761,4.584,4.593,4.5979,4.6045,4.6175,4.6144,4.6108,4.6093,4.6169,4.6147,4.6008,4.6001,4.5959,4.585,4.585,4.5634,4.5208,4.495,4.4535,4.3986,4.352,4.3087,4.2655,4.1725,4.022,3.8187,3.5308,3.2732,3.0498,2.8179,2.6179,2.4343,2.1658,1.8425,1.4769,1.071,0.6074,0.1382,-0.1284,-0.4937,-0.8792,-1.1889,-1.4218,-1.6899,-2.2072,-2.4428,-2.6136,-2.9668,-3.3049,-3.5473,-3.5517,-3.5504,-3.5504,-3.5504,-3.6786,-3.8376,-3.9803,-3.9516,-3.9036,-3.9068,-3.9609,-4.0117,-4.0117,-4.0121,-4.0184,-4.0493,-4.0054,-3.9755,-3.9754,-3.9135,-3.8415,-3.7689,-3.7272,-3.6963,-3.6746,-3.6988,0.0,-3.7193,-3.7362,-3.7381,-3.7202,-3.7869,-3.838,-3.8683,-3.8106,-3.7514,-3.6962,-3.7864,-3.8401,-3.87,-3.8688,-3.8702,-3.8798,-4.0561,-4.1323,-4.1295,-4.1295,-4.1299,-4.1409,-4.239,-4.3048,-4.3398,-4.2669,-4.2871,-4.3456,4.5586,4.5586,4.5586,4.5586,4.5586,4.5603,4.5637,4.5618,4.5661,4.5803,4.582,4.5911,4.608,4.6117,4.6178,4.6269,4.6166,4.6092,4.6097,4.608,4.6001,4.59,4.5872,4.585,4.5769,4.5775,4.5571,4.518,4.5118,4.4713,4.396,4.3899,4.3435,4.2519,4.1937,4.044,3.8257,3.6209,3.3628,3.0818,2.9324,2.7785,2.6367,2.4999,2.1581,1.7281,1.5544,1.045,0.4175,0.1477,-0.1482,-0.4777,-0.9291,-1.1996,-1.3903,-1.6376,-2.0107,-2.3348,-2.333,-2.9263,-3.5503,-3.5466,-3.5463,-3.5504,-3.5504,-3.5591,-3.6459,-3.9023,-3.8663,-3.7776,-3.7708,-3.892,-3.9906,-3.9873,-3.9932,-3.9846,-3.9617,0.0,-3.9071,-3.8308,-3.7689,-3.7084,-3.6523,-3.5949,-3.5605,-3.5694,-3.6139,-3.6374,-3.6374,-3.6843,-3.702,-3.6943,-3.7399,-3.7915,-3.8471,-3.7269,-3.6685,-3.6761,-3.7299,-3.7971,-3.8717,-3.8716,-3.8713,-3.8693,-3.8693,-3.8716,-3.8692,-3.8692,-3.8711,-3.8875,-4.0712,-4.1963,-4.2636,-4.1511,-4.1915,-4.2975,4.5586,4.5586,4.5586,4.5586,4.5586,4.5635,4.5747,4.5775,4.5803,4.5872,4.5974,4.6069,4.6108,4.62,4.623,4.6144,4.6108,4.6108,4.6089,4.5995,4.5891,4.5828,4.5815,4.5756,4.5635,4.5618,4.5584,4.5513,4.5243,4.4638,4.3755,4.3453,4.2832,4.1895,4.1313,4.0044,3.8327,3.7488,3.513,3.2034,3.1775,2.9505,2.6129,2.3965,2.141,1.8443,1.4075,1.025,0.6935,0.427,0.0099,-0.4187,-0.4976,-0.8402,-1.2502,-1.3909,-1.6392,-1.9562,-2.3178,-2.9768,-3.5493,-3.5503,-3.5495,-3.5504,-3.5504,-3.6178,-3.6862,-3.7062,-3.7492,-3.7636,-3.7195,-3.8219,-3.9061,-3.8875,-3.9023,-3.9172,-3.9117,0.0,-3.7009,-3.6237,-3.5996,-3.5667,-3.5013,-3.5321,-3.5783,-3.6224,-3.6333,-3.6374,-3.6374,-3.6498,-3.6333,-3.5854,-3.6768,-3.734,-3.7429,-3.6786,-3.6654,-3.712,-3.6923,-3.7523,-3.8717,-3.8716,-3.8707,-3.8695,-3.8695,-3.8695,-3.8682,-3.8682,-3.8706,-3.8734,-3.9058,-3.9282,-3.9579,-4.0679,-4.0969,-4.1042,4.5586,4.5586,4.5586,4.5586,4.5648,4.5718,4.5783,4.5832,4.5901,4.5988,4.605,4.614,4.62,4.619,4.6173,4.6113,4.5994,4.5948,4.5948,4.589,4.5796,4.5692,4.5692,4.5665,4.5603,4.5586,4.5343,4.4846,4.4691,4.4045,4.2933,4.2777,4.221,4.1296,4.1041,4.0295,3.9239,3.801,3.6573,3.4906,3.3055,3.1216,2.9162,2.598,2.3292,2.0713,1.7206,1.3435,0.9681,0.7036,0.3473,-0.0199,-0.3089,-0.6645,-1.0166,-1.2097,-1.6012,-2.0335,-2.3554,-2.7358,-3.1042,-3.3237,-3.3842,-3.4143,-3.5264,-3.5842,-3.6272,-3.6508,-3.6585,-3.6615,-3.6776,-3.6954,-3.7238,-3.7526,-3.7689,-3.7669,-3.7285,-3.6651,-3.5809,-3.4689,-3.4855,-3.4941,-3.4624,-3.5207,-3.5694,-3.5941,-3.5985,-3.5985,-3.5985,-3.5985,-3.5985,-3.6011,-3.6522,-3.6764,-3.6764,-3.6539,-3.6539,-3.6764,-3.6601,-3.6932,-3.7631,-3.8389,-3.8696,-3.8696,-3.8687,-3.8707,-3.8707,-3.8707,-3.8695,-3.87,-3.87,-3.8706,-3.8802,-3.9538,-3.9653,-3.9585,4.5586,4.5586,4.5603,4.5635,4.5718,4.5822,4.5867,4.59,4.5995,4.612,4.6147,4.6161,4.6249,4.615,4.608,4.6021,4.588,4.5783,4.5761,4.5761,4.5708,4.5603,4.5586,4.5586,4.5586,4.5513,4.5048,4.4183,4.4105,4.3417,4.2103,4.2103,4.1605,4.0685,4.0685,4.0497,4.0003,3.8689,3.7858,3.7281,3.4584,3.3055,3.1905,2.8138,2.5236,2.2832,2.0065,1.614,1.192,0.9579,0.6642,0.3289,-0.0796,-0.4367,-0.7524,-1.0171,-1.5691,-2.1248,-2.3186,-2.4954,-2.7082,-3.0737,-3.2034,-3.2891,-3.4728,-3.5359,-3.5589,-3.593,-3.5616,-3.5428,-3.6045,-3.5704,-3.5654,-3.6342,0.0,-3.6188,-3.5762,-3.5432,-3.4805,-3.3748,-3.4037,-3.4382,-3.4382,-3.4958,-3.5362,-3.5362,-3.5515,-3.5622,-3.5622,-3.5622,-3.5783,-3.6224,-3.6333,-3.6333,-3.6224,-3.6224,-3.6224,-3.6224,-3.6333,-3.6458,-3.6661,-3.7846,-3.8417,-3.852,-3.8656,-3.8687,-3.8707,-3.8707,-3.8707,-3.8707,-3.8707,-3.8707,-3.8707,-3.8707,-3.8682,-3.8706,4.5586,4.5586,4.5635,4.5756,4.5796,4.5867,4.6053,4.608,4.612,4.6268,4.6289,4.6248,4.612,4.6113,4.6014,4.584,4.5809,4.5747,4.5618,4.562,4.5603,4.5586,4.5586,4.5586,4.5586,4.5302,4.4832,4.4183,4.3896,4.2999,4.1552,4.1552,4.1066,4.0171,4.0171,4.0121,4.007,3.9935,3.897,3.747,3.7208,3.516,3.1935,2.8496,2.6015,2.39,1.9439,1.5967,1.3412,1.2016,0.8213,0.3889,0.3489,-0.0099,-0.4779,-0.7429,-1.3673,-1.9935,-2.1176,-2.3856,-2.6771,-2.8984,-3.097,-3.2681,-3.3848,-3.4839,-3.5279,-3.4365,-3.4404,-3.461,-3.4658,-3.4713,-3.4982,-3.5664,0.0,0.0,-3.563,-3.459,-3.3697,-3.3598,-3.3633,-3.3684,-3.3684,-3.4284,-3.4688,-3.4688,-3.5253,-3.5622,-3.5622,-3.5622,-3.5622,-3.565,-3.6139,-3.6182,-3.565,-3.565,-3.565,-3.565,-3.6182,-3.6416,-3.6422,-3.7055,-3.7559,-3.7984,-3.8466,-3.8682,-3.8707,-3.8707,-3.8707,-3.8707,-3.8707,-3.8707,-3.8707,-3.8707,-3.8707,-3.8707,4.562,4.5586,4.5651,4.5789,4.5825,4.5929,4.6075,4.6173,4.6246,4.6289,4.6225,4.617,4.6113,4.5979,4.5869,4.5809,4.5718,4.5648,4.5603,4.5586,4.5586,4.5586,4.54,4.5302,4.5302,4.4966,4.4388,4.3565,4.3444,4.2613,4.1119,4.1119,4.0775,4.007,4.007,4.007,4.007,4.007,3.9749,3.9023,3.7931,3.6707,3.5037,3.0913,2.8074,2.575,2.2235,1.8935,1.5879,1.3726,1.1211,0.8311,0.5075,0.1486,-0.2658,-0.8668,-1.4224,-1.8688,-1.9852,-2.2221,-2.4935,-2.7767,-2.9006,-3.0384,-3.3323,-3.4037,-3.4054,-3.4286,-3.4103,-3.3858,-3.3858,-3.3548,-3.3551,-3.4216,0.0,-3.3486,-3.3736,-3.3303,-3.2826,-3.2351,-3.268,-3.2986,-3.2986,-3.3987,-3.4576,-3.4576,-3.5207,-3.5622,-3.5622,-3.5622,-3.5622,-3.5622,-3.5827,-3.5827,-3.5622,-3.5622,-3.5783,-3.6097,-3.5985,-3.6097,-3.6433,-3.6603,-3.6981,-3.747,-3.797,-3.838,-3.8707,-3.8707,-3.8707,-3.8707,-3.8707,-3.8707,-3.8707,-3.8707,-3.8707,-3.8707,4.568,4.5665,4.5708,4.5808,4.59,4.6001,4.6144,4.6246,4.6308,4.6308,4.6223,4.612,4.6045,4.591,4.5815,4.5747,4.5648,4.5586,4.5586,4.5495,4.5495,4.5605,4.5381,4.5201,4.5096,4.4757,4.4129,4.3185,4.3101,4.2379,4.1161,4.1161,4.0874,4.0368,4.0368,4.0254,4.007,4.007,4.007,4.0003,3.883,3.7987,3.7118,3.3667,3.0401,2.7448,2.4783,2.1632,1.8472,1.5839,1.3826,1.1712,0.7717,0.3544,-0.1371,-0.8073,-1.2784,-1.6241,-1.8201,-2.0179,-2.2726,-2.6898,-2.7798,-2.859,-3.205,-3.2848,-3.2883,-3.3273,-3.3247,-3.3185,-3.3185,-3.2647,-3.2417,-3.3085,-3.2675,-3.2327,-3.2586,-3.2382,-3.216,-3.191,-3.2064,-3.2327,-3.2602,-3.3443,-3.3987,-3.3987,-3.48,-3.5362,-3.5577,-3.5622,-3.5622,-3.5622,-3.5622,-3.5622,-3.5622,-3.5622,-3.5766,-3.6139,-3.5783,-3.5766,-3.6139,-3.6139,-3.6522,-3.7228,-3.7542,-3.8083,-3.8707,-3.8707,-3.8707,-3.8707,-3.8707,-3.8707,-3.8707,-3.8707,-3.8707,-3.8707,4.5796,4.5796,4.582,4.5881,4.6001,4.6147,4.6289,4.6308,4.6308,4.6308,4.6308,4.62,4.5924,4.5899,4.5809,4.5618,4.5586,4.5586,4.5586,4.5302,4.5243,4.5586,4.5586,4.5438,4.5096,4.4776,4.4129,4.3185,4.2886,4.2382,4.181,4.181,4.149,4.0903,4.0903,4.0625,4.007,4.007,4.007,4.007,4.007,3.904,3.738,3.6291,3.3054,2.8735,2.6438,2.3729,2.0935,1.8503,1.5967,1.3507,1.2214,0.6454,-0.0785,-0.4761,-0.8784,-1.2574,-1.5994,-1.7741,-2.0148,-2.6323,-2.7435,-2.7694,-2.9861,-3.1308,-3.1933,-3.0985,-3.17,-3.2497,-3.2497,-3.1973,-3.1739,-3.2477,-3.1951,-3.1739,-3.2492,-3.1951,-3.1796,-3.2477,-3.1951,-3.1796,-3.2547,-3.2586,-3.2586,-3.2586,-3.3836,-3.4894,-3.556,-3.5622,-3.5622,-3.5622,-3.5622,-3.5622,-3.5622,-3.5622,-3.5622,-3.5622,-3.5622,-3.5622,-3.5622,-3.5622,-3.6207,-3.719,-3.719,-3.7791,-3.8707,-3.8707,-3.8707,-3.8707,-3.8707,-3.8707,-3.8707,-3.8707,-3.8707,-3.8707,4.5881,4.5862,4.59,4.6027,4.6075,4.6147,4.6289,4.6223,4.6198,4.6289,4.6108,4.5948,4.5899,4.5757,4.5677,4.5603,4.5586,4.5586,4.5586,4.5302,4.514,4.5243,4.5011,4.4713,4.4346,4.4233,4.3937,4.3406,4.3303,4.2976,4.244,4.244,4.1895,4.0903,4.0903,4.0625,4.007,4.007,4.007,4.007,4.007,3.904,3.7339,3.5784,3.2619,2.8785,2.6875,2.4101,2.1203,2.0486,1.8525,1.5591,1.0637,0.4905,-0.0587,-0.3712,-0.7289,-1.106,-1.4526,-1.636,-1.8518,-2.3573,-2.5183,-2.6365,-2.9048,-2.9644,-2.9871,-3.0863,-3.1036,-3.0935,-3.0935,-3.122,-3.1582,-3.1796,-3.164,-3.1582,-3.1796,-3.164,-3.1582,-3.1796,-3.164,-3.1582,-3.1796,-3.2272,-3.2586,-3.2586,-3.3836,-3.4894,-3.556,-3.5622,-3.5622,-3.5622,-3.5622,-3.5622,-3.5622,-3.5622,-3.5622,-3.5622,-3.5622,-3.5622,-3.5622,-3.5622,-3.6207,-3.719,-3.719,-3.7791,-3.8707,-3.8707,-3.8707,-3.8707,-3.8707,-3.8707,-3.8707,-3.8707,-3.8707,-3.8707,4.5995,4.5981,4.6001,4.6084,4.6144,4.6184,4.6226,4.6147,4.6113,4.6144,4.5963,4.5847,4.5861,4.575,4.5648,4.5603,4.5586,4.5531,4.5419,4.5096,4.483,4.4663,4.4482,4.4233,4.4016,4.4016,4.3836,4.3497,4.3497,4.3321,4.3014,4.3014,4.2501,4.1578,4.1358,4.092,4.0351,3.9868,3.9782,4.0003,3.902,3.8163,3.7265,3.5118,3.2083,2.8785,2.7366,2.4798,2.1845,2.0935,1.8561,1.5197,0.9661,0.5335,0.1444,-0.269,-0.5561,-0.8442,-1.3258,-1.4817,-1.613,-2.0595,-2.3218,-2.5279,-2.7388,-2.8088,-2.8479,-2.9578,-3.0069,-3.0329,-3.0329,-3.0703,-3.1146,-3.1467,-3.1219,-3.1161,-3.1467,-3.1482,-3.1482,-3.1482,-3.1482,-3.1482,-3.1482,-3.1894,-3.2367,-3.2933,-3.3735,-3.4592,-3.556,-3.5622,-3.5622,-3.5622,-3.5622,-3.5622,-3.5622,-3.5622,-3.5622,-3.5622,-3.5622,-3.5622,-3.5622,-3.5622,-3.6054,-3.6865,-3.6865,-3.7433,-3.8382,-3.8168,-3.8318,-3.8676,-3.8465,-3.8496,-3.8707,-3.8707,-3.8707,-3.8707,4.6101,4.6105,4.6105,4.6088,4.6189,4.6223,4.6108,4.6075,4.6033,4.5916,4.5881,4.5841,4.5809,4.5783,4.5733,4.5603,4.5586,4.5476,4.5161,4.4781,4.4447,4.4058,4.3986,4.3955,4.3955,4.3967,4.3836,4.3497,4.3497,4.3497,4.3497,4.3497,4.3214,4.2655,4.208,4.1446,4.081,3.9458,3.9315,3.9765,3.7367,3.6698,3.6884,3.4233,3.1355,2.8657,2.7705,2.5469,2.262,2.0121,1.6883,1.3246,0.9013,0.6753,0.4514,-0.1698,-0.3599,-0.5244,-1.1871,-1.3083,-1.3477,-1.7781,-2.1386,-2.4175,-2.5195,-2.6469,-2.7458,-2.7524,-2.8925,-3.0072,-3.0072,-3.0208,-3.0524,-3.1278,-3.0837,-3.0644,-3.1409,-3.1482,-3.1482,-3.1482,-3.1482,-3.1482,-3.1482,-3.1482,-3.2074,-3.3399,-3.3502,-3.4072,-3.5329,-3.5419,-3.5419,-3.5419,-3.5487,-3.552,-3.552,-3.5588,-3.5622,-3.5622,-3.5622,-3.5622,-3.5622,-3.5622,-3.5898,-3.6374,-3.6374,-3.6943,-3.779,-3.736,-3.7756,-3.8578,-3.8099,-3.8216,-3.8707,-3.8707,-3.8707,-3.8707,4.6124,4.61,4.6069,4.5967,4.5962,4.5981,4.5959,4.5901,4.588,4.589,4.5764,4.5703,4.5783,4.5708,4.5635,4.5603,4.5586,4.5568,4.5495,4.4943,4.4553,4.4474,4.3931,4.3597,4.3597,4.3881,4.3836,4.3497,4.3497,4.3497,4.3497,4.3497,4.3214,4.2655,4.208,4.1446,4.081,3.9458,3.9016,3.9016,3.7133,3.5657,3.4471,3.3041,3.0219,2.7001,2.6758,2.4922,2.2045,1.848,1.6742,1.4863,0.8266,0.5946,0.4882,0.0466,-0.2135,-0.4591,-0.8736,-1.1043,-1.3153,-1.674,-1.9423,-2.1461,-2.2392,-2.41,-2.5742,-2.6438,-2.7472,-2.8247,-2.8247,-2.938,-3.0329,-3.0524,-3.097,-3.1278,-3.1467,-3.1482,-3.1482,-3.1482,-3.1482,-3.1482,-3.1482,-3.1482,-3.1835,-3.2679,-3.2732,-3.3079,-3.3828,-3.3897,-3.3897,-3.3897,-3.4438,-3.4742,-3.4742,-3.5318,-3.5622,-3.5622,-3.5622,-3.5622,-3.5622,-3.5622,-3.5898,-3.6374,-3.6374,-3.6764,-3.7323,-3.7248,-3.756,-3.8065,-3.7946,-3.8216,-3.8707,-3.8707,-3.8707,-3.8707,4.614,4.6108,4.6069,4.5916,4.5899,4.5881,4.5861,4.582,4.5777,4.5751,4.5677,4.5637,4.5692,4.5651,4.5586,4.5586,4.5586,4.5531,4.5362,4.4877,4.4501,4.4318,4.3791,4.3497,4.3497,4.3679,4.3679,4.3497,4.3497,4.3497,4.3497,4.3497,4.3339,4.305,4.2185,4.142,4.0654,3.9023,3.8358,3.8157,3.5591,3.4295,3.3525,3.1163,2.857,2.6125,2.5634,2.2918,1.9462,1.74,1.4737,1.151,0.7109,0.4802,0.3118,-0.0637,-0.2633,-0.4506,-0.843,-1.0509,-1.2099,-1.4975,-1.7357,-1.933,-2.0781,-2.311,-2.5134,-2.5578,-2.6761,-2.767,-2.767,-2.8812,-2.9827,-3.0208,-3.0644,-3.1087,-3.1467,-3.1482,-3.1482,-3.1482,-3.1482,-3.1347,-3.1076,-3.0776,-3.1006,-3.198,-3.1765,-3.1983,-3.29,-3.2691,-3.2691,-3.2971,-3.3339,-3.3671,-3.3981,-3.4709,-3.5081,-3.5081,-3.5453,-3.5622,-3.5622,-3.5622,-3.5739,-3.6028,-3.6028,-3.6333,-3.6803,-3.6563,-3.6886,-3.7578,-3.7578,-3.7877,-3.835,-3.8627,-3.8707,-3.8707,4.6108,4.6075,4.6027,4.5862,4.5852,4.5839,4.5783,4.5775,4.5737,4.562,4.5586,4.5586,4.5586,4.5586,4.5586,4.5586,4.5586,4.5476,4.5118,4.48,4.4419,4.4016,4.3679,4.3497,4.3497,4.3497,4.3497,4.3497,4.3497,4.3497,4.3497,4.3497,4.3444,4.3321,4.2266,4.1279,4.0345,3.8575,3.769,3.7306,3.398,3.2961,3.3055,2.9568,2.7158,2.5529,2.4643,2.1146,1.6804,1.6399,1.2587,0.7706,0.5907,0.3879,0.143,-0.2231,-0.3481,-0.4535,-0.897,-1.0398,-1.1117,-1.3406,-1.5666,-1.7721,-1.9506,-2.2254,-2.4492,-2.4492,-2.5938,-2.7258,-2.7258,-2.8103,-2.9002,-2.9766,-3.0133,-3.0524,-3.1219,-3.1409,-3.1482,-3.1482,-3.1377,-3.1091,-3.0417,-2.9879,-3.0007,-3.1069,-3.0676,-3.0875,-3.1892,-3.1526,-3.151,-3.2088,-3.2248,-3.2596,-3.322,-3.3931,-3.437,-3.4506,-3.5131,-3.5504,-3.5622,-3.5622,-3.5622,-3.5622,-3.5622,-3.5854,-3.6224,-3.5766,-3.6165,-3.7058,-3.7135,-3.7506,-3.798,-3.8496,-3.8707,-3.8707,4.5981,4.5924,4.5872,4.5673,4.5648,4.5632,4.5618,4.5637,4.562,4.5603,4.5586,4.5586,4.5586,4.5586,4.5586,4.5586,4.5586,4.5476,4.5118,4.48,4.4419,4.4016,4.3679,4.3497,4.3497,4.3497,4.3497,4.3497,4.3497,4.3497,4.3497,4.3497,4.325,4.2788,4.2103,4.1091,3.9833,3.8404,3.7397,3.6523,3.3736,3.2416,3.1861,2.9635,2.7263,2.5094,2.4937,2.1779,1.7347,1.509,1.2451,0.9356,0.5169,0.3666,0.2677,-0.0983,-0.2769,-0.4362,-0.8032,-0.9798,-1.1128,-1.3464,-1.5711,-1.7334,-1.7649,-2.0139,-2.2403,-2.2403,-2.3952,-2.5346,-2.5346,-2.6773,-2.792,-2.8051,-2.9317,-3.0329,-3.045,-3.1087,-3.1482,-3.1482,-3.1001,-3.0387,-2.9759,-2.9624,-2.963,-2.9754,-2.9707,-2.9687,-2.9817,-2.9739,-2.9964,-3.0589,-3.1226,-3.1831,-3.2425,-3.3169,-3.388,-3.4489,-3.459,-3.4979,-3.5622,-3.5622,-3.5622,-3.5622,-3.5622,-3.5667,-3.5694,-3.5622,-3.5985,-3.6563,-3.702,-3.7506,-3.798,-3.8496,-3.8707,-3.8707,4.5932,4.5862,4.5796,4.5635,4.5586,4.5586,4.5586,4.5586,4.5586,4.5586,4.5586,4.5586,4.5586,4.5586,4.5586,4.5586,4.5419,4.518,4.4849,4.4455,4.4106,4.3758,4.3563,4.3375,4.305,4.305,4.2884,4.2562,4.3196,4.3497,4.3497,4.3497,4.3214,4.2655,4.208,4.081,3.9049,3.8181,3.688,3.5226,3.3047,3.1806,3.1062,2.9155,2.6875,2.4293,2.1569,1.8501,1.5304,1.2825,0.9633,0.628,0.4273,0.2681,0.0984,-0.1965,-0.3215,-0.419,-0.7105,-0.9209,-1.0869,-1.1912,-1.4754,-1.7342,-1.7342,-1.9316,-2.1375,-2.1886,-2.3588,-2.5004,-2.5004,-2.6514,-2.767,-2.767,-2.8748,-2.9766,-3.0208,-3.0279,-3.0293,-3.0421,-2.9849,-2.9325,-2.9071,-2.8682,-2.8631,-2.8943,-2.8633,-2.8593,-2.8889,-2.8591,-2.867,-2.9271,-2.9919,-3.0582,-3.1166,-3.2268,-3.2933,-3.3271,-3.41,-3.4895,-3.5622,-3.5622,-3.5622,-3.5622,-3.5622,-3.5622,-3.5622,-3.5622,-3.5739,-3.6028,-3.6522,-3.721,-3.798,-3.8496,-3.8707,-3.8707]}]]